[[{"header":{"parameterUnit":"m.s-1","parameterCategory":1,"la1":30.6,"la2":29.2853,"lo1":-89.7004,"lo2":-87.6739,"dy":0.0162,"dx":0.0183,"nx":112,"ny":82,"refTime":"2024-09-19T06:00:00:Z","depth":0,"parameterNumber":2,"parameterNumberName":"U-component_of_WINDS"},"data":[0.0,0.0,0.0,0.0,0.0,0.0,0.0,0.0,0.0,0.0,0.0,0.0,0.0,0.0,0.0,0.0,0.0,0.0,0.0,0.0,0.0,0.0,0.0,0.0,0.0,0.0,0.0,0.0,0.0,0.0,0.0,0.0,0.0,0.0,0.0,0.0,0.0,0.0,0.0,0.0,0.0,0.0,0.0,0.0,0.0,0.0,0.0,0.0,0.0,0.0,0.0,0.0,0.0,0.0,0.0,0.0,0.0,0.0,0.0,0.0,0.0,0.0,0.0,0.0,0.0,0.0,0.0,0.0,0.0,0.0,0.0,0.0,0.0,0.0,0.0,0.0,0.0,0.0,0.0,0.0,0.0,0.0,0.0,0.0,0.0,0.0,0.0,0.0,0.0,0.0,-2.1561,-2.2764,-2.4225,-2.5131,-2.5205,-2.5077,-2.4249,-2.2524,0.0,0.0,0.0,0.0,0.0,0.0,0.0,0.0,0.0,0.0,0.0,0.0,0.0,0.0,0.0,0.0,0.0,0.0,0.0,0.0,0.0,0.0,0.0,0.0,0.0,0.0,0.0,0.0,0.0,0.0,0.0,0.0,0.0,0.0,0.0,0.0,0.0,0.0,0.0,0.0,0.0,0.0,0.0,0.0,0.0,0.0,0.0,0.0,0.0,0.0,0.0,0.0,0.0,0.0,0.0,0.0,0.0,0.0,0.0,0.0,0.0,0.0,0.0,0.0,0.0,0.0,0.0,0.0,0.0,0.0,0.0,0.0,0.0,0.0,0.0,0.0,0.0,0.0,0.0,0.0,0.0,0.0,0.0,0.0,0.0,0.0,0.0,0.0,0.0,0.0,0.0,0.0,0.0,0.0,0.0,0.0,0.0,0.0,0.0,0.0,0.0,0.0,0.0,0.0,-2.1369,-2.4384,-2.4984,-2.5185,-2.5191,-2.4517,-2.3384,-2.1693,0.0,0.0,0.0,0.0,0.0,0.0,0.0,0.0,0.0,0.0,0.0,0.0,0.0,0.0,0.0,0.0,0.0,0.0,0.0,0.0,0.0,0.0,0.0,0.0,0.0,0.0,0.0,0.0,0.0,0.0,0.0,0.0,0.0,0.0,0.0,0.0,0.0,0.0,0.0,0.0,0.0,0.0,0.0,0.0,0.0,0.0,0.0,0.0,0.0,0.0,0.0,0.0,0.0,0.0,0.0,0.0,0.0,0.0,0.0,0.0,0.0,0.0,0.0,0.0,0.0,0.0,0.0,0.0,0.0,0.0,0.0,0.0,0.0,0.0,0.0,0.0,0.0,0.0,0.0,0.0,0.0,0.0,0.0,0.0,0.0,0.0,0.0,0.0,0.0,0.0,0.0,0.0,0.0,0.0,0.0,0.0,0.0,0.0,0.0,0.0,0.0,0.0,0.0,-2.0934,-2.237,-2.4889,-2.518,-2.5191,-2.5191,-2.4396,-2.3174,-2.1502,-2.0179,0.0,0.0,0.0,0.0,0.0,0.0,0.0,0.0,0.0,0.0,0.0,0.0,0.0,0.0,0.0,0.0,0.0,0.0,0.0,0.0,0.0,0.0,0.0,0.0,0.0,0.0,0.0,0.0,0.0,0.0,0.0,0.0,0.0,0.0,0.0,0.0,0.0,0.0,0.0,0.0,0.0,0.0,0.0,0.0,0.0,0.0,0.0,0.0,0.0,0.0,0.0,0.0,0.0,0.0,0.0,0.0,0.0,0.0,0.0,0.0,0.0,0.0,0.0,0.0,0.0,0.0,0.0,0.0,0.0,0.0,0.0,0.0,0.0,0.0,0.0,0.0,0.0,0.0,0.0,0.0,0.0,0.0,0.0,0.0,0.0,0.0,0.0,0.0,0.0,0.0,0.0,0.0,0.0,0.0,0.0,0.0,0.0,0.0,0.0,0.0,0.0,0.0,-2.2362,-2.3274,-2.5013,-2.5191,-2.5115,-2.4899,-2.3919,-2.2601,-2.0929,-1.9243,0.0,0.0,0.0,0.0,0.0,0.0,0.0,0.0,0.0,0.0,0.0,0.0,0.0,0.0,0.0,0.0,0.0,0.0,0.0,0.0,0.0,0.0,0.0,0.0,0.0,0.0,0.0,0.0,0.0,0.0,0.0,0.0,0.0,0.0,0.0,0.0,0.0,0.0,0.0,0.0,0.0,0.0,0.0,0.0,0.0,0.0,0.0,0.0,0.0,0.0,0.0,0.0,0.0,0.0,0.0,0.0,0.0,0.0,0.0,0.0,0.0,0.0,0.0,0.0,0.0,0.0,0.0,0.0,0.0,0.0,0.0,0.0,0.0,0.0,0.0,0.0,0.0,0.0,0.0,0.0,0.0,0.0,0.0,0.0,0.0,0.0,0.0,0.0,0.0,0.0,0.0,0.0,0.0,0.0,0.0,0.0,0.0,0.0,0.0,0.0,0.0,0.0,-2.1635,-2.3271,-2.5013,-2.5191,-2.4861,-2.4072,-2.251,-2.0872,-1.9185,-1.75,0.0,0.0,0.0,0.0,0.0,0.0,0.0,0.0,0.0,0.0,0.0,0.0,0.0,0.0,0.0,0.0,0.0,0.0,0.0,0.0,0.0,0.0,0.0,0.0,0.0,0.0,0.0,0.0,0.0,0.0,0.0,0.0,0.0,0.0,0.0,0.0,0.0,0.0,0.0,0.0,0.0,0.0,0.0,0.0,0.0,0.0,0.0,0.0,0.0,0.0,0.0,0.0,0.0,0.0,0.0,0.0,0.0,0.0,0.0,0.0,0.0,0.0,0.0,0.0,0.0,0.0,0.0,0.0,0.0,0.0,0.0,0.0,0.0,0.0,0.0,0.0,0.0,0.0,0.0,0.0,0.0,0.0,0.0,0.0,0.0,0.0,0.0,0.0,0.0,0.0,0.0,0.0,0.0,0.0,0.0,0.0,0.0,0.0,0.0,0.0,0.0,0.0,-2.0554,-2.2004,0.0,-2.3335,-2.3202,-2.2874,-2.1808,-2.0467,-1.8873,0.0,0.0,0.0,0.0,0.0,0.0,0.0,0.0,0.0,0.0,0.0,0.0,0.0,0.0,0.0,0.0,0.0,0.0,0.0,0.0,0.0,0.0,0.0,0.0,0.0,0.0,0.0,0.0,0.0,0.0,0.0,0.0,0.0,0.0,0.0,0.0,0.0,0.0,0.0,0.0,0.0,0.0,0.0,0.0,0.0,0.0,0.0,0.0,0.0,0.0,0.0,0.0,0.0,0.0,0.0,0.0,0.0,0.0,0.0,0.0,0.0,0.0,0.0,0.0,0.0,0.0,0.0,0.0,0.0,0.0,0.0,0.0,0.0,0.0,0.0,0.0,0.0,0.0,0.0,0.0,0.0,0.0,0.0,0.0,0.0,0.0,0.0,0.0,0.0,0.0,0.0,0.0,0.0,0.0,0.0,0.0,0.0,0.0,0.0,0.0,0.0,0.0,-1.8412,-1.9895,-2.1219,0.0,-2.22,-2.2088,-2.1818,-2.1041,-1.9919,-1.8329,0.0,0.0,0.0,0.0,0.0,0.0,0.0,0.0,0.0,0.0,0.0,0.0,0.0,0.0,0.0,0.0,0.0,0.0,0.0,0.0,0.0,0.0,0.0,0.0,0.0,0.0,0.0,0.0,0.0,0.0,0.0,0.0,0.0,0.0,0.0,0.0,0.0,0.0,0.0,0.0,0.0,0.0,0.0,0.0,0.0,0.0,0.0,0.0,0.0,0.0,0.0,0.0,0.0,0.0,0.0,0.0,0.0,0.0,0.0,0.0,0.0,0.0,0.0,0.0,0.0,0.0,0.0,0.0,0.0,0.0,0.0,0.0,0.0,0.0,0.0,0.0,0.0,0.0,0.0,0.0,0.0,0.0,0.0,0.0,0.0,0.0,0.0,0.0,0.0,0.0,0.0,0.0,0.0,0.0,0.0,0.0,0.0,0.0,0.0,0.0,0.0,0.0,-1.8261,-1.9792,-2.1139,-2.2077,-2.2178,-2.1814,-2.0957,-2.0144,-1.897,0.0,0.0,0.0,0.0,0.0,0.0,0.0,0.0,0.0,0.0,0.0,0.0,0.0,0.0,0.0,0.0,0.0,0.0,0.0,0.0,0.0,0.0,0.0,0.0,0.0,0.0,0.0,0.0,0.0,0.0,0.0,0.0,0.0,0.0,0.0,0.0,0.0,0.0,0.0,0.0,0.0,0.0,0.0,0.0,0.0,0.0,0.0,0.0,0.0,0.0,0.0,0.0,0.0,0.0,0.0,0.0,0.0,0.0,0.0,0.0,0.0,0.0,0.0,0.0,0.0,0.0,0.0,0.0,0.0,0.0,0.0,0.0,0.0,0.0,0.0,0.0,0.0,0.0,0.0,0.0,0.0,0.0,0.0,0.0,0.0,0.0,0.0,0.0,0.0,0.0,0.0,0.0,0.0,0.0,0.0,0.0,0.0,0.0,0.0,0.0,0.0,0.0,0.0,-1.7291,-1.8665,-1.9738,-2.0049,-2.0086,-1.9976,-1.9721,-1.9474,-1.8683,-1.7158,0.0,0.0,0.0,0.0,0.0,0.0,0.0,0.0,0.0,0.0,0.0,0.0,0.0,0.0,0.0,0.0,0.0,0.0,0.0,0.0,0.0,0.0,0.0,0.0,0.0,0.0,0.0,0.0,0.0,0.0,0.0,0.0,0.0,0.0,0.0,0.0,0.0,0.0,0.0,0.0,0.0,0.0,0.0,0.0,0.0,0.0,0.0,0.0,0.0,0.0,0.0,0.0,0.0,0.0,0.0,0.0,0.0,0.0,0.0,0.0,0.0,0.0,0.0,0.0,0.0,0.0,0.0,0.0,0.0,0.0,0.0,0.0,0.0,0.0,0.0,0.0,0.0,0.0,0.0,0.0,0.0,0.0,0.0,0.0,0.0,0.0,0.0,0.0,0.0,0.0,0.0,0.0,0.0,0.0,0.0,0.0,0.0,0.0,0.0,0.0,0.0,0.0,-1.7253,-1.8341,-1.9236,-1.9597,-1.935,-1.915,-1.915,-1.915,-1.8643,-1.7444,0.0,0.0,0.0,0.0,0.0,0.0,0.0,0.0,0.0,0.0,0.0,0.0,0.0,0.0,0.0,0.0,0.0,0.0,0.0,0.0,0.0,0.0,0.0,0.0,0.0,0.0,0.0,0.0,0.0,0.0,0.0,0.0,0.0,0.0,0.0,0.0,0.0,0.0,0.0,0.0,0.0,0.0,0.0,0.0,0.0,0.0,0.0,0.0,0.0,0.0,0.0,0.0,0.0,0.0,0.0,0.0,0.0,0.0,0.0,0.0,0.0,0.0,0.0,0.0,0.0,0.0,0.0,0.0,0.0,0.0,0.0,0.0,0.0,0.0,0.0,0.0,0.0,0.0,0.0,0.0,0.0,0.0,0.0,0.0,0.0,0.0,0.0,0.0,0.0,0.0,0.0,0.0,0.0,0.0,0.0,0.0,0.0,0.0,0.0,0.0,0.0,0.0,-1.785,-1.8647,-1.9433,-2.0164,-1.9584,-1.9122,-1.9049,-1.9031,-1.8697,-1.7894,0.0,0.0,0.0,0.0,0.0,0.0,0.0,0.0,0.0,0.0,0.0,0.0,0.0,0.0,0.0,0.0,0.0,0.0,0.0,0.0,0.0,0.0,0.0,0.0,0.0,0.0,0.0,0.0,0.0,0.0,0.0,0.0,0.0,0.0,0.0,0.0,0.0,0.0,0.0,0.0,0.0,0.0,0.0,0.0,0.0,0.0,0.0,0.0,0.0,0.0,0.0,0.0,0.0,0.0,0.0,0.0,0.0,0.0,0.0,0.0,-2.0881,0.0,0.0,0.0,0.0,0.0,0.0,0.0,0.0,0.0,0.0,0.0,0.0,0.0,0.0,0.0,0.0,0.0,0.0,0.0,0.0,0.0,0.0,0.0,0.0,0.0,0.0,0.0,0.0,0.0,0.0,0.0,0.0,0.0,0.0,0.0,0.0,0.0,0.0,0.0,0.0,0.0,-1.8351,-1.9085,-1.9565,-1.9734,-1.9593,-1.9257,-1.8675,-1.8622,-1.8257,-1.7407,-1.7187,0.0,0.0,0.0,0.0,0.0,0.0,0.0,0.0,0.0,0.0,0.0,0.0,0.0,0.0,0.0,0.0,0.0,0.0,0.0,0.0,0.0,0.0,0.0,0.0,0.0,0.0,0.0,0.0,0.0,0.0,0.0,0.0,0.0,0.0,0.0,0.0,0.0,0.0,0.0,0.0,0.0,0.0,0.0,0.0,0.0,0.0,0.0,0.0,0.0,0.0,0.0,0.0,0.0,0.0,0.0,0.0,0.0,0.0,0.0,0.0,-2.1788,0.0,0.0,0.0,0.0,0.0,0.0,0.0,0.0,0.0,0.0,0.0,0.0,0.0,0.0,0.0,0.0,0.0,0.0,0.0,0.0,0.0,0.0,0.0,0.0,0.0,0.0,0.0,0.0,0.0,0.0,0.0,0.0,0.0,0.0,0.0,0.0,0.0,0.0,0.0,0.0,-1.8884,-1.9404,-1.9756,-2.0135,-1.9826,-1.9289,-1.8515,-1.8445,-1.8241,-1.7753,-1.7377,0.0,0.0,0.0,0.0,0.0,0.0,0.0,0.0,0.0,0.0,0.0,0.0,0.0,0.0,0.0,0.0,0.0,0.0,0.0,0.0,0.0,0.0,0.0,0.0,0.0,0.0,0.0,0.0,0.0,0.0,0.0,0.0,0.0,0.0,0.0,0.0,0.0,0.0,0.0,0.0,0.0,0.0,0.0,0.0,0.0,0.0,0.0,0.0,0.0,0.0,0.0,0.0,0.0,-2.6682,-2.6586,-2.58,-2.6523,-2.6404,-2.5535,-2.3963,-2.3861,-2.4622,-2.2655,0.0,0.0,0.0,0.0,0.0,0.0,0.0,0.0,0.0,0.0,0.0,0.0,0.0,0.0,0.0,0.0,0.0,0.0,0.0,0.0,0.0,0.0,0.0,0.0,-2.1093,-2.0946,-1.8852,0.0,0.0,0.0,0.0,0.0,0.0,0.0,0.0,0.0,0.0,0.0,-1.9422,-1.9774,-2.0082,-2.0749,-2.0111,-1.9313,-1.8523,-1.8333,-1.8225,-1.8166,-1.7548,-1.7186,0.0,0.0,0.0,0.0,0.0,0.0,0.0,0.0,0.0,0.0,0.0,0.0,0.0,0.0,0.0,0.0,0.0,0.0,0.0,0.0,0.0,0.0,0.0,0.0,0.0,0.0,0.0,0.0,0.0,0.0,0.0,0.0,-2.0619,-2.1341,0.0,0.0,0.0,0.0,0.0,0.0,0.0,0.0,0.0,0.0,0.0,0.0,0.0,-2.6776,-2.7363,-2.7605,-2.7226,-2.6156,-2.7079,-2.6841,-2.5642,-2.6344,-2.6892,-2.724,-2.6423,0.0,-2.4225,-2.3283,0.0,0.0,0.0,0.0,0.0,0.0,0.0,0.0,0.0,0.0,0.0,0.0,0.0,0.0,0.0,0.0,0.0,0.0,0.0,0.0,0.0,0.0,-2.1242,-2.1529,-2.1389,-2.1304,0.0,-2.0146,-1.8592,-1.8753,-1.7886,0.0,0.0,0.0,0.0,0.0,0.0,0.0,-1.9891,-2.0488,-2.0767,-2.0881,-2.0207,-1.9466,-1.8718,-1.8074,-1.7681,-1.7612,-1.7517,-1.7535,-1.7703,-1.6813,0.0,0.0,0.0,0.0,0.0,0.0,0.0,0.0,0.0,0.0,0.0,0.0,0.0,0.0,0.0,0.0,0.0,0.0,0.0,0.0,0.0,0.0,0.0,0.0,0.0,0.0,0.0,0.0,0.0,-2.0068,-2.1584,-2.2456,-2.2874,-2.2995,0.0,0.0,0.0,0.0,0.0,0.0,0.0,0.0,0.0,-2.7589,-2.7764,-2.7813,-2.7736,-2.8202,-2.8132,-2.7557,-2.7976,-2.7844,-2.7305,-2.759,-2.769,-2.7585,-2.72,-2.6452,-2.5394,-2.4761,-2.4009,-2.3183,0.0,0.0,0.0,0.0,-2.1012,-2.1042,-2.1216,-2.1501,-2.165,-2.0567,0.0,0.0,0.0,0.0,0.0,0.0,0.0,0.0,0.0,0.0,-2.2013,-2.2416,-2.2146,-2.1904,-2.235,-2.0955,-1.9691,0.0,-1.9675,-1.887,-1.716,0.0,0.0,0.0,0.0,-1.8647,-2.0359,-2.0763,-2.0913,-2.0913,-2.0612,-2.0114,-1.9327,-1.896,-1.8506,-1.7883,-1.7976,-1.7782,-1.7158,-1.7056,-1.6785,0.0,0.0,0.0,0.0,0.0,0.0,0.0,0.0,0.0,0.0,0.0,0.0,0.0,0.0,0.0,0.0,0.0,0.0,0.0,0.0,0.0,0.0,0.0,0.0,0.0,0.0,0.0,0.0,-2.0933,-2.2315,-2.3264,-2.3926,-2.4204,0.0,0.0,0.0,0.0,0.0,0.0,-2.7171,-2.7624,-2.8179,-2.9022,-2.9395,-2.928,-2.8592,-2.9101,-2.9074,-2.854,-2.854,-2.8424,-2.8234,-2.8234,-2.8055,-2.7737,-2.7461,-2.7157,-2.6802,-2.6069,-2.5363,-2.4655,-2.3695,-2.316,-2.2882,-2.2528,-2.2428,-2.2519,-2.2564,-2.2783,-2.2877,-2.1879,-2.1341,-2.093,-2.0079,0.0,0.0,0.0,0.0,-2.1322,-2.211,-2.2132,-2.2123,-2.2673,-2.2271,-2.1818,-2.198,-2.1272,-2.0647,0.0,-2.0906,-2.0303,-1.807,0.0,0.0,0.0,0.0,-1.9079,-2.0426,-2.0768,-2.0867,-2.0867,-2.0702,-2.0343,-1.9745,-1.9367,-1.8816,-1.8012,-1.8003,-1.7568,-1.6596,-1.7013,-1.684,-1.5973,0.0,0.0,0.0,0.0,0.0,0.0,0.0,0.0,0.0,0.0,0.0,0.0,0.0,0.0,0.0,0.0,0.0,0.0,0.0,0.0,0.0,0.0,0.0,0.0,0.0,0.0,0.0,0.0,0.0,-2.3518,-2.417,0.0,0.0,0.0,0.0,-2.5863,-2.5719,-2.6411,-2.8389,-2.9124,-3.0041,-3.1285,-3.1973,-3.1974,-3.1316,-3.1346,-3.0363,-2.8393,-2.8393,-2.8014,-2.7277,-2.7277,-2.7602,-2.8145,-2.7499,-2.7558,-2.8001,-2.6705,-2.5781,-2.5167,-2.5109,-2.4681,-2.4158,-2.4643,-2.4084,-2.3126,-2.3632,-2.3412,-2.291,-2.2838,-2.1982,-2.1009,-2.0997,-2.062,0.0,0.0,-2.1541,-2.2169,-2.2715,-2.1975,-2.1227,-2.1909,-2.1158,-2.0479,-2.1114,-2.1063,-2.0913,0.0,-2.0619,-2.0097,-1.9641,0.0,-1.9357,-1.8663,-1.9167,-1.9657,-1.9751,-2.0368,-2.0812,-2.0812,-2.0178,-1.9735,-1.9704,-1.8471,-1.7681,-1.7622,-1.7034,-1.6641,-1.6514,-1.6541,-1.6483,-1.6369,-1.5663,0.0,0.0,0.0,0.0,0.0,0.0,0.0,0.0,0.0,0.0,0.0,0.0,0.0,0.0,0.0,0.0,0.0,0.0,0.0,0.0,0.0,0.0,0.0,0.0,0.0,0.0,0.0,0.0,-2.5147,-2.5834,0.0,-2.5661,-2.5881,-2.629,-2.6821,-2.769,-2.8626,-2.9652,-3.0322,-3.0903,-3.1365,-3.153,-3.1293,-3.0612,-3.0598,-3.0007,-2.884,-2.8426,-2.8048,-2.7759,-2.6977,-2.6957,-2.7506,-2.6383,-2.6277,-2.6771,-2.5832,-2.5852,-2.6444,-2.6007,-2.5649,-2.5326,-2.5077,-2.4472,-2.3716,-2.3483,-2.2991,-2.2508,-2.246,-2.1907,-2.1323,-2.1713,-2.166,-2.1532,-2.1745,-2.1909,-2.2076,-2.2265,-2.167,-2.1061,-2.1293,-2.0718,-2.0205,-2.0438,-2.0171,-1.9886,-1.9923,-1.9972,-1.9823,-1.9216,-1.9407,-1.9519,-1.917,-1.9621,-2.0072,-2.0253,-2.0571,-2.0778,-2.0679,-2.0443,-2.0269,-2.0221,-1.9359,-1.8546,-1.7899,-1.7439,-1.6777,-1.5883,-1.6229,-1.6326,-1.6081,-1.5514,-1.4909,0.0,0.0,0.0,0.0,0.0,0.0,0.0,0.0,0.0,0.0,0.0,0.0,0.0,0.0,0.0,0.0,0.0,0.0,0.0,0.0,0.0,0.0,0.0,0.0,0.0,0.0,-2.4731,-2.5192,-2.6367,-2.6913,-2.637,-2.7108,-2.7813,-2.8216,-2.8963,-2.9745,-3.0524,-3.097,-3.1189,-3.1189,-3.1319,-3.0978,-3.0069,-3.0055,-2.9593,-2.867,-2.8225,-2.7766,-2.7294,-2.6509,-2.6266,-2.6404,-2.5508,-2.537,-2.5673,-2.5203,-2.5563,-2.6414,-2.5971,-2.5747,-2.5571,-2.4943,-2.432,-2.3657,-2.2811,-2.2286,-2.1997,-2.1928,-2.1694,-2.1465,-2.1827,-2.1921,-2.1921,-2.1921,-2.1735,-2.1538,-2.1538,-2.0898,-2.0285,-2.0444,-2.0005,-1.9598,-1.973,-1.9478,-1.9228,-1.9228,-1.9497,-1.9581,-1.9091,-1.9298,-1.9501,-1.9406,-1.9708,-1.9997,-2.0172,-2.0273,-2.0291,-2.0206,-2.0189,-2.0172,-2.0122,-1.9326,-1.854,-1.7874,-1.7197,-1.6423,-1.5492,-1.5853,-1.5953,-1.5697,-1.5391,-1.5152,-1.5001,0.0,0.0,0.0,0.0,0.0,0.0,0.0,0.0,0.0,0.0,0.0,0.0,0.0,0.0,0.0,0.0,0.0,0.0,0.0,0.0,0.0,0.0,0.0,-2.1534,-2.3679,-2.4741,-2.3646,-2.5675,-2.6951,-2.6326,-2.7374,-2.8634,-2.9926,-2.9391,-2.9605,-3.0955,-3.0966,-3.0957,-3.094,-3.1589,-3.1282,-2.9998,-2.9965,-2.9242,-2.7824,-2.781,-2.7104,-2.5842,-2.5828,-2.5519,-2.5006,-2.4991,-2.4978,-2.4951,-2.4951,-2.4922,-2.4951,-2.4979,-2.5007,-2.4912,-2.4313,-2.3689,-2.2997,-2.1765,-2.1345,-2.1345,-2.1369,-2.1369,-2.1345,-2.1369,-2.1369,-2.1369,-2.1369,-2.0996,-2.057,-2.057,-1.9671,-1.8885,-1.9258,-1.8897,-1.8592,-1.8988,-1.9082,-1.9082,-1.9101,-1.9265,-1.9395,-1.9395,-1.9395,-1.9395,-1.9395,-1.9395,0.0,-1.9395,-1.9395,-1.9395,-1.9395,-1.9395,-1.9395,-1.9395,-1.8217,-1.7497,-1.7497,-1.6228,-1.5477,-1.5433,-1.5418,-1.5388,-1.5356,-1.5327,-1.5754,-1.6633,0.0,0.0,0.0,0.0,0.0,0.0,0.0,0.0,0.0,0.0,0.0,0.0,0.0,0.0,0.0,0.0,0.0,0.0,0.0,0.0,0.0,-2.0955,-2.2366,-2.2579,-2.3585,-2.4681,-2.5675,-2.6402,-2.6993,-2.7333,-2.8138,-2.8549,-2.8424,-2.8784,-2.9118,-2.9421,-2.9418,-2.9568,-2.9984,-3.0033,-2.9868,-2.952,-2.9473,-2.9092,-2.8311,-2.7872,-2.7474,-2.7087,-2.6153,-2.5665,-2.5544,-2.4657,-2.4316,-2.4321,-2.3813,-2.3619,-2.3708,-2.4639,-2.4721,-2.4327,-2.4164,-2.3218,-2.1864,-2.0655,-2.0245,-2.0295,-2.0696,-2.0547,-2.0321,-2.0696,-2.082,-2.082,-2.082,-2.0368,-1.9885,-1.9885,-1.8967,-1.8092,-1.8214,-1.8111,-1.8108,-1.8572,-1.8669,-1.8745,-1.9045,-1.9139,-1.9176,-1.9176,-1.9265,-1.9302,-1.9195,-1.9321,0.0,-1.9339,-1.9376,-1.9376,-1.9339,-1.9339,-1.9302,-1.9176,-1.801,-1.7282,-1.7282,-1.6072,-1.5533,-1.5968,-1.5983,-1.62,-1.6677,-1.6213,-1.6317,0.0,0.0,0.0,0.0,0.0,0.0,0.0,0.0,0.0,0.0,0.0,0.0,0.0,0.0,0.0,0.0,0.0,0.0,0.0,0.0,0.0,0.0,-2.182,-2.2951,-2.3668,-2.4153,-2.4697,-2.5476,-2.6002,-2.6597,-2.7279,-2.7917,-2.8239,-2.8116,-2.8468,-2.8698,-2.8661,-2.883,-2.8973,-2.904,-2.8953,-2.8764,-2.847,-2.8221,-2.7966,-2.767,-2.7321,-2.7013,-2.675,-2.5994,-2.5573,-2.5336,-2.4633,-2.416,-2.3901,-2.3507,-2.3199,0.0,0.0,0.0,0.0,0.0,-2.2247,-2.0921,-2.0223,-1.9829,-1.9682,-1.9991,-1.9888,-1.9682,-2.0016,-2.0093,-2.0093,-2.0093,-1.9664,-1.9115,-1.8904,-1.8152,-1.7452,-1.7391,-1.738,-1.7523,-1.7974,-1.8074,-1.8153,-1.8389,-1.8428,0.0,-1.8428,-1.8879,-1.9176,-1.9101,-1.9195,-1.9265,-1.9213,-1.9246,-1.9265,-1.9213,-1.9213,-1.9176,-1.9101,-1.8201,0.0,0.0,0.0,-1.624,-1.6605,-1.6585,0.0,0.0,0.0,0.0,0.0,0.0,0.0,0.0,-1.883,-1.8907,0.0,0.0,0.0,0.0,0.0,0.0,0.0,0.0,0.0,0.0,0.0,0.0,0.0,0.0,0.0,0.0,-2.2451,-2.3053,-2.4543,-2.4866,-2.4747,-2.423,-2.5136,-2.6001,-2.6621,-2.7157,-2.7709,-2.8239,-2.8178,-2.8142,-2.8274,0.0,0.0,0.0,0.0,-2.791,-2.7316,-2.6839,-2.6562,-2.6465,-2.6465,-2.6154,-2.5619,-2.5619,-2.5344,-2.4811,-2.4811,-2.4421,-2.374,-2.3691,-2.3282,-2.2708,-2.2895,-2.287,-2.2687,-2.1982,-2.1113,-2.0278,-2.0217,0.0,0.0,-1.9406,-1.9394,-1.9394,-1.9394,-1.9394,-1.9394,-1.9394,-1.9001,-1.8474,-1.7995,-1.7454,-1.6967,-1.6853,-1.6782,-1.6858,-1.7333,-1.7435,-1.7442,-1.7483,-1.7504,-1.7504,-1.7504,-1.8316,-1.8974,-1.8936,-1.8988,-1.9007,-1.8969,-1.9007,-1.9026,-1.9026,0.0,0.0,-1.9101,-1.8495,-1.8097,-1.8097,-1.7481,-1.7148,-1.7199,-1.7233,-1.7748,-1.8889,-1.8848,-1.9452,-2.0713,-2.1246,-2.1544,-2.1551,-1.9466,-1.9376,0.0,0.0,0.0,0.0,0.0,0.0,0.0,0.0,0.0,0.0,0.0,0.0,0.0,0.0,0.0,-2.2406,-2.3281,-2.4003,-2.4499,-2.4575,-2.4753,-2.5255,-2.5501,-2.5899,-2.6498,-2.6629,-2.6769,-2.6871,-2.6849,-2.6862,-2.6884,-2.6951,-2.7161,-2.7468,-2.748,-2.741,-2.7281,-2.7216,-2.6834,-2.627,0.0,0.0,-2.5842,-2.5842,-2.5558,-2.5052,-2.5052,-2.4686,-2.4079,-2.368,-2.32,-2.2671,-2.2204,-2.2031,-2.1928,-2.1358,-2.1027,-2.0781,-2.0352,-2.0131,-1.9971,-1.9542,-1.9394,-1.9394,-1.9394,-1.9394,0.0,-1.9394,-1.9001,-1.8597,-1.8461,-1.7736,-1.6997,-1.6977,-1.664,-1.6436,-1.6858,-1.693,-1.7055,-1.7422,-1.7504,-1.7504,-1.7504,-1.7947,-1.8218,-1.8008,-1.8246,-1.8364,-1.8088,-1.8383,-1.863,-1.863,-1.863,-1.8745,-1.9064,-1.8194,-1.7585,-1.7483,-1.6961,-1.6813,-1.7181,-1.7766,-1.8337,-1.8886,-1.8979,-1.9619,-2.0778,-2.0889,-2.1176,-2.159,-2.1682,-2.1899,0.0,0.0,0.0,0.0,0.0,0.0,0.0,0.0,0.0,0.0,0.0,-1.9645,-2.02,0.0,-2.288,-2.3703,-2.4059,-2.4415,-2.5114,-2.4966,-2.4979,-2.5528,-2.5598,-2.5858,-2.6436,-2.6499,-2.6465,-2.6374,-2.6681,-2.6684,-2.6236,-2.6804,-2.7091,-2.6996,-2.6996,-2.6996,-2.6996,-2.6723,-2.6414,-2.6062,-2.6062,-2.5992,-2.591,-2.591,-2.5763,-2.5505,-2.5505,-2.5117,-2.4441,-2.3595,-2.3077,-2.2785,-2.2238,-2.2049,-2.2073,-2.1715,-2.143,-2.1151,-2.0884,-2.0435,-1.9964,-1.9697,-1.9417,-1.921,-1.921,-1.921,-1.921,-1.921,-1.9016,-1.8748,-1.8481,-1.8007,-1.7484,-1.6913,-1.6608,-1.6386,-1.6312,-1.6293,-1.638,-1.6591,-1.6655,-1.6655,-1.6655,-1.7001,-1.7374,-1.7571,-1.7774,-1.7854,-1.7673,-1.7854,-1.8001,-1.8001,-1.8001,-1.808,-1.8277,-1.7804,-1.7484,-1.7398,-1.7156,-1.7096,-1.7347,-1.7643,-1.8041,-1.8548,-1.8844,-1.9426,-2.0301,-2.0573,-2.0834,-2.1104,-2.1444,-2.1732,0.0,0.0,0.0,0.0,0.0,0.0,0.0,0.0,-1.7688,-1.8724,-2.0136,-2.1357,-2.1956,-2.291,-2.3924,-2.4851,-2.4658,-2.4743,-2.5706,-2.546,-2.5314,-2.5627,-2.5661,-2.5849,-2.6346,-2.6396,-2.6327,-2.6131,-2.6704,-2.6733,-2.6082,-2.7026,-2.7347,-2.6881,-2.6869,-2.682,-2.6709,-2.6279,-2.5974,-2.5828,-2.5828,-2.5828,-2.5793,-2.5793,-2.5793,-2.5793,-2.5793,-2.5383,-2.4675,-2.3694,-2.3171,-2.2975,-2.251,-2.2375,-2.2359,-2.2247,-2.1921,-2.1548,-2.144,-2.0827,-2.0085,-1.988,-1.9519,-1.9158,-1.9023,-1.8987,-1.8987,-1.8987,-1.8987,-1.8891,-1.847,-1.8277,-1.7989,-1.7111,-1.6835,-1.6607,-1.6056,-1.597,-1.5912,-1.5816,-1.5792,-1.5792,-1.5792,-1.611,-1.6573,-1.7126,-1.7291,-1.7333,-1.725,-1.7333,-1.7374,-1.7374,-1.7374,-1.7374,-1.7374,-1.7353,-1.7353,-1.7353,-1.7216,-1.7209,-1.7312,-1.7209,-1.7453,-1.8018,-1.852,-1.9055,-1.9664,-2.0174,-2.0434,-2.0434,-2.0434,-2.0734,-1.6081,-1.6407,-1.7072,-1.7856,-1.813,-1.8386,0.0,0.0,-1.968,-2.0393,-2.1245,-2.2125,-2.2889,-2.3772,-2.442,-2.454,-2.4902,-2.5285,-2.5594,-2.5592,-2.5625,-2.5847,-2.5881,-2.5906,-2.5968,-2.598,-2.598,-2.5945,-2.6007,-2.6216,-2.6599,-2.6734,-2.6992,-2.7422,-2.7397,-2.7201,-2.6685,-2.666,-2.6271,-2.5641,-2.5641,-2.5535,-2.5382,-2.5382,-2.5382,-2.5382,-2.5382,-2.5046,-2.4518,-2.4398,-2.3809,-2.2999,-2.2919,-2.2638,-2.2216,-2.2228,-2.2149,-2.2041,-2.1572,-2.132,-2.1067,-2.0121,-1.9772,-1.9627,-1.9131,-1.8987,-1.8987,-1.8987,-1.8987,-1.8975,-1.8915,-1.8554,-1.8169,-1.8049,-1.7664,-1.7159,-1.6631,-1.6511,-1.6379,-1.5888,-1.5792,-1.5792,-1.5792,-1.5836,-1.5935,-1.6141,-1.6518,-1.668,-1.6371,-1.6659,-1.6879,-1.6879,-1.6879,-1.6879,-1.6879,-1.6816,-1.6795,-1.6795,-1.6293,-1.6175,-1.6595,-1.6653,-1.6913,-1.7393,-1.7982,-1.856,-1.9105,-1.9636,-1.9901,-1.9901,-1.9901,-2.0182,-1.5992,-1.6115,-1.6274,0.0,-1.7727,-1.81,-1.8826,-1.9285,-1.9725,-2.0293,-2.1455,-2.2317,-2.2239,-2.334,-2.4142,0.0,-2.4173,-2.4492,-2.4131,-2.4212,-2.4354,-2.4425,-2.482,-2.53,-2.5838,-2.591,-2.5828,-2.5723,-2.6122,-2.6356,-2.636,-2.6737,-2.7054,-2.7148,-2.7148,-2.7051,-2.6821,-2.6821,-2.6505,-2.5889,-2.5889,-2.5684,-2.5312,-2.5312,-2.504,-2.46,-2.46,-2.4483,-2.426,-2.3968,-2.3605,-2.316,-2.2596,-2.2201,-2.1978,-2.2138,-2.2197,-2.2161,-2.1945,-2.1668,-2.1332,-2.0875,-2.0298,-1.9772,-1.9516,-1.9266,-1.8987,-1.8987,-1.8987,-1.8987,-1.8987,-1.8819,-1.8578,-1.8277,-1.8037,-1.7724,-1.7171,-1.7063,-1.6907,-1.6379,-1.6271,-1.6175,-1.584,-1.5792,-1.5814,-1.5869,-1.6044,-1.6132,-1.5991,-1.611,-1.6207,-1.6207,-1.6207,-1.6207,-1.6207,-1.6185,-1.6175,-1.6175,-1.5947,-1.5903,-1.6066,-1.6433,-1.6688,-1.6895,-1.7763,-1.832,-1.8547,-1.9086,-1.9317,-1.9317,-1.9317,-1.9448,-1.5737,0.0,0.0,-1.7111,-1.7676,-1.8035,-1.8472,-1.904,-1.9576,-1.9954,-2.1083,-2.1943,-2.162,-2.2682,-2.3433,-2.2897,-2.3374,-2.361,-2.3069,-2.305,-2.3149,-2.326,-2.3641,-2.4225,-2.5004,-2.55,-2.5676,-2.5535,-2.614,-2.6469,-2.6322,-2.6951,-2.7238,-2.6999,-2.6972,-2.6786,-2.639,-2.639,-2.6121,-2.5595,-2.5595,-2.5359,-2.4996,-2.4808,-2.4403,-2.3781,-2.3672,-2.3635,-2.3638,-2.3264,-2.3003,-2.2812,-2.2047,-2.161,-2.1363,-2.1564,-2.1706,-2.1819,-2.1788,-2.1373,-2.0849,-2.071,-2.0122,-1.9448,-1.9214,-1.8876,-1.8522,-1.841,-1.8363,-1.8363,-1.8363,-1.8363,-1.8335,-1.8156,-1.8137,-1.7984,-1.7488,-1.7493,-1.735,-1.6442,-1.6551,-1.6586,-1.602,-1.5956,-1.5986,-1.6008,-1.5888,-1.5792,-1.5792,-1.5792,-1.5792,-1.5792,-1.5792,-1.5792,-1.5792,-1.5792,-1.5792,-1.5792,-1.5792,-1.5792,-1.5792,-1.6319,-1.6607,-1.6607,-1.7639,-1.8205,-1.8205,-1.8734,-1.8987,-1.8987,-1.8987,-1.8987,0.0,0.0,-1.6603,-1.7999,-1.8797,-1.919,-1.9019,-1.9331,-1.973,-1.9799,-2.0219,-2.079,-2.1561,-2.2061,-2.2355,-2.2319,-2.2714,-2.3032,-2.2995,-2.2604,-2.2509,-2.2955,-2.2619,-2.2567,-2.3051,-2.4432,-2.5312,-2.5312,-2.5793,-2.6334,-2.6837,-2.7378,-2.753,-2.7197,-2.718,-2.6522,-2.5057,-2.5047,-2.4807,-2.4259,-2.4259,-2.4248,-2.4215,-2.3621,-2.3232,-2.3032,-2.2563,-2.2478,-2.2627,-2.243,-2.2041,-2.1553,-2.1532,-2.096,-2.0143,-2.0167,-2.0478,-2.091,-2.0719,-2.0182,-1.9467,-1.8956,-1.8754,-1.8564,-1.7722,-1.7464,-1.7358,-1.6899,-1.6761,-1.6761,-1.6761,-1.6761,-1.6968,-1.7738,-1.7913,-1.7793,-1.7375,-1.7774,-1.7621,-1.5785,-1.6378,-1.6997,-1.6394,-1.6334,-1.6419,-1.656,-1.6116,-1.5792,-1.5792,-1.5792,-1.5792,-1.5792,-1.5792,-1.5792,-1.5792,-1.5792,-1.5792,-1.5792,-1.5792,-1.5792,-1.5792,-1.6319,-1.6607,-1.6607,-1.7639,-1.8205,-1.8205,-1.8734,-1.8987,-1.8987,-1.8987,-1.8987,-1.4955,0.0,-1.6455,-1.733,-1.7879,-1.8261,-1.8331,-1.8809,-1.9069,-1.8526,-1.8988,-1.9397,-1.9079,-1.9931,-2.0547,-2.0334,-2.112,-2.1665,-2.1458,-2.14,-2.1502,-2.166,-2.2009,0.0,-2.2466,0.0,0.0,-2.3756,-2.4499,-2.5052,-2.5221,-2.6012,-2.6408,-2.6276,-2.6287,-2.6044,-2.5548,-2.5537,-2.5174,-2.4546,-2.3983,-2.3743,-2.3722,-2.3243,-2.2703,-2.2121,-2.1678,-2.1545,-2.1583,-2.1545,-2.1387,-2.1223,-2.0927,-2.0436,-1.9783,-1.9383,-1.9192,-1.9191,-1.9694,-1.9705,-1.9476,-1.9284,-1.8998,-1.8659,-1.8342,-1.8047,-1.7708,-1.7291,-1.7154,-1.7079,-1.679,-1.6715,-1.6771,-1.7034,-1.7118,-1.7075,-1.6928,-1.706,-1.6928,-1.5967,-1.6131,-1.6242,-1.5682,-1.5589,-1.5521,-1.5324,-1.5579,-1.5681,-1.5379,-1.5614,-1.5681,-1.5356,-1.5603,-1.5792,-1.5792,-1.5792,-1.5792,-1.5792,-1.6048,-1.6204,-1.6204,-1.7063,-1.7478,-1.7403,-1.7781,-1.8157,-1.846,-1.824,-1.8333,-1.8721,-1.8721,-1.8721,-1.4961,-1.5699,-1.6362,-1.7087,-1.7456,-1.7657,-1.7803,-1.8158,-1.8277,-1.7557,-1.7727,-1.784,-1.7254,-1.7902,-1.8618,-1.8828,-1.965,-2.0285,-2.0324,-2.0504,-2.0679,-2.0839,-2.1295,-2.1659,0.0,0.0,0.0,-2.3155,-2.4037,-2.4501,-2.4501,-2.5187,-2.54,-2.5105,-2.5105,-2.4935,-2.4595,-2.4595,-2.4365,-2.3865,-2.3358,-2.2971,-2.2686,-2.2351,-2.1769,-2.1036,-2.0644,-2.0489,-2.0576,-2.0489,-2.045,-2.042,-2.0148,-1.9778,-1.9286,-1.8916,-1.8408,-1.8051,-1.8741,-1.878,-1.858,-1.858,-1.8331,-1.8036,-1.7875,-1.7644,-1.7271,-1.6749,-1.6567,-1.6466,-1.6022,-1.5911,-1.5987,-1.6234,-1.6319,-1.6319,-1.6415,-1.6574,-1.6451,-1.5678,-1.5877,-1.6004,-1.544,-1.5414,-1.5337,-1.4887,-1.5124,-1.5223,-1.4754,-1.4983,-1.5051,-1.4731,-1.4983,-1.5164,-1.5164,-1.5164,-1.5164,-1.5164,-1.5532,-1.5855,-1.6068,-1.6855,-1.7343,-1.7474,-1.7463,-1.7628,-1.7929,-1.7545,-1.7534,-1.7929,-1.7929,-1.7929,-1.5366,-1.5914,-1.6453,-1.7271,-1.747,-1.7505,-1.7505,-1.7486,-1.7362,-1.6945,-1.6457,-1.6126,-1.6097,0.0,-1.6645,-1.7846,-1.8444,-1.9014,-1.9817,-1.995,-2.012,0.0,0.0,0.0,0.0,0.0,0.0,-2.3373,0.0,-2.4538,-2.4538,-2.4797,-2.4575,-2.3757,-2.3714,-2.329,-2.2388,-2.2397,-2.2397,-2.2397,-2.2325,-2.1944,-2.1169,-2.0973,-2.0482,-1.9901,-1.9469,-1.9429,-1.9557,-1.9381,-1.9301,-1.9301,-1.9301,-1.9063,-1.8715,-1.8715,-1.821,-1.7575,-1.7879,-1.7486,-1.6908,-1.6908,-1.6908,-1.6835,-1.6459,-1.6315,-1.6184,-1.5386,-1.5166,-1.5065,-1.4653,-1.4543,-1.4703,-1.5391,-1.5555,-1.5584,-1.5787,-1.6226,-1.6205,-1.4942,-1.5604,-1.6226,-1.5642,-1.5754,-1.5741,-1.5201,-1.4818,-1.443,-1.405,-1.4012,-1.4001,-1.3967,-1.3967,-1.4001,-1.4001,-1.4012,-1.4033,-1.4033,-1.4408,-1.4906,-1.5488,-1.5836,-1.6294,-1.6855,-1.6714,-1.6659,-1.6687,-1.6659,-1.6659,-1.6687,-1.6687,-1.6687,-1.5522,-1.6187,-1.6822,-1.7198,-1.7279,-1.7314,-1.747,-1.7267,-1.6902,-1.6346,-1.5741,-1.5158,-1.472,-1.526,0.0,-1.7049,-1.8294,0.0,-2.0292,-2.069,0.0,-2.104,0.0,-2.1055,-2.1169,-2.1452,0.0,0.0,-2.2448,-2.2533,-2.2533,-2.2881,-2.2984,-2.2775,-2.2775,-2.2643,-2.2397,-2.2264,-2.2185,-2.2176,-2.1683,-2.1327,-2.1105,-2.043,-2.0053,-1.9881,-1.9479,-1.9341,-1.939,-1.9301,-1.9301,-1.9301,-1.9301,-1.9063,-1.8715,-1.8715,-1.8394,-1.7899,-1.7692,-1.7322,-1.6908,-1.6908,-1.6908,-1.689,-1.6789,-1.6762,-1.6652,-1.6147,-1.601,-1.5845,-1.5139,-1.4955,-1.4934,-1.4799,-1.4784,-1.4784,-1.4852,-1.4961,-1.4961,-1.4625,-1.4793,-1.4961,-1.4813,-1.4846,-1.4744,-1.4316,-1.4154,-1.4026,-1.3866,-1.3941,-1.386,-1.3457,-1.3755,-1.4001,-1.4001,-1.4286,-1.4453,-1.4453,-1.5053,-1.5505,-1.5638,-1.6111,-1.6399,-1.6444,-1.6097,-1.6063,-1.6415,-1.594,-1.5968,-1.6415,-1.6415,-1.6415,-1.5854,-1.6422,-1.6943,-1.7038,-1.7072,-1.7014,-1.6762,-1.6534,-1.6118,-1.525,-1.465,0.0,-1.3812,-1.4342,0.0,0.0,0.0,0.0,-2.0124,-2.0647,-2.0983,0.0,-2.1304,0.0,-2.1416,-2.1621,-2.1752,0.0,-2.1883,-2.1926,-2.1926,-2.201,-2.2087,-2.2087,-2.2087,-2.2087,-2.2087,-2.1963,-2.1919,-2.1909,-2.1353,-2.1016,-2.0833,-2.0177,-1.9793,-1.96,0.0,-1.9301,-1.9301,-1.9301,-1.9301,-1.9301,-1.9301,-1.9164,-1.8971,-1.8971,-1.8724,-1.831,-1.8109,-1.777,-1.7385,-1.7018,-1.6908,-1.6908,-1.6908,-1.6908,-1.6826,-1.6398,-1.6288,-1.6175,-1.5524,-1.523,-1.5047,-1.4827,-1.4643,-1.4515,-1.4515,-1.4515,-1.4515,-1.4515,-1.4515,-1.4515,-1.4515,-1.4515,-1.4433,-1.4194,-1.4002,-1.3877,-1.3861,-1.3765,-1.3575,-1.3281,-1.35,-1.3676,-1.3676,-1.3895,-1.4035,-1.4035,-1.4592,-1.5041,-1.5279,-1.5509,-1.57,-1.5892,-1.54,-1.5264,-1.5497,-1.5157,-1.5186,-1.5497,-1.5497,-1.5497,-1.6285,-1.6642,-1.6908,-1.6908,-1.6872,-1.6633,-1.5863,-1.5606,-1.5203,-1.4067,0.0,-1.3195,-1.314,-1.3571,-1.4396,-1.5982,0.0,-1.8146,-1.9738,-2.0347,-2.0741,-2.1145,-2.1476,-2.1696,-2.1696,-2.1696,-2.1696,-2.1696,-2.1919,-2.2052,-2.2052,-2.183,-2.1696,-2.1696,-2.1696,-2.1696,-2.1696,-2.1696,-2.1668,-2.1604,-2.1227,-2.0824,-2.0429,-1.9985,-1.961,-1.9262,-1.9262,-1.9271,-1.9222,-1.9222,-1.9222,-1.9222,-1.9222,-1.9222,-1.9222,-1.9222,-1.9012,-1.8711,-1.8656,-1.8372,-1.7999,-1.7212,-1.6991,-1.6972,-1.6927,-1.6908,-1.6835,-1.6496,-1.6361,-1.6303,-1.5881,-1.5515,-1.5249,-1.5194,-1.4873,-1.4588,-1.4588,-1.4552,-1.4515,-1.4515,-1.4515,-1.4515,-1.4515,-1.4515,-1.4515,-1.4515,-1.4203,-1.3965,-1.3965,-1.3571,-1.3296,-1.3296,-1.3296,-1.3296,-1.3296,-1.3341,-1.3378,-1.3378,-1.3745,-1.4213,-1.475,-1.4597,-1.4743,-1.5274,-1.4764,-1.4515,-1.4515,-1.4515,-1.4515,-1.4515,-1.4515,-1.4515,-1.6697,-1.6853,-1.6908,-1.6908,-1.6661,-1.6294,-1.5799,-1.5184,0.0,0.0,-1.3093,-1.2698,-1.2376,-1.3185,-1.4334,-1.5588,0.0,0.0,0.0,0.0,-2.1163,0.0,0.0,0.0,0.0,0.0,0.0,0.0,-2.1741,-2.1785,-2.1785,-2.1741,-2.1696,-2.1696,-2.1696,-2.1696,-2.1696,-2.1696,-2.1522,-2.1209,-2.0814,-2.0369,-1.9976,-1.9604,-1.9295,-1.9042,-1.9042,0.0,-1.8812,-1.8812,-1.8812,-1.8812,-1.8812,-1.8812,-1.8812,-1.8812,-1.8767,-1.866,-1.833,-1.816,-1.802,-1.7542,-1.7394,-1.733,-1.7,-1.6908,-1.689,-1.6826,-1.6807,-1.6716,-1.6312,-1.6123,-1.6019,-1.567,-1.5285,-1.5001,-1.5001,-1.4744,-1.4515,-1.4515,-1.4515,-1.4515,-1.4515,-1.4515,-1.4515,-1.4515,-1.4451,-1.4405,-1.4405,-1.3754,-1.3296,-1.3296,-1.3296,-1.3296,-1.3296,-1.3589,-1.381,-1.381,-1.4167,-1.4425,-1.4543,-1.4529,-1.4545,-1.4654,-1.4536,-1.4515,-1.4515,-1.4515,-1.4515,-1.4515,-1.4515,-1.4515,-1.6798,-1.6908,-1.6874,-1.676,-1.6469,-1.596,-1.5101,0.0,0.0,0.0,-1.2472,-1.2305,-1.2038,-1.304,0.0,0.0,0.0,0.0,0.0,0.0,0.0,0.0,0.0,0.0,0.0,0.0,-2.1651,-2.1571,-2.1517,-2.1607,-2.1687,-2.1696,-2.1696,-2.1696,-2.1607,-2.1517,-2.1517,-2.1419,-2.1221,-2.1058,-2.0429,-2.0042,-1.9844,-1.9241,-1.8922,-1.8851,-1.8851,-1.8772,-1.87,-1.87,-1.87,-1.87,-1.87,-1.87,-1.87,-1.87,-1.87,-1.8665,-1.8479,-1.8408,-1.835,-1.7943,-1.7541,-1.7135,-1.6946,-1.6748,-1.6595,-1.6595,-1.6595,-1.6541,-1.6361,-1.6154,-1.5947,-1.574,-1.5398,-1.5088,-1.5088,-1.4944,-1.4755,-1.4588,-1.4552,-1.4489,-1.4273,-1.4228,-1.4297,-1.4396,-1.4396,-1.4426,-1.4476,-1.4167,-1.3928,-1.3928,-1.3928,-1.3928,-1.3928,-1.4102,-1.4203,-1.4203,-1.4405,-1.4515,-1.4515,-1.4515,-1.4515,-1.4515,-1.4515,-1.4515,-1.4515,-1.4515,-1.4515,-1.4515,-1.4515,-1.4515,-1.666,-1.676,-1.6726,-1.6577,-1.6226,-1.5596,-1.4411,-1.3774,0.0,0.0,-1.2,-1.2079,-1.1978,0.0,-1.3961,0.0,-1.5451,0.0,0.0,0.0,0.0,0.0,0.0,0.0,0.0,0.0,0.0,-2.1338,-2.1293,-2.1383,-2.1553,-2.1553,-2.1553,-2.1553,-2.1383,-2.1293,-2.1293,-2.1096,-2.0953,-2.0864,-2.0218,-1.9846,-1.966,-1.9059,-1.8731,-1.862,-1.849,-1.8403,-1.8371,-1.8371,-1.8371,-1.8363,-1.8267,-1.8282,-1.8241,-1.808,-1.7991,-1.7991,-1.7991,-1.7991,-1.7948,-1.7632,-1.7345,-1.7131,-1.6963,-1.6562,-1.6157,-1.6079,-1.6061,-1.6061,-1.6061,-1.5964,-1.5777,-1.5511,-1.5233,-1.4932,-1.4649,-1.46,-1.4514,-1.4273,-1.4348,-1.4379,-1.4066,-1.3944,-1.3982,-1.4113,-1.3951,-1.386,-1.395,-1.3941,-1.401,-1.4169,-1.4357,-1.4515,-1.4515,-1.4515,-1.4515,-1.4515,-1.4515,-1.4515,-1.4515,-1.4588,-1.4643,-1.4643,-1.4717,-1.4741,-1.4702,-1.4702,-1.4672,-1.4641,-1.4641,-1.4641,-1.627,-1.6342,-1.6342,-1.6342,-1.5792,-1.5053,-1.4196,0.0,0.0,-1.1888,-1.1962,-1.2184,-1.2184,-1.2884,0.0,0.0,0.0,-1.649,0.0,0.0,0.0,0.0,0.0,0.0,0.0,0.0,0.0,-2.1042,-2.1042,-2.1042,-2.1042,-2.1042,-2.1042,-2.1042,-2.1042,-2.1042,-2.1042,-2.0997,-2.082,-2.043,-2.0359,-1.9952,-1.9262,-1.9182,-1.8889,-1.8379,-1.7796,-1.7435,0.0,-1.7241,-1.7241,-1.7209,-1.6998,-1.6862,-1.678,-1.6008,-1.5684,-1.5684,-1.5684,-1.5684,-1.5718,-1.5647,-1.6717,-1.7849,-1.7131,-1.6366,-1.5673,-1.5394,-1.5303,-1.5303,-1.5303,-1.5781,-1.5983,-1.4958,-1.4678,-1.4359,-1.3264,-1.3001,-1.2986,-1.2963,-1.3554,-1.4049,-1.4016,-1.3808,-1.3655,-1.3647,-1.2851,-1.2235,-1.2228,-1.2228,-1.2443,-1.307,-1.395,-1.4515,-1.4515,-1.4515,-1.4515,-1.4515,-1.4515,-1.4515,-1.4515,-1.4854,-1.5047,-1.5047,-1.5395,-1.5492,-1.5308,-1.5308,-1.5235,-1.5033,-1.5033,-1.5033,-1.5819,-1.6165,-1.6272,-1.6202,-1.5588,-1.4868,-1.4302,0.0,-1.2904,-1.2351,-1.2413,-1.2546,-1.2465,-1.2977,-1.3591,0.0,0.0,0.0,0.0,0.0,0.0,0.0,0.0,0.0,0.0,0.0,-2.0718,-1.9977,-1.9758,-1.943,-1.8818,-2.0204,-2.0997,-2.0997,-2.0871,-2.0826,-2.0826,-2.0076,-1.9592,-1.945,-1.8591,-1.8032,-1.7703,-1.7498,-1.7282,-1.7079,-1.6782,-1.6626,0.0,-1.6547,-1.6477,-1.6332,-1.6189,-1.6058,-1.5884,-1.5519,-1.5394,-1.5394,-1.5394,-1.5394,-1.5394,-1.5394,-1.5875,-1.6364,-1.5826,-1.5265,-1.4812,-1.4505,-1.4413,-1.4367,-1.4204,-1.4394,-1.4506,-1.4044,-1.3935,-1.3798,-1.3316,-1.3216,-1.3157,-1.2902,-1.3107,-1.3245,-1.3031,-1.2887,-1.2869,-1.2976,-1.2623,-1.2402,-1.246,-1.2493,-1.259,-1.2857,-1.3312,-1.3761,-1.4169,-1.4198,-1.4107,-1.3858,-1.3845,-1.372,-1.3501,-1.3648,-1.3721,-1.3721,-1.4351,-1.4641,-1.4575,-1.5009,-1.5171,-1.5098,-1.5098,-1.5098,-1.5411,-1.5877,-1.614,-1.6035,-1.5418,-1.475,0.0,-1.367,-1.3041,-1.2614,-1.2706,-1.2813,-1.2737,-1.3107,-1.3514,-1.3807,0.0,-1.512,-1.6537,0.0,0.0,0.0,0.0,-2.0105,0.0,-2.0008,-1.9559,-1.8688,-1.8457,-1.8041,-1.7336,-1.8956,-1.9931,-1.9931,-1.9758,-1.9666,-1.9666,-1.8788,-1.8373,-1.8319,-1.7346,-1.6824,-1.6684,-1.6452,-1.63,-1.6168,-1.5995,-1.5904,0.0,-1.5904,-1.5777,-1.5616,-1.5517,-1.5333,-1.5071,-1.4817,-1.4677,-1.4594,-1.4594,-1.4594,-1.4594,-1.4594,-1.4594,-1.4552,-1.4248,-1.414,-1.4044,-1.375,-1.3594,-1.3527,-1.3506,-1.3499,-1.3426,-1.3208,-1.3135,-1.3098,-1.2835,-1.2799,-1.27,-1.242,-1.2564,-1.2636,-1.234,-1.222,-1.2232,-1.2369,-1.212,-1.1955,-1.2057,-1.2057,-1.2125,-1.2328,-1.2437,-1.2822,-1.3588,-1.3659,-1.3509,-1.3236,-1.3219,-1.3103,-1.2818,-1.2923,-1.2976,-1.2976,-1.3645,-1.398,-1.3912,-1.442,-1.4664,-1.4631,-1.4631,-1.4505,-1.5009,-1.5497,-1.5805,-1.5805,-1.524,-1.4614,0.0,-1.3519,-1.2897,-1.2503,-1.2726,-1.3,-1.3,-1.3262,-1.3502,-1.3511,-1.417,0.0,-1.5965,0.0,0.0,0.0,0.0,-1.8969,-1.83,-1.7712,-1.7343,-1.7343,-1.7343,0.0,-1.7296,-1.7343,-1.7336,-1.7336,-1.7336,-1.7343,-1.7343,-1.7343,-1.7343,-1.7343,-1.7289,-1.7082,-1.6692,-1.6684,-1.651,-1.6139,-1.5511,-1.5233,0.0,-1.5233,-1.5233,-1.5193,-1.4888,-1.4641,-1.4302,-1.3461,-1.2946,-1.2747,-1.2747,-1.2747,-1.2747,-1.2747,-1.2747,-1.2747,-1.2699,-1.3182,-1.3635,-1.3207,-1.292,-1.2817,-1.336,-1.3499,-1.3317,-1.2482,-1.2298,-1.2077,-1.1298,-1.1111,-1.1111,-1.1105,-1.1774,-1.2298,-1.2291,-1.2094,-1.1899,-1.1899,-1.0988,-1.0327,-1.0327,-1.0327,-1.0569,-1.1245,-1.1307,-1.1703,-1.2718,-1.2818,-1.2818,-1.2826,-1.2826,-1.2792,-1.28,-1.3168,-1.3376,-1.3376,-1.3793,-1.3896,-1.3694,-1.3702,-1.3665,-1.352,-1.352,-1.3175,-1.3622,-1.435,-1.4975,-1.4709,-1.4461,-1.4247,-1.4127,-1.3708,-1.3382,-1.3528,-1.3656,-1.3664,-1.3387,-1.3429,-1.3656,-1.4175,-1.4486,0.0,0.0,0.0,0.0,0.0,0.0,-1.7812,0.0,0.0,-1.7008,-1.6311,-1.6264,-1.5981,-1.5283,-1.5235,-1.5893,-1.725,-1.7296,-1.7296,-1.7296,-1.664,-1.6264,-1.6264,-1.5561,-1.519,-1.5059,-1.5059,-1.5008,-1.4884,-1.4697,-1.4593,-1.4593,-1.4593,-1.4487,-1.4307,-1.422,-1.4014,-1.3715,-1.3276,-1.3067,-1.2964,-1.2771,-1.2705,-1.2705,-1.2705,-1.2705,-1.2705,-1.2705,-1.2856,-1.2937,-1.2628,-1.2224,-1.1928,-1.2101,-1.1996,-1.1811,-1.1558,-1.1484,-1.1409,-1.1149,-1.1111,-1.1111,-1.1111,-1.1298,-1.1484,-1.1484,-1.1409,-1.1353,-1.1353,-1.1065,-1.0864,-1.0864,-1.0864,-1.0937,-1.1149,-1.1149,-1.1524,-1.239,-1.2463,-1.2346,-1.2075,-1.2054,-1.1938,-1.1637,-1.1771,-1.1816,-1.1816,-1.2487,-1.2806,-1.2732,-1.3317,-1.3535,-1.3499,-1.3499,-1.3389,0.0,-1.3867,-1.4255,-1.4012,-1.3645,-1.3347,-1.3347,-1.3106,-1.297,-1.3203,-1.3357,-1.3347,-1.3096,-1.306,-1.3198,-1.3654,-1.3938,-1.4298,0.0,0.0,0.0,0.0,0.0,0.0,0.0,-1.6289,-1.5893,-1.5283,-1.5235,-1.4956,-1.4346,-1.4298,-1.486,-1.6123,-1.617,-1.617,-1.617,-1.5561,-1.5235,-1.5235,-1.449,-1.416,-1.416,-1.4064,-1.401,-1.401,-1.401,-1.401,0.0,-1.401,-1.3921,-1.3726,-1.3726,-1.3567,-1.3319,-1.3154,-1.3036,-1.2918,-1.2647,-1.2602,-1.2585,-1.249,-1.2454,-1.2454,-1.2454,-1.2583,-1.265,-1.2391,-1.2077,-1.1766,-1.1663,-1.1435,-1.123,-1.123,-1.119,-1.1111,-1.1111,-1.1111,-1.1111,-1.1111,-1.1111,-1.1111,-1.1111,-1.1111,-1.1111,-1.1111,-1.1111,-1.1111,-1.1111,-1.1111,-1.1111,-1.1111,-1.1111,-1.1303,-1.1806,-1.1842,-1.1746,-1.1499,-1.1469,-1.137,-1.1105,-1.1111,-1.1111,-1.1111,-1.1595,-1.1855,-1.1855,-1.2365,-1.2579,-1.2579,-1.2579,-1.2554,0.0,-1.3728,-1.3554,-1.3522,-1.2787,-1.2074,-1.2074,-1.1945,0.0,-1.1916,-1.2123,-1.228,-1.231,-1.2269,-1.2291,-1.2377,-1.2906,-1.3431,0.0,-1.4564,0.0,0.0,-1.5504,0.0,-1.5127,-1.4621,-1.4298,-1.4298,-1.4298,-1.425,-1.425,-1.425,-1.425,-1.425,-1.425,-1.425,-1.425,-1.425,-1.425,-1.425,-1.3973,-1.3883,-1.3883,-1.3588,-1.3491,0.0,-1.3491,-1.3491,-1.3491,-1.3491,-1.3491,-1.3491,-1.3491,-1.3343,-1.3121,-1.3104,-1.295,-1.2717,-1.2472,-1.2426,-1.2374,-1.208,-1.2,-1.2,-1.2,-1.2332,-1.2608,-1.2367,-1.2289,-1.2258,-1.197,-1.1718,-1.1519,-1.1519,-1.1321,-1.1128,-1.1134,-1.1172,-1.1166,-1.1141,-1.1141,-1.1135,-1.1111,-1.1111,-1.1111,-1.1111,-1.1111,-1.1111,-1.1111,-1.1111,-1.1111,-1.1111,-1.1111,-1.1123,-1.1141,-1.1123,-1.1111,-1.1111,-1.1111,-1.1111,-1.1111,-1.1111,-1.1111,-1.1111,-1.1111,-1.1111,-1.1111,-1.1111,-1.1111,-1.1111,-1.1111,-1.0979,-1.1965,0.0,-1.1944,-1.1705,-1.164,-1.1626,0.0,-1.1633,-1.1675,-1.1995,0.0,-1.2191,-1.2286,-1.2124,-1.231,-1.3231,-1.3345,-1.3468,-1.3906,0.0,0.0,-1.4697,-1.4586,-1.4535,-1.4535,-1.4399,-1.4298,-1.4298,-1.4118,-1.3973,-1.3973,-1.3781,-1.3684,-1.3684,-1.3684,-1.3781,-1.3973,-1.3781,-1.3684,-1.3684,-1.3636,-1.3593,-1.3593,-1.3539,-1.3491,-1.3491,-1.3491,-1.3491,-1.3491,-1.3491,-1.3491,-1.3491,-1.3491,-1.3451,-1.3371,-1.3172,-1.3059,-1.2973,-1.2729,-1.2524,-1.2374,-1.208,-1.2,-1.2,-1.2,-1.2203,-1.2479,-1.2378,-1.2344,-1.23,-1.224,-1.1907,-1.1631,-1.175,-1.1623,-1.1536,-1.1694,-1.1694,-1.1633,-1.1435,-1.1393,-1.1327,-1.1148,-1.1111,-1.1111,-1.1111,-1.1111,-1.1111,-1.1111,-1.1111,-1.1111,-1.1111,-1.1111,-1.1196,-1.1375,-1.1232,-1.1111,-1.1111,-1.1111,-1.1111,-1.1111,-1.1111,-1.1111,-1.1111,-1.1111,-1.1111,-1.1111,-1.1111,-1.1111,-1.1111,-1.1111,-1.1081,-1.0989,-1.1234,-1.1377,-1.1184,-1.1042,-1.0961,-1.0961,0.0,0.0,0.0,0.0,-1.1489,-1.1542,-1.1648,-1.1922,-1.2574,-1.28,0.0,0.0,0.0,-1.3845,-1.425,-1.4202,-1.4112,0.0,-1.4016,-1.3919,-1.3919,-1.3781,-1.3738,-1.3738,-1.3588,-1.3491,-1.3491,-1.3394,-1.3443,-1.369,-1.3588,-1.3491,-1.3491,-1.3394,-1.3298,-1.3298,-1.3201,-1.3201,-1.3201,-1.3201,-1.3201,-1.3201,-1.3201,-1.3201,-1.3201,-1.3201,-1.3201,-1.3184,-1.3039,-1.2942,-1.2908,-1.267,-1.2426,-1.2226,-1.1937,-1.186,-1.1838,-1.1727,-1.1866,-1.2118,-1.2203,-1.219,-1.2169,-1.2169,-1.1887,-1.1613,-1.1735,-1.1607,-1.1439,-1.1559,-1.1599,-1.1558,-1.1378,-1.1354,-1.1308,-1.1155,-1.1132,-1.1171,-1.1293,-1.1209,-1.1209,-1.1441,-1.1408,-1.137,-1.1447,-1.1486,-1.1546,-1.1657,-1.1531,-1.1486,-1.1486,-1.1333,-1.1266,-1.1266,-1.1178,-1.1111,-1.1111,-1.1111,-1.1111,-1.1111,-1.1111,-1.1111,-1.1111,-1.1111,-1.1111,-1.0437,-1.0869,-1.124,-1.1109,-1.0736,-1.0346,-1.0304,0.0,0.0,0.0,0.0,0.0,0.0,-1.1182,0.0,0.0,0.0,0.0,-1.3335,-1.3622,-1.3861,-1.4172,-1.3973,0.0,-1.3835,-1.3642,-1.3491,-1.3491,-1.3443,-1.3443,-1.3443,-1.3394,-1.3394,-1.3394,-1.3152,-1.3152,-1.3394,-1.3394,-1.3394,-1.3394,-1.3152,-1.305,-1.305,-1.2856,-1.2813,-1.2813,0.0,0.0,-1.2813,-1.2813,-1.2813,-1.2813,-1.2813,-1.2813,-1.2813,-1.2813,-1.2813,-1.2775,-1.2495,-1.228,-1.211,-1.1828,-1.1731,-1.1661,-1.1418,-1.1511,-1.1656,-1.1871,-1.1957,-1.2,-1.2,-1.1787,-1.1623,-1.1664,-1.1464,-1.127,-1.1311,-1.1311,-1.13,-1.126,-1.1249,-1.1237,-1.1203,-1.1192,-1.1278,-1.1519,-1.1358,-1.1358,-1.172,-1.164,-1.1599,-1.176,-1.18,-1.1818,-1.1854,-1.186,-1.1878,-1.1919,-1.1678,-1.1549,-1.1549,-1.1321,-1.1232,-1.1232,-1.1232,-1.1232,-1.1232,-1.1232,-1.1214,-1.1178,-1.1178,-1.1154,-1.0221,-1.0728,-1.0973,-1.03,-1.0367,-1.0569,-1.0346,0.0,0.0,0.0,0.0,0.0,0.0,-1.1435,-1.179,0.0,0.0,-1.3034,0.0,0.0,-1.3337,-1.3601,0.0,-1.3539,-1.3539,-1.3539,-1.3491,-1.3491,-1.3292,-1.3147,-1.3147,-1.3007,-1.291,-1.291,-1.2861,-1.2861,-1.291,-1.291,-1.291,-1.291,-1.2861,-1.2861,-1.2861,-1.2813,-1.2813,-1.2813,0.0,-1.2813,-1.2813,-1.2813,-1.2813,-1.2813,-1.2813,-1.2813,-1.2813,-1.2813,-1.2813,-1.2775,-1.2495,-1.2388,-1.2318,-1.2121,-1.1905,-1.1693,-1.1655,-1.1505,-1.1348,-1.1392,-1.1699,-1.2,-1.2,-1.1837,-1.1724,-1.1895,-1.1781,-1.1673,-1.1838,-1.1881,-1.1818,-1.1591,-1.1545,-1.1482,-1.1231,-1.1192,-1.1197,-1.1278,-1.1232,-1.1232,-1.1312,-1.1278,-1.1272,-1.1312,-1.1318,-1.1404,-1.161,-1.1633,-1.1725,-1.1954,-1.1893,-1.1826,-1.1826,-1.1784,-1.1799,-1.1799,-1.1799,-1.1799,-1.1799,-1.1799,-1.1645,-1.1429,-1.1429,-1.1303,-0.9811,-1.0358,-1.0816,-1.0412,-1.0833,-1.1341,-1.1176,0.0,0.0,0.0,0.0,0.0,0.0,0.0,-1.2015,-1.2756,0.0,-1.3107,-1.3081,-1.3218,-1.3354,0.0,0.0,-1.3292,-1.3292,-1.3201,-1.3104,-1.3104,-1.3007,-1.2953,-1.2953,-1.2861,-1.2813,-1.2813,-1.2813,-1.2813,-1.2813,-1.2813,-1.2813,-1.2813,-1.2813,-1.2813,-1.2813,-1.2813,-1.2813,-1.2813,0.0,-1.2813,-1.2813,-1.2813,-1.2813,-1.2813,-1.2813,-1.2813,-1.2813,-1.2813,-1.2813,-1.2797,-1.2641,-1.2603,-1.2565,-1.2323,-1.2172,-1.2059,-1.193,-1.1811,-1.1704,-1.1575,-1.1581,-1.1613,-1.1613,-1.157,-1.1527,-1.1613,-1.157,-1.1527,-1.1607,-1.1613,-1.1574,-1.1459,-1.1043,-1.0624,-1.0516,-1.0075,-0.9775,-0.9944,-0.9817,-1.0028,-1.0784,-1.0789,-1.0967,-1.1564,-1.1647,-1.1693,-1.1807,-1.1818,-1.1807,-1.1784,-1.1733,-1.1659,-1.1525,-1.1519,-1.1519,-1.1519,-1.1519,-1.1519,-1.1519,-1.1519,-1.1461,-1.1344,-1.1344,-1.1274,-0.9666,-1.0178,-1.0701,-1.0725,-1.1285,-1.182,-1.19,-1.1525,0.0,0.0,0.0,0.0,0.0,-1.183,0.0,-1.266,-1.2931,-1.3089,-1.3048,-1.3222,-1.3346,-1.3346,-1.3147,-1.305,-1.305,-1.291,-1.2813,-1.2813,-1.2813,-1.2813,-1.2813,-1.2813,-1.2813,-1.2813,-1.2813,-1.2813,-1.2813,-1.2813,-1.2813,-1.2813,-1.2813,-1.2813,-1.2813,-1.2813,-1.2813,-1.2813,-1.2813,-1.2813,-1.2813,-1.2813,-1.2813,-1.2813,-1.2813,-1.2813,-1.2813,-1.2813,-1.2813,-1.2813,-1.2813,-1.2662,-1.2387,-1.2209,-1.2067,-1.1994,-1.1858,-1.1764,-1.169,-1.1467,-1.1112,-1.0821,-1.1202,-1.1305,-1.1305,-1.1305,-1.1132,-1.0954,-1.0954,-1.0781,-1.0646,-1.0646,-1.0077,-0.955,-0.955,-0.8982,-0.8584,-0.8759,-0.8632,-0.8886,-0.9966,-0.9975,-1.0207,-1.1079,-1.1165,-1.1257,-1.1472,-1.1516,-1.1519,-1.1542,-1.1609,-1.1613,-1.1379,-1.1373,-1.1373,-1.1373,-1.1373,-1.1373,-1.1373,-1.1373,-1.1339,-1.1277,-1.1277,-1.1249,-1.0106,-1.0454,-1.0743,-1.0842,-1.1214,0.0,-1.184,-1.1694,0.0,-1.1784,0.0,0.0,0.0,-1.238,-1.2728,-1.2772,-1.2964,-1.3022,-1.2834,0.0,-1.2861,-1.2861,-1.2813,-1.2813,-1.2813,-1.2813,-1.2813,-1.2813,-1.2813,-1.2813,-1.2813,-1.2813,-1.2813,-1.2813,-1.2813,-1.2813,-1.2813,-1.2813,-1.2813,-1.2813,-1.2813,-1.2813,-1.2813,-1.2813,-1.2813,-1.2813,-1.2813,-1.2813,-1.2813,-1.2813,-1.2813,-1.2813,-1.2813,-1.2813,-1.2813,-1.2813,-1.2813,-1.2813,-1.2813,-1.2165,-1.1317,-1.1302,-1.112,-1.0915,-1.0896,-1.0758,-1.0611,-1.0597,-0.9835,-0.9413,-1.0932,-1.1305,-1.1305,-1.1305,-1.0646,-0.999,-0.999,-0.9331,-0.8719,-0.8719,-0.8632,-0.8588,-0.8588,-0.8544,-0.85,-0.8544,-0.85,-0.8544,-0.8627,-0.8632,-0.8671,-0.8759,-0.8759,-0.9113,-0.999,-1.0033,-1.0419,-1.1284,-1.1714,-1.196,-1.1943,-1.1943,-1.1943,-1.1943,-1.1943,-1.1943,-1.1943,-1.1943,-1.1818,-1.1573,-1.1573,-1.1454,-0.9449,-1.0038,-1.0584,-1.0645,-1.1103,0.0,0.0,-1.1905,-1.2121,-1.2331,-1.2237,0.0,0.0,0.0,-1.2406,-1.2518,-1.2757,-1.291,-1.2813,-1.2813,-1.2813,-1.2813,-1.2813,-1.2813,-1.2813,-1.2813,-1.2813,-1.2813,-1.2813,-1.2813,-1.2813,-1.2813,-1.2813,-1.2813,-1.2813,-1.2462,-1.1819,-1.1819,-1.1473,-1.0837,-1.217,-1.2813,-1.2813,-1.2813,-1.2813,-1.2813,-1.2813,-1.2813,-1.2813,-1.2813,-1.2414,-1.1717,-1.1082,-1.0792,-1.0792,-1.0792,-1.0792,-1.0792,-1.0792,-1.0542,-1.0194,-1.0194,-1.0147,-1.0038,-1.0038,-0.9991,-0.9914,-0.9742,-0.942,-0.922,-0.9666,-0.9827,-0.9827,-0.9827,-0.9458,-0.9144,-0.9144,-0.8794,-0.85,-0.85,-0.8017,-0.7625,-0.7625,-0.7139,-0.6745,-0.6745,-0.6745,-0.6966,-0.7533,-0.7625,-0.7841,-0.8456,-0.85,-0.8632,-0.8982,-0.9026,-0.92,-0.955,-1.0819,-1.1564,-1.1564,-1.1564,-1.1564,-1.1564,-1.1564,-1.1564,-1.1564,-1.1564,-1.1515,-1.1422,-1.1422,-1.1372,-0.9201,-0.9781,-1.0401,-1.0485,0.0,0.0,-1.1685,-1.1984,-1.2232,-1.2132,-1.1948,0.0,0.0,0.0,0.0,0.0,-1.192,-1.2311,-1.2311,-1.2311,-1.2311,-1.2311,-1.2019,-1.1775,-1.1775,-1.1775,-1.1775,-1.1775,-1.1775,-1.1775,-1.1775,-1.1775,-1.1775,-1.1775,-1.1775,-1.1429,-1.0681,-1.0685,-1.0342,-0.9608,-1.1082,-1.1775,-1.1775,-1.1775,-1.1775,-1.1775,-1.1775,-1.1775,-1.1775,-1.1775,-1.1375,-1.0632,-0.9899,-0.9608,-0.9608,-0.9608,-0.9608,-0.9608,-0.9608,-0.9361,-0.911,-0.911,-0.911,-0.911,-0.911,-0.911,-0.9038,-0.8867,-0.859,-0.8274,-0.8122,-0.8494,-0.8881,-0.8881,-0.8606,-0.8337,-0.8337,-0.8023,-0.7725,-0.7725,-0.7233,-0.6786,-0.6786,-0.6214,-0.5742,-0.5742,-0.5712,-0.5952,-0.6567,-0.6656,-0.6922,-0.7533,-0.7621,-0.7753,-0.8017,-0.8061,-0.8193,-0.85,-0.9724,-1.0429,-1.0429,-1.0429,-1.0429,-1.0429,-1.0694,-1.0868,-1.0868,-1.1176,-1.1305,-1.1305,-1.1305,-1.1305,-0.9633,-0.9888,-1.0163,0.0,0.0,0.0,-1.1635,-1.1832,-1.1783,-1.0976,0.0,-1.0149,-0.9118,0.0,0.0,-0.9347,-1.0303,-1.117,-1.117,-1.117,-1.117,-1.117,-1.0243,-0.9608,-0.9608,-0.9608,-0.9608,-0.9608,-0.9608,-0.9608,-0.9608,-0.9608,-0.9608,-0.9608,-0.9608,-0.9608,-0.9608,-0.9608,-0.9558,-0.9558,-0.9558,-0.9558,-0.9608,-0.9608,-0.9608,-0.9608,-0.9608,-0.9608,-0.9608,-0.9608,-0.9608,-0.9608,-0.9558,-0.9558,-0.9558,-0.9558,-0.9558,-0.9558,-0.9558,-0.8863,-0.7971,-0.7971,-0.7971,-0.7971,-0.7971,-0.7971,-0.7971,-0.7971,-0.7229,-0.6387,-0.6387,-0.7656,-0.8885,-0.8885,-0.8142,-0.749,-0.749,-0.6741,-0.6086,-0.6086,-0.6086,-0.6086,-0.6086,-0.5986,-0.5904,-0.5904,-0.5809,-0.5691,-0.5691,-0.5691,-0.5691,-0.5691,-0.5691,-0.6088,-0.701,-0.7098,-0.7492,-0.8412,-0.8456,-0.85,-0.85,-0.85,-0.85,-0.85,-0.9419,-0.9903,-0.9903,-1.0824,-1.1267,-1.1267,-1.1262,-1.1305,-0.7663,-0.8476,0.0,-0.9487,0.0,0.0,0.0,-1.1445,0.0,0.0,-1.0288,-0.9488,-0.9155,0.0,0.0,-0.922,-0.9676,-1.0047,-1.0047,-1.0047,-1.0047,-1.0047,-0.9801,-0.9608,-0.9608,-0.9608,-0.9608,-0.9608,-0.9608,-0.9608,-0.9608,-0.9608,-0.9608,-0.9608,-0.9608,-0.9262,-0.8467,-0.8467,-0.8071,-0.7329,-0.7329,-0.812,-0.9608,-0.9608,-0.9608,-0.9608,-0.9608,-0.9608,-0.9558,-0.8764,-0.8467,-0.8418,-0.7627,-0.7329,-0.7329,-0.7329,-0.7329,-0.7329,-0.7329,-0.7129,-0.6883,-0.6883,-0.6883,-0.6883,-0.6883,-0.6883,-0.6883,-0.6883,-0.6634,-0.6387,-0.6387,-0.6776,-0.7159,-0.7159,-0.6897,-0.6645,-0.6645,-0.6384,-0.6086,-0.6086,-0.6086,-0.6086,-0.6086,-0.6056,-0.6032,-0.6032,-0.6002,-0.598,-0.598,-0.598,-0.598,-0.598,-0.598,-0.6037,-0.6218,-0.6258,-0.6355,-0.6529,-0.6523,-0.7139,-0.8456,-0.85,-0.85,-0.85,-0.8763,-0.8894,-0.8938,-0.92,-0.9331,-0.9331,-0.999,-1.0342,-0.7069,-0.7749,0.0,-0.8959,-0.9402,-0.9824,-0.9888,0.0,0.0,0.0,0.0,-0.8486,-0.816,-0.8367,0.0,-0.8164,-0.8599,-0.8962,-0.8962,-0.8962,-0.8962,-0.8962,-0.8566,-0.8319,-0.8319,-0.8319,-0.8319,-0.8319,-0.8319,-0.8319,-0.8319,-0.8319,-0.8319,-0.8319,-0.8319,-0.8021,-0.7378,-0.7378,-0.703,-0.6387,-0.6387,-0.708,-0.8319,-0.8319,-0.8319,-0.8319,-0.8319,-0.8319,-0.8269,-0.7627,-0.7378,-0.7279,-0.6634,-0.6387,-0.6387,-0.6387,-0.6387,-0.6387,-0.6387,-0.6387,-0.6387,-0.6387,-0.6387,-0.6387,-0.6387,-0.6387,-0.6387,-0.6387,-0.6387,-0.6387,-0.6387,-0.6387,-0.6387,-0.6387,-0.6385,-0.6336,-0.6336,-0.6276,-0.6225,-0.6225,-0.6225,-0.6225,-0.6225,-0.6189,-0.6159,-0.6159,-0.6116,-0.6086,-0.6086,-0.6086,-0.6086,-0.6086,-0.6086,-0.6056,-0.5983,-0.5975,-0.5947,-0.5877,-0.5874,-0.6369,-0.7493,-0.7423,-0.7404,-0.7404,-0.7753,-0.7929,-0.7929,-0.8324,-0.85,-0.85,-0.9069,-0.9331,-0.7235,0.0,0.0,-0.854,-0.864,0.0,-0.915,-0.838,-0.7654,-0.7944,0.0,-0.7332,-0.6564,-0.7036,-0.7336,-0.6517,-0.7229,-0.7875,-0.7875,-0.7875,-0.7875,-0.7875,-0.6983,-0.6387,-0.6387,-0.6387,-0.6387,-0.6387,-0.6387,-0.6387,-0.6387,-0.6387,-0.6387,-0.6387,-0.6387,-0.6387,-0.6387,-0.6387,-0.6387,-0.6387,-0.6387,-0.6387,-0.6387,-0.6387,-0.6387,-0.6387,-0.6387,-0.6337,-0.6337,-0.6337,-0.6337,-0.6337,-0.6337,-0.6337,-0.6337,-0.6337,-0.6337,-0.6337,-0.6337,-0.6337,-0.6337,-0.6337,-0.6337,-0.6337,-0.6337,-0.6337,-0.6337,-0.6337,-0.6337,-0.6387,-0.6387,-0.6387,-0.6387,-0.6387,-0.6387,-0.6387,-0.6387,-0.6387,-0.6387,-0.6387,-0.6387,-0.6387,-0.6387,-0.635,-0.6333,-0.6333,-0.6189,-0.6119,-0.6119,-0.6119,-0.6119,-0.6119,-0.6119,-0.6113,-0.6102,-0.6102,-0.6097,-0.6086,-0.6086,-0.6086,-0.6086,-0.588,-0.5721,-0.5721,-0.656,-0.7005,-0.7002,-0.7871,-0.8256,-0.8256,-0.8332,-0.8368,-0.5535,-0.609,0.0,0.0,-0.7491,-0.7453,-0.6969,-0.6744,-0.6884,-0.7796,-0.7307,-0.6603,-0.6431,-0.6564,-0.6606,-0.6431,-0.6584,-0.6734,-0.6734,-0.6734,-0.6734,-0.6734,-0.6534,-0.6387,-0.6387,-0.6387,-0.6387,-0.6387,-0.6387,-0.6387,-0.6387,-0.6387,-0.6387,-0.6387,-0.6387,-0.6387,-0.6387,-0.6387,-0.6387,-0.6387,-0.6387,-0.6287,-0.6092,-0.6287,-0.6287,-0.6092,-0.6092,-0.5989,-0.5787,-0.5787,-0.5787,-0.5787,-0.5787,-0.5787,-0.5787,-0.5787,-0.5787,-0.5787,-0.5787,-0.5787,-0.5787,-0.5787,-0.5787,-0.5787,-0.5787,-0.5787,-0.5787,-0.5787,-0.5939,-0.6092,-0.6092,-0.6239,-0.6387,-0.6387,-0.6387,-0.6387,-0.6387,-0.6387,-0.6387,-0.6387,-0.6387,-0.6387,-0.6387,-0.6368,-0.6399,-0.6399,-0.6377,-0.6311,-0.6311,-0.6311,-0.6311,-0.6311,-0.6311,-0.6325,-0.6284,-0.6279,-0.6189,-0.6092,-0.6086,-0.6086,-0.6086,-0.6037,-0.601,-0.601,-0.6194,-0.6333,-0.6333,-0.6414,-0.6451,-0.6494,-0.7101,-0.7404,-0.5037,0.0,0.0,-0.6365,0.0,-0.6526,-0.6197,-0.6135,-0.639,-0.6979,-0.67,-0.6387,-0.6387,-0.6387,-0.6387,-0.6387,-0.6387,-0.6387,-0.6387,-0.6387,-0.6368,-0.6363,-0.6358,-0.6333,-0.6274,-0.6268,-0.6268,-0.6268,-0.6323,-0.6358,-0.6358,-0.6407,-0.6387,-0.6387,-0.6387,-0.6387,-0.6387,-0.6287,-0.6189,-0.6189,-0.6087,-0.5937,-0.5789,-0.5937,-0.5937,-0.5789,-0.5789,-0.5737,-0.5586,-0.5586,-0.5586,-0.5586,-0.5586,-0.5586,-0.5586,-0.5586,-0.5586,-0.5586,-0.5586,-0.5586,-0.5586,-0.5586,-0.5586,-0.5586,-0.5586,-0.5586,-0.5586,-0.5586,-0.5687,-0.5789,-0.5789,-0.5937,-0.6037,-0.6037,-0.6234,-0.6387,-0.6387,-0.6387,-0.6387,-0.6387,-0.6387,-0.6387,-0.6387,-0.6387,-0.6387,-0.6387,-0.6387,-0.6387,-0.6387,-0.6387,-0.6387,-0.6387,-0.6387,-0.6363,-0.6352,-0.6347,-0.6323,-0.6257,-0.6255,-0.6255,-0.6255,-0.6255,-0.62,-0.6089,-0.6086,-0.6086,-0.6086,-0.6021,-0.5991,-0.5988,-0.6366,-0.6529,-0.5018,0.0,-0.5325,-0.5763,-0.5874,0.0,-0.6002,-0.604,-0.6053,-0.6053,-0.6244,-0.6352,-0.633,-0.6344,-0.6399,-0.633,-0.6327,-0.6327,-0.6327,-0.6327,-0.6342,-0.6295,-0.6287,-0.6246,-0.6094,-0.6086,-0.6086,-0.6086,-0.6248,-0.6317,-0.6317,-0.6374,-0.6387,-0.6387,-0.6387,-0.6387,-0.6337,-0.6089,-0.5992,-0.5942,-0.5636,-0.5536,-0.5536,-0.5486,-0.5486,-0.5536,-0.5536,-0.5486,-0.5486,-0.5486,-0.5486,-0.5486,-0.5486,-0.5486,-0.5486,-0.5486,-0.5486,-0.5486,-0.5486,-0.5486,-0.5486,-0.5486,-0.5486,-0.5486,-0.5486,-0.5486,-0.5486,-0.5486,-0.5486,-0.5536,-0.5536,-0.5586,-0.5586,-0.5586,-0.5937,-0.6287,-0.6287,-0.6287,-0.6287,-0.6287,-0.6287,-0.6287,-0.6287,-0.6287,-0.6287,-0.6337,-0.6337,-0.6337,-0.6337,-0.6387,-0.6387,-0.6337,-0.6387,-0.6387,-0.6387,-0.6387,-0.6387,-0.6387,-0.6387,-0.6387,-0.6387,-0.6387,-0.6344,-0.6151,-0.6146,-0.6146,-0.6146,-0.6127,-0.6116,-0.6113,-0.5991,-0.5934,0.0,0.0,-0.5412,0.0,-0.5712,-0.5715,0.0,0.0,-0.5926,0.0,-0.6121,-0.6257,-0.6151,-0.6219,-0.6255,-0.6151,-0.6132,-0.6132,-0.6132,-0.6132,-0.6127,-0.6113,-0.6111,-0.6105,-0.6086,-0.6086,-0.6086,-0.6086,-0.6248,-0.6317,-0.6317,-0.6374,-0.6387,-0.6387,-0.6387,-0.6287,-0.6042,-0.6042,-0.5889,-0.5636,-0.5388,-0.524,-0.524,-0.5037,-0.5037,-0.524,-0.524,-0.5138,-0.4885,-0.4885,-0.4885,-0.4885,-0.4885,-0.4885,-0.4885,-0.4885,-0.4885,-0.4885,-0.4885,-0.4885,-0.4885,-0.4885,-0.4885,-0.4885,-0.4885,-0.4885,-0.4885,-0.4885,-0.5087,-0.524,-0.524,-0.5436,-0.5586,-0.5586,-0.5634,-0.5687,-0.5687,-0.5687,-0.5687,-0.5687,-0.5687,-0.5687,-0.5687,-0.5687,-0.5787,-0.6042,-0.6042,-0.6042,-0.6042,-0.6239,-0.6287,-0.6092,-0.6237,-0.6387,-0.6387,-0.6387,-0.6387,-0.6387,-0.6387,-0.6387,-0.6387,-0.6387,-0.6371,-0.6341,-0.6341,-0.6341,-0.6338,-0.6293,-0.6292,-0.6289,-0.6119,-0.6062,-0.4768,-0.5147,-0.5428,0.0,-0.5688,-0.5688,-0.5688,0.0,-0.5809,-0.5809,-0.5945,-0.607,-0.6083,-0.613,-0.6149,-0.6094,-0.6086,-0.6086,-0.6086,-0.6086,-0.6062,-0.5991,-0.5983,-0.5958,-0.5893,-0.5888,-0.5888,-0.5888,-0.5996,-0.6017,-0.5926,-0.6047,-0.6044,-0.5898,-0.5954,-0.5887,-0.5789,-0.5641,-0.5438,-0.5135,-0.5037,-0.4987,-0.4987,-0.4834,-0.4885,-0.4987,-0.4987,-0.4887,-0.4784,-0.4784,-0.4784,-0.4784,-0.4784,-0.4784,-0.4784,-0.4784,-0.4784,-0.4784,-0.4784,-0.4784,-0.4784,-0.4784,-0.4784,-0.4784,-0.4784,-0.4784,-0.4784,-0.4784,-0.4885,-0.4987,-0.4987,-0.5085,-0.5135,-0.5135,-0.5135,-0.5135,-0.5135,-0.5386,-0.5586,-0.5586,-0.5586,-0.5586,-0.5586,-0.5586,-0.5636,-0.5737,-0.5789,-0.5789,-0.5789,-0.5887,-0.5887,-0.5789,-0.5887,-0.5937,-0.5937,-0.5937,-0.5937,-0.5937,-0.5937,-0.5937,-0.5937,-0.5937,-0.5937,-0.5937,-0.6237,-0.6387,-0.6387,-0.6385,-0.6363,-0.6361,-0.6244,-0.6189,0.0,0.0,-0.5177,-0.5399,-0.5489,-0.5518,0.0,0.0,-0.5508,0.0,-0.5618,-0.5702,-0.5789,-0.5925,-0.6029,-0.6002,-0.5947,-0.5901,-0.5901,-0.5901,-0.5869,-0.5684,-0.5767,-0.578,-0.5652,-0.5644,-0.5644,-0.5644,-0.5703,-0.5675,-0.5496,-0.5678,-0.5688,-0.5497,-0.5546,-0.5549,-0.5497,-0.5225,-0.4987,-0.4784,-0.4784,-0.4784,-0.4784,-0.4784,-0.4784,-0.4784,-0.4784,-0.4784,-0.4784,-0.4784,-0.4784,-0.4784,-0.4784,-0.4784,-0.4784,-0.4784,-0.4784,-0.4784,-0.4784,-0.4784,-0.4784,-0.4784,-0.4784,-0.4784,-0.4784,-0.4784,-0.4784,-0.4784,-0.4784,-0.4784,-0.4784,-0.4784,-0.4784,-0.4784,-0.4784,-0.4784,-0.4784,-0.5135,-0.5386,-0.5386,-0.5386,-0.5386,-0.5386,-0.5386,-0.5436,-0.5486,-0.5486,-0.5486,-0.5486,-0.5536,-0.5586,-0.5486,-0.5536,-0.5586,-0.5586,-0.5586,-0.5586,-0.5586,-0.5586,-0.5586,-0.5586,-0.5586,-0.5586,-0.5586,-0.5984,-0.6187,-0.6187,-0.6187,-0.6187,-0.6184,-0.6153,-0.6116,0.0,-0.4249,0.0,-0.4683,-0.4839,0.0,0.0,0.0,-0.5055,-0.5055,-0.5057,-0.5065,-0.5069,-0.5516,-0.5877,-0.5723,-0.557,-0.5434,-0.5434,-0.5434,-0.534,-0.5065,-0.5424,-0.5649,-0.5416,-0.5416,-0.5416,-0.5416,-0.5292,-0.5216,-0.5216,-0.5371,-0.5431,-0.5386,-0.549,-0.5396,-0.515,-0.4943,-0.4834,-0.4784,-0.4784,-0.4784,-0.4784,-0.4784,-0.4784,-0.4784,-0.4784,-0.4784,-0.4784,-0.4784,-0.4784,-0.4784,-0.4784,-0.4784,-0.4784,-0.4784,-0.4784,-0.4784,-0.4784,-0.4784,-0.4784,-0.4784,-0.4784,-0.4784,-0.4784,-0.4784,-0.4784,-0.4784,-0.4784,-0.4784,-0.4784,-0.4784,-0.4784,-0.4784,-0.4784,-0.4784,-0.4784,-0.4834,-0.4834,-0.4834,-0.4834,-0.4834,-0.4834,-0.4834,-0.4935,-0.519,-0.524,-0.524,-0.524,-0.5438,-0.5486,-0.524,-0.5438,-0.5586,-0.5586,-0.5586,-0.5586,-0.5586,-0.5586,-0.5586,-0.5586,-0.5586,-0.5586,-0.5586,-0.5636,-0.5634,-0.5634,-0.5634,-0.5634,-0.5634,-0.5629,-0.5627,0.0,0.0,0.0,-0.4563,-0.4724,-0.4787,-0.4891,-0.4965,-0.501,-0.501,-0.501,-0.501,-0.501,-0.5176,-0.5325,-0.5243,-0.5191,-0.5144,-0.5144,-0.5144,-0.5099,-0.501,-0.5146,-0.5235,-0.5146,-0.5144,-0.5144,-0.5144,-0.5091,-0.5023,-0.4892,-0.4945,-0.4951,-0.4762,-0.4919,-0.4978,-0.4887,-0.4818,-0.4784,-0.4784,-0.4784,-0.4784,-0.4784,-0.4784,-0.4784,-0.4784,-0.4784,-0.4784,-0.4784,-0.4784,-0.4784,-0.4784,-0.4784,-0.4784,-0.4784,-0.4784,-0.4784,-0.4784,-0.4784,-0.4784,-0.4784,-0.4784,-0.4784,-0.4784,-0.4784,-0.4784,-0.4784,-0.4784,-0.4784,-0.4784,-0.4784,-0.4784,-0.4784,-0.4784,-0.4784,-0.4784,-0.4784,-0.4784,-0.4784,-0.4784,-0.4784,-0.4784,-0.4784,-0.4784,-0.4834,-0.4937,-0.4937,-0.4937,-0.4937,-0.5035,-0.5035,-0.4937,-0.5035,-0.5085,-0.5085,-0.5085,-0.5085,-0.5085,-0.5085,-0.5085,-0.5085,-0.5085,-0.5085,-0.5085,-0.5085,-0.5233,-0.5586,-0.5586,-0.5586,-0.5586,-0.5586,-0.5586,-0.3714,0.0,0.0,0.0,0.0,-0.4403,-0.464,-0.469,-0.4664,-0.473,-0.4788,-0.4788,-0.4788,-0.4788,-0.4832,-0.4964,-0.4921,-0.4877,-0.4877,-0.4877,-0.4877,-0.4788,-0.4921,-0.4966,-0.4924,-0.4877,-0.4877,-0.4877,-0.4832,0.0,-0.4569,-0.4585,-0.4603,-0.4479,-0.46,-0.4718,-0.4782,-0.4784,-0.4784,-0.4784,-0.4784,-0.4784,-0.4784,-0.4784,-0.4784,-0.4784,-0.4784,-0.4784,-0.4784,-0.4784,-0.4784,-0.4784,-0.4784,-0.4784,-0.4784,-0.4784,-0.4784,-0.4784,-0.4784,-0.4784,-0.4784,-0.4784,-0.4784,-0.4784,-0.4784,-0.4784,-0.4784,-0.4784,-0.4784,-0.4784,-0.4784,-0.4784,-0.4784,-0.4784,-0.4784,-0.4784,-0.4784,-0.4784,-0.4784,-0.4784,-0.4784,-0.4784,-0.4784,-0.4784,-0.4784,-0.4784,-0.4784,-0.4784,-0.4784,-0.4784,-0.4784,-0.4784,-0.4784,-0.4784,-0.4784,-0.4784,-0.4784,-0.4784,-0.4784,-0.4784,-0.4784,-0.4784,-0.4784,-0.4784,-0.4784,-0.4985,-0.5334,-0.5334,-0.5334,-0.5334,-0.5334,-0.5334,0.0,0.0,0.0,0.0,0.0,0.0,-0.4138,0.0,-0.4037,-0.4212,-0.4247,-0.4247,-0.4297,-0.43,-0.4431,-0.4921,-0.4837,-0.4705,-0.4705,-0.4705,-0.4569,-0.4344,-0.4699,-0.4924,-0.4703,-0.4705,-0.4705,-0.4705,-0.4433,-0.43,-0.43,-0.43,-0.4383,-0.4614,-0.4621,-0.4657,-0.4782,-0.4784,-0.4784,-0.4784,-0.4784,-0.4784,-0.4784,-0.4784,-0.4784,-0.4784,-0.4784,-0.4734,-0.4734,-0.4784,-0.4784,-0.4784,-0.4784,-0.4784,-0.4784,-0.4784,-0.4784,-0.4784,-0.4784,-0.4784,-0.4784,-0.4784,-0.4784,-0.4784,-0.4784,-0.4784,-0.4784,-0.4784,-0.4784,-0.4784,-0.4784,-0.4784,-0.4784,-0.4784,-0.4784,-0.4784,-0.4784,-0.4784,-0.4784,-0.4784,-0.4784,-0.4784,-0.4784,-0.4784,-0.4784,-0.4784,-0.4784,-0.4784,-0.4784,-0.4784,-0.4784,-0.4784,-0.4784,-0.4784,-0.4784,-0.4784,-0.4784,-0.4784,-0.4784,-0.4784,-0.4784,-0.4784,-0.4784,-0.4784,-0.4784,-0.4784,-0.4784,-0.4784,-0.4784,-0.4784,-0.4784,-0.4784,-0.2403,0.0,0.0,0.0,0.0,0.0,0.0,0.0,-0.3096,-0.3243,-0.3328,-0.354,-0.4186,-0.43,-0.4342,-0.4478,-0.4433,-0.4389,-0.4389,-0.4389,-0.4389,-0.43,-0.4431,-0.4478,-0.4433,-0.4389,-0.4389,0.0,-0.4344,-0.43,-0.43,-0.43,-0.4383,-0.4614,-0.4621,-0.4657,-0.4782,-0.4784,-0.4784,-0.4784,-0.4029,-0.4029,-0.4784,-0.3979,-0.4079,-0.4734,-0.3979,-0.3626,-0.3726,-0.4481,-0.4784,-0.4784,-0.4784,-0.4784,-0.4784,-0.4784,-0.4784,-0.4784,-0.4784,-0.4784,-0.4784,-0.4784,-0.4784,-0.4784,-0.4784,-0.4784,-0.4784,-0.4784,-0.4784,-0.4784,-0.4784,-0.4784,-0.4784,-0.4784,-0.4784,-0.4784,-0.4784,-0.4784,-0.4784,-0.4784,-0.4784,-0.4784,-0.4784,-0.4784,-0.4784,-0.4784,-0.4784,-0.4784,-0.4784,-0.4784,-0.4784,-0.4784,-0.4784,-0.4784,-0.4784,-0.4784,-0.4784,-0.4784,-0.4784,-0.4784,-0.4784,-0.4784,-0.4784,-0.4784,-0.4784,-0.4784,-0.4784,-0.4784,-0.4784,-0.4784,-0.4784,-0.4784,0.0,0.0,0.0,0.0,0.0,0.0,-0.2143,-0.2091,-0.2168,0.0,-0.233,-0.2539,-0.3039,-0.3444,-0.3542,-0.3175,-0.3402,-0.3769,-0.4249,-0.43,-0.43,-0.43,-0.43,-0.43,-0.43,-0.43,-0.43,-0.43,-0.43,-0.43,-0.43,-0.3941,-0.3788,-0.3945,-0.3521,-0.3346,-0.3473,-0.3475,-0.3475,-0.3475,-0.2821,-0.2871,-0.3425,-0.2821,-0.2871,-0.3425,-0.2821,-0.2519,-0.2569,-0.3224,-0.3726,-0.418,-0.4634,-0.4784,-0.4784,-0.4784,-0.4784,-0.4784,-0.4784,-0.4784,-0.4784,-0.4784,-0.4784,-0.4784,-0.4784,-0.4784,-0.4784,-0.4784,-0.4784,-0.4784,-0.4784,-0.4784,-0.4784,-0.4784,-0.4784,-0.4784,-0.4784,-0.4784,-0.4784,-0.4784,-0.4784,-0.4784,-0.4784,-0.4784,-0.4784,-0.4784,-0.4784,-0.4784,-0.4784,-0.4784,-0.4784,-0.4784,-0.4784,-0.4784,-0.4784,-0.4784,-0.4784,-0.4784,-0.4784,-0.4784,-0.4784,-0.4784,-0.4784,-0.4784,-0.4784,-0.4784,-0.4784,-0.4784,-0.4784,-0.4784,-0.4784,-0.4784,0.0,0.0,0.0,0.0,0.0,0.0,-0.1292,-0.122,-0.1189,0.0,-0.1369,-0.1409,-0.15,-0.213,-0.2397,-0.1624,-0.2114,-0.2883,-0.3838,-0.3983,-0.403,-0.4119,-0.403,-0.403,-0.4119,-0.403,-0.3983,-0.3983,-0.3983,-0.3989,-0.3998,-0.319,-0.2748,-0.281,-0.1956,-0.1555,-0.1613,-0.1613,-0.1613,-0.1613,-0.1462,-0.1462,-0.1613,-0.1462,-0.1462,-0.1613,-0.1462,-0.1412,-0.1412,-0.1412,-0.2116,-0.3274,-0.423,-0.4684,-0.4784,-0.4784,-0.4784,-0.4784,-0.4784,-0.4784,-0.4784,-0.4784,-0.4784,-0.4784,-0.4784,-0.4784,-0.4784,-0.4784,-0.4784,-0.4784,-0.4784,-0.4784,-0.4784,-0.4784,-0.4784,-0.4784,-0.4784,-0.4784,-0.4784,-0.4784,-0.4784,-0.4784,-0.4784,-0.4784,-0.4784,-0.4784,-0.4784,-0.4784,-0.4784,-0.4784,-0.4784,-0.4784,-0.4784,-0.4784,-0.4784,-0.4784,-0.4784,-0.4784,-0.4784,-0.4784,-0.4784,-0.4784,-0.4784,-0.4784,-0.4784,-0.4784,-0.4784,-0.4784,-0.4784,-0.4784,-0.4784,-0.4784,0.0,0.0,0.0,0.0,0.0,0.0,-0.0404,-0.0219,-0.0222,0.0,-0.0495,-0.076,-0.146,-0.1735,-0.179,-0.1603,-0.1675,-0.179,-0.1962,-0.1969,-0.2282,-0.309,-0.2462,-0.2282,-0.309,-0.2462,-0.1969,-0.1969,-0.1969,-0.1983,-0.1971,-0.1789,-0.173,-0.18,-0.1608,-0.1527,-0.1613,-0.1613,-0.1613,-0.1613,-0.0706,-0.0756,-0.1563,-0.0706,-0.0806,-0.1563,-0.0706,-0.0302,-0.0302,-0.0302,-0.1461,-0.3224,-0.3425,-0.4029,-0.4784,-0.4784,-0.4784,-0.4784,-0.4784,-0.4784,-0.4784,-0.4784,-0.4784,-0.4784,-0.4784,-0.4784,-0.4784,-0.4784,-0.4784,-0.4784,-0.4784,-0.4784,-0.4784,-0.4784,-0.4784,-0.4784,-0.4784,-0.4784,-0.4784,-0.4784,-0.4784,-0.4784,-0.4784,-0.4784,-0.4784,-0.4784,-0.4784,-0.4784,-0.4784,-0.4784,-0.4784,-0.4784,-0.4784,-0.4784,-0.4784,-0.4784,-0.4784,-0.4784,-0.4784,-0.4784,-0.4784,-0.4784,-0.4784,-0.4784,-0.4784,-0.4784,-0.4784,-0.4784,-0.4784,-0.4784,-0.4784,-0.4784,0.0,0.0,0.0,0.0643,0.0,0.0,0.0,0.0625,0.0583,0.0543,0.0491,0.0333,-0.0078,-0.051,-0.0667,-0.0235,-0.0489,-0.059,-0.0128,-0.0834,-0.1566,-0.2104,-0.17,-0.1611,-0.2104,-0.17,-0.1387,-0.1387,-0.1401,-0.1415,-0.1384,-0.0933,-0.0666,-0.0685,-0.0196,0.0049,0.0,0.0,0.0,0.0,0.0555,0.0504,0.0,0.0555,0.0504,0.005,0.0555,0.0807,0.0807,0.0807,-0.0151,-0.1662,-0.2217,-0.272,-0.3274,-0.3827,-0.3979,-0.4079,-0.4634,-0.4784,-0.4784,-0.4784,-0.4784,-0.4784,-0.4784,-0.4784,-0.4784,-0.4784,-0.4784,-0.4784,-0.4784,-0.4784,-0.4784,-0.4784,-0.4381,-0.3979,-0.3979,-0.3575,-0.3224,-0.3224,-0.3224,-0.3525,-0.4634,-0.4784,-0.4784,-0.4784,-0.4784,-0.4582,-0.4079,-0.4481,-0.4582,-0.4079,-0.4481,-0.4784,-0.4784,-0.4784,-0.4784,-0.4784,-0.428,-0.423,-0.4784,-0.428,-0.423,-0.4784,-0.4784,-0.4784,-0.4784,-0.4784,-0.4784,-0.4784,-0.4784,-0.4784,0.0,0.0,0.0,0.0,0.0,0.1211,0.0,0.0,0.0,0.1242,0.1205,0.0,0.0,0.0,0.0,0.0,0.0,0.0,0.0,0.0042,0.0,-0.1143,-0.0971,-0.093,-0.1111,-0.0975,-0.0888,-0.085,-0.0858,-0.0868,-0.0835,-0.0094,0.0385,0.0394,0.1184,0.1592,0.1616,0.1617,0.1617,0.1617,0.1617,0.1617,0.1617,0.1617,0.1617,0.1617,0.1617,0.1617,0.1617,0.1617,0.1111,0.0202,-0.0857,-0.1412,-0.1714,-0.2569,-0.2871,-0.3022,-0.3879,-0.418,-0.418,-0.418,-0.418,-0.418,-0.418,-0.4331,-0.4481,-0.4481,-0.4481,-0.4481,-0.4481,-0.4331,-0.418,-0.418,-0.3525,-0.2871,-0.2871,-0.2217,-0.1613,-0.1613,-0.1613,-0.2167,-0.3879,-0.418,-0.418,-0.418,-0.418,-0.3879,-0.3022,-0.3626,-0.3828,-0.2972,-0.3676,-0.418,-0.418,-0.418,-0.418,-0.418,-0.3374,-0.3274,-0.413,-0.3374,-0.3324,-0.418,-0.418,-0.418,-0.418,-0.418,-0.4381,-0.4784,-0.4784,-0.4784,0.0,0.0,0.0,0.0,0.1255,0.0,0.0,0.0,0.1183,0.1115,0.0,0.0,0.0,0.0,0.0,0.0,0.0,0.0,0.1189,0.1102,0.0699,-0.0164,0.0502,0.0683,-0.0087,0.0557,0.1034,0.1073,0.1042,0.1056,0.1183,0.1285,0.1358,0.1408,0.1561,0.1613,0.1617,0.1617,0.1617,0.1617,0.1617,0.1617,0.1617,0.1617,0.1617,0.1617,0.1617,0.1617,0.1617,0.1617,0.1516,0.1313,0.0252,-0.0756,-0.1613,-0.1714,-0.1765,-0.1815,-0.1915,-0.1966,-0.1966,-0.1966,-0.1966,-0.1966,-0.1966,-0.262,-0.3374,-0.3374,-0.3374,-0.3374,-0.3374,-0.267,-0.1966,-0.1966,-0.1865,-0.1765,-0.1765,-0.1664,-0.1613,-0.1613,-0.1613,-0.1664,-0.1915,-0.1966,-0.1966,-0.1966,-0.1966,-0.1915,-0.1815,-0.1865,-0.1915,-0.1815,-0.1915,-0.1966,-0.1966,-0.1966,-0.1966,-0.1966,-0.1865,-0.1815,-0.1966,-0.1865,-0.1815,-0.1966,-0.1966,-0.1966,-0.1966,-0.1966,-0.2922,-0.4784,-0.4784,-0.4784,0.0,0.0,0.0,0.0,0.0,0.0,0.1172,0.0,0.1137,0.0,0.0,0.0,0.0,0.0,0.0,0.0,0.1196,0.0,0.0,0.0,0.112,0.0,0.0,0.0,0.0809,0.1088,0.1298,0.1339,0.1334,0.141,0.1495,0.1533,0.1572,0.1615,0.1617,0.1617,0.1617,0.1617,0.1617,0.1617,0.1617,0.1617,0.1617,0.1617,0.1617,0.1617,0.1617,0.1617,0.1617,0.1617,0.1617,0.1566,0.1111,0.0656,0.0202,-0.0454,-0.0655,-0.0756,-0.1361,-0.1613,-0.1613,-0.1613,-0.1613,-0.1613,-0.1613,-0.1915,-0.2267,-0.2267,-0.2267,-0.2267,-0.2267,-0.1915,-0.1613,-0.1613,-0.1109,-0.0655,-0.0655,-0.0202,0.0252,0.0252,0.0252,0.0252,0.0252,-0.0756,-0.1613,-0.1613,-0.1613,-0.1361,-0.0756,-0.121,-0.1361,-0.0756,-0.121,-0.1613,-0.1613,-0.1613,-0.1613,-0.1613,-0.1613,-0.131,-0.0706,-0.126,-0.1613,-0.1613,-0.1613,-0.1613,-0.1613,-0.1613,-0.2066,-0.2922,-0.2922,-0.2922,0.129,0.0,0.0,0.0,0.0,0.0,0.0,0.0,0.0,0.0,0.0,0.0,0.0,0.0,0.0,0.0,0.0,0.1189,0.0,0.1135,0.0,0.0,0.0,0.0,0.0,0.1301,0.1297,0.1302,0.1343,0.1378,0.1463,0.1518,0.1564,0.1603,0.1613,0.1617,0.1617,0.1617,0.1617,0.1617,0.1617,0.1617,0.1617,0.1617,0.1617,0.1617,0.1617,0.1617,0.1617,0.1617,0.1617,0.1617,0.1617,0.1617,0.1515,0.0706,0.0454,0.0303,-0.0454,-0.0706,-0.0706,-0.0706,-0.0706,-0.0706,-0.0706,-0.0907,-0.1159,-0.1159,-0.1159,-0.1159,-0.1159,-0.0958,-0.0706,-0.0706,-0.0151,0.0454,0.0454,0.106,0.1617,0.1617,0.1617,0.1617,0.1617,0.0303,-0.0706,-0.0706,-0.0706,-0.0454,0.0353,-0.0252,-0.0403,0.0353,-0.0252,-0.0706,-0.0706,-0.0706,-0.0706,-0.0706,-0.0706,-0.0353,0.0403,-0.0303,-0.0706,-0.0706,-0.0706,-0.0706,-0.0706,-0.0706,-0.0706,-0.0756,-0.1311,-0.1613,0.0,0.0,0.0,0.1243,0.0,0.0,0.0,0.0,0.1265,0.0,0.0,0.0,0.0,0.0,0.0,0.0,0.0,0.0,0.0,0.0,0.0,0.0,0.0,0.0,0.0,0.125,0.1212,0.0,0.1228,0.1281,0.1384,0.1466,0.1511,0.162,0.1601,0.1617,0.1617,0.1617,0.1617,0.1617,0.1617,0.1617,0.1617,0.1617,0.1617,0.1617,0.1617,0.1617,0.1617,0.1617,0.1617,0.1617,0.1617,0.1617,0.1617,0.1566,0.1566,0.1566,0.1516,0.1516,0.1516,0.1516,0.1516,0.1516,0.1516,0.0757,-0.005,-0.005,-0.005,-0.005,-0.005,0.0706,0.1516,0.1516,0.1516,0.1566,0.1566,0.1566,0.1617,0.1617,0.1617,0.1617,0.1617,0.1566,0.1516,0.1516,0.1516,0.1516,0.1566,0.1516,0.1516,0.1566,0.1516,0.1516,0.1516,0.1516,0.1516,0.1516,0.1516,0.1516,0.1566,0.1516,0.1516,0.1516,0.1516,0.1516,0.1516,0.1516,0.1516,0.1465,-0.0656,-0.1613,0.0,0.0,0.1371,0.1292,0.0,0.0,0.0,0.0,0.0,0.0,0.0,0.0,0.0,0.0,0.0,0.0,0.0,0.0,0.0,0.0,0.0,0.0,0.0,0.0,0.0,0.0,0.0,0.1215,0.1248,0.0,0.1399,0.1472,0.1529,0.1619,0.1601,0.1617,0.1617,0.1617,0.1617,0.1617,0.1617,0.1617,0.1617,0.1617,0.1617,0.1617,0.1617,0.1617,0.1617,0.1617,0.1617,0.1617,0.1617,0.1617,0.1617,0.1617,0.1617,0.1617,0.1617,0.1617,0.1617,0.1617,0.1617,0.1617,0.1617,0.1364,0.106,0.106,0.106,0.106,0.106,0.1313,0.1617,0.1617,0.1633,0.1647,0.1647,0.1662,0.1675,0.1675,0.1675,0.1669,0.165,0.1647,0.164,0.162,0.1617,0.1624,0.1645,0.1647,0.1654,0.1673,0.1658,0.1647,0.1647,0.1628,0.1617,0.1617,0.1617,0.1617,0.1617,0.1617,0.1617,0.1617,0.1617,0.1617,0.1617,0.1617,0.1617,0.1566,0.0858,0.0505,0.1336,0.14,0.0,0.1348,0.1327,0.0,0.1204,0.0,0.1252,0.0,0.0,0.0,0.0,0.0,0.0,0.0,0.0,0.0,0.0,0.1093,0.0,0.0,0.0,0.0,0.0,0.0,0.1176,0.1239,0.1242,0.0,0.0,0.1466,0.1524,0.1554,0.1595,0.1617,0.1617,0.1617,0.1617,0.1617,0.1617,0.1617,0.1617,0.1617,0.1617,0.1617,0.1617,0.1617,0.1617,0.1617,0.1617,0.1617,0.1617,0.1617,0.1617,0.1617,0.1617,0.1617,0.1617,0.1617,0.1617,0.1617,0.1617,0.1619,0.163,0.1626,0.1619,0.163,0.1625,0.1617,0.1617,0.1625,0.1633,0.1633,0.1656,0.1677,0.1677,0.1691,0.1704,0.1704,0.1704,0.1699,0.168,0.1677,0.1667,0.1637,0.1633,0.1643,0.1673,0.1677,0.1684,0.1702,0.1688,0.1726,0.1715,0.1635,0.1617,0.1617,0.1617,0.1617,0.1617,0.1617,0.1617,0.1617,0.1617,0.1617,0.1617,0.1617,0.1617,0.1617,0.1617,0.1617]},{"header":{"parameterUnit":"m.s-1","parameterCategory":1,"la1":30.6,"la2":29.2853,"lo1":-89.7004,"lo2":-87.6739,"dy":0.0162,"dx":0.0183,"nx":112,"ny":82,"refTime":"2024-09-19T06:00:00:Z","depth":0,"parameterNumber":3,"parameterNumberName":"V-component_of_WINDS"},"data":[0.0,0.0,0.0,0.0,0.0,0.0,0.0,0.0,0.0,0.0,0.0,0.0,0.0,0.0,0.0,0.0,0.0,0.0,0.0,0.0,0.0,0.0,0.0,0.0,0.0,0.0,0.0,0.0,0.0,0.0,0.0,0.0,0.0,0.0,0.0,0.0,0.0,0.0,0.0,0.0,0.0,0.0,0.0,0.0,0.0,0.0,0.0,0.0,0.0,0.0,0.0,0.0,0.0,0.0,0.0,0.0,0.0,0.0,0.0,0.0,0.0,0.0,0.0,0.0,0.0,0.0,0.0,0.0,0.0,0.0,0.0,0.0,0.0,0.0,0.0,0.0,0.0,0.0,0.0,0.0,0.0,0.0,0.0,0.0,0.0,0.0,0.0,0.0,0.0,0.0,0.5151,0.5413,0.5509,0.5485,0.5329,0.5273,0.5127,0.4788,0.0,0.0,0.0,0.0,0.0,0.0,0.0,0.0,0.0,0.0,0.0,0.0,0.0,0.0,0.0,0.0,0.0,0.0,0.0,0.0,0.0,0.0,0.0,0.0,0.0,0.0,0.0,0.0,0.0,0.0,0.0,0.0,0.0,0.0,0.0,0.0,0.0,0.0,0.0,0.0,0.0,0.0,0.0,0.0,0.0,0.0,0.0,0.0,0.0,0.0,0.0,0.0,0.0,0.0,0.0,0.0,0.0,0.0,0.0,0.0,0.0,0.0,0.0,0.0,0.0,0.0,0.0,0.0,0.0,0.0,0.0,0.0,0.0,0.0,0.0,0.0,0.0,0.0,0.0,0.0,0.0,0.0,0.0,0.0,0.0,0.0,0.0,0.0,0.0,0.0,0.0,0.0,0.0,0.0,0.0,0.0,0.0,0.0,0.0,0.0,0.0,0.0,0.0,0.0,0.5032,0.5517,0.5425,0.5325,0.5297,0.5183,0.497,0.4562,0.0,0.0,0.0,0.0,0.0,0.0,0.0,0.0,0.0,0.0,0.0,0.0,0.0,0.0,0.0,0.0,0.0,0.0,0.0,0.0,0.0,0.0,0.0,0.0,0.0,0.0,0.0,0.0,0.0,0.0,0.0,0.0,0.0,0.0,0.0,0.0,0.0,0.0,0.0,0.0,0.0,0.0,0.0,0.0,0.0,0.0,0.0,0.0,0.0,0.0,0.0,0.0,0.0,0.0,0.0,0.0,0.0,0.0,0.0,0.0,0.0,0.0,0.0,0.0,0.0,0.0,0.0,0.0,0.0,0.0,0.0,0.0,0.0,0.0,0.0,0.0,0.0,0.0,0.0,0.0,0.0,0.0,0.0,0.0,0.0,0.0,0.0,0.0,0.0,0.0,0.0,0.0,0.0,0.0,0.0,0.0,0.0,0.0,0.0,0.0,0.0,0.0,0.0,0.4833,0.5036,0.5404,0.5352,0.5297,0.5297,0.5186,0.4926,0.4521,0.4266,0.0,0.0,0.0,0.0,0.0,0.0,0.0,0.0,0.0,0.0,0.0,0.0,0.0,0.0,0.0,0.0,0.0,0.0,0.0,0.0,0.0,0.0,0.0,0.0,0.0,0.0,0.0,0.0,0.0,0.0,0.0,0.0,0.0,0.0,0.0,0.0,0.0,0.0,0.0,0.0,0.0,0.0,0.0,0.0,0.0,0.0,0.0,0.0,0.0,0.0,0.0,0.0,0.0,0.0,0.0,0.0,0.0,0.0,0.0,0.0,0.0,0.0,0.0,0.0,0.0,0.0,0.0,0.0,0.0,0.0,0.0,0.0,0.0,0.0,0.0,0.0,0.0,0.0,0.0,0.0,0.0,0.0,0.0,0.0,0.0,0.0,0.0,0.0,0.0,0.0,0.0,0.0,0.0,0.0,0.0,0.0,0.0,0.0,0.0,0.0,0.0,0.0,0.4983,0.5107,0.5288,0.5297,0.5281,0.5264,0.5084,0.4804,0.4401,0.4068,0.0,0.0,0.0,0.0,0.0,0.0,0.0,0.0,0.0,0.0,0.0,0.0,0.0,0.0,0.0,0.0,0.0,0.0,0.0,0.0,0.0,0.0,0.0,0.0,0.0,0.0,0.0,0.0,0.0,0.0,0.0,0.0,0.0,0.0,0.0,0.0,0.0,0.0,0.0,0.0,0.0,0.0,0.0,0.0,0.0,0.0,0.0,0.0,0.0,0.0,0.0,0.0,0.0,0.0,0.0,0.0,0.0,0.0,0.0,0.0,0.0,0.0,0.0,0.0,0.0,0.0,0.0,0.0,0.0,0.0,0.0,0.0,0.0,0.0,0.0,0.0,0.0,0.0,0.0,0.0,0.0,0.0,0.0,0.0,0.0,0.0,0.0,0.0,0.0,0.0,0.0,0.0,0.0,0.0,0.0,0.0,0.0,0.0,0.0,0.0,0.0,0.0,0.492,0.5212,0.5288,0.5297,0.5256,0.5117,0.4759,0.4389,0.4056,0.372,0.0,0.0,0.0,0.0,0.0,0.0,0.0,0.0,0.0,0.0,0.0,0.0,0.0,0.0,0.0,0.0,0.0,0.0,0.0,0.0,0.0,0.0,0.0,0.0,0.0,0.0,0.0,0.0,0.0,0.0,0.0,0.0,0.0,0.0,0.0,0.0,0.0,0.0,0.0,0.0,0.0,0.0,0.0,0.0,0.0,0.0,0.0,0.0,0.0,0.0,0.0,0.0,0.0,0.0,0.0,0.0,0.0,0.0,0.0,0.0,0.0,0.0,0.0,0.0,0.0,0.0,0.0,0.0,0.0,0.0,0.0,0.0,0.0,0.0,0.0,0.0,0.0,0.0,0.0,0.0,0.0,0.0,0.0,0.0,0.0,0.0,0.0,0.0,0.0,0.0,0.0,0.0,0.0,0.0,0.0,0.0,0.0,0.0,0.0,0.0,0.0,0.0,0.5316,0.5793,0.0,0.5872,0.5839,0.5783,0.5538,0.5103,0.4466,0.0,0.0,0.0,0.0,0.0,0.0,0.0,0.0,0.0,0.0,0.0,0.0,0.0,0.0,0.0,0.0,0.0,0.0,0.0,0.0,0.0,0.0,0.0,0.0,0.0,0.0,0.0,0.0,0.0,0.0,0.0,0.0,0.0,0.0,0.0,0.0,0.0,0.0,0.0,0.0,0.0,0.0,0.0,0.0,0.0,0.0,0.0,0.0,0.0,0.0,0.0,0.0,0.0,0.0,0.0,0.0,0.0,0.0,0.0,0.0,0.0,0.0,0.0,0.0,0.0,0.0,0.0,0.0,0.0,0.0,0.0,0.0,0.0,0.0,0.0,0.0,0.0,0.0,0.0,0.0,0.0,0.0,0.0,0.0,0.0,0.0,0.0,0.0,0.0,0.0,0.0,0.0,0.0,0.0,0.0,0.0,0.0,0.0,0.0,0.0,0.0,0.0,0.5085,0.5728,0.621,0.0,0.6261,0.6229,0.6179,0.5984,0.5571,0.4868,0.0,0.0,0.0,0.0,0.0,0.0,0.0,0.0,0.0,0.0,0.0,0.0,0.0,0.0,0.0,0.0,0.0,0.0,0.0,0.0,0.0,0.0,0.0,0.0,0.0,0.0,0.0,0.0,0.0,0.0,0.0,0.0,0.0,0.0,0.0,0.0,0.0,0.0,0.0,0.0,0.0,0.0,0.0,0.0,0.0,0.0,0.0,0.0,0.0,0.0,0.0,0.0,0.0,0.0,0.0,0.0,0.0,0.0,0.0,0.0,0.0,0.0,0.0,0.0,0.0,0.0,0.0,0.0,0.0,0.0,0.0,0.0,0.0,0.0,0.0,0.0,0.0,0.0,0.0,0.0,0.0,0.0,0.0,0.0,0.0,0.0,0.0,0.0,0.0,0.0,0.0,0.0,0.0,0.0,0.0,0.0,0.0,0.0,0.0,0.0,0.0,0.0,0.5605,0.6075,0.6412,0.6409,0.6412,0.6332,0.6133,0.5919,0.5619,0.0,0.0,0.0,0.0,0.0,0.0,0.0,0.0,0.0,0.0,0.0,0.0,0.0,0.0,0.0,0.0,0.0,0.0,0.0,0.0,0.0,0.0,0.0,0.0,0.0,0.0,0.0,0.0,0.0,0.0,0.0,0.0,0.0,0.0,0.0,0.0,0.0,0.0,0.0,0.0,0.0,0.0,0.0,0.0,0.0,0.0,0.0,0.0,0.0,0.0,0.0,0.0,0.0,0.0,0.0,0.0,0.0,0.0,0.0,0.0,0.0,0.0,0.0,0.0,0.0,0.0,0.0,0.0,0.0,0.0,0.0,0.0,0.0,0.0,0.0,0.0,0.0,0.0,0.0,0.0,0.0,0.0,0.0,0.0,0.0,0.0,0.0,0.0,0.0,0.0,0.0,0.0,0.0,0.0,0.0,0.0,0.0,0.0,0.0,0.0,0.0,0.0,0.0,0.5996,0.6679,0.716,0.71,0.7113,0.7074,0.7032,0.6968,0.657,0.572,0.0,0.0,0.0,0.0,0.0,0.0,0.0,0.0,0.0,0.0,0.0,0.0,0.0,0.0,0.0,0.0,0.0,0.0,0.0,0.0,0.0,0.0,0.0,0.0,0.0,0.0,0.0,0.0,0.0,0.0,0.0,0.0,0.0,0.0,0.0,0.0,0.0,0.0,0.0,0.0,0.0,0.0,0.0,0.0,0.0,0.0,0.0,0.0,0.0,0.0,0.0,0.0,0.0,0.0,0.0,0.0,0.0,0.0,0.0,0.0,0.0,0.0,0.0,0.0,0.0,0.0,0.0,0.0,0.0,0.0,0.0,0.0,0.0,0.0,0.0,0.0,0.0,0.0,0.0,0.0,0.0,0.0,0.0,0.0,0.0,0.0,0.0,0.0,0.0,0.0,0.0,0.0,0.0,0.0,0.0,0.0,0.0,0.0,0.0,0.0,0.0,0.0,0.6558,0.7155,0.7602,0.7645,0.7525,0.7447,0.7447,0.7447,0.7133,0.6436,0.0,0.0,0.0,0.0,0.0,0.0,0.0,0.0,0.0,0.0,0.0,0.0,0.0,0.0,0.0,0.0,0.0,0.0,0.0,0.0,0.0,0.0,0.0,0.0,0.0,0.0,0.0,0.0,0.0,0.0,0.0,0.0,0.0,0.0,0.0,0.0,0.0,0.0,0.0,0.0,0.0,0.0,0.0,0.0,0.0,0.0,0.0,0.0,0.0,0.0,0.0,0.0,0.0,0.0,0.0,0.0,0.0,0.0,0.0,0.0,0.0,0.0,0.0,0.0,0.0,0.0,0.0,0.0,0.0,0.0,0.0,0.0,0.0,0.0,0.0,0.0,0.0,0.0,0.0,0.0,0.0,0.0,0.0,0.0,0.0,0.0,0.0,0.0,0.0,0.0,0.0,0.0,0.0,0.0,0.0,0.0,0.0,0.0,0.0,0.0,0.0,0.0,0.728,0.7652,0.795,0.8121,0.7888,0.7677,0.7648,0.7641,0.753,0.7275,0.0,0.0,0.0,0.0,0.0,0.0,0.0,0.0,0.0,0.0,0.0,0.0,0.0,0.0,0.0,0.0,0.0,0.0,0.0,0.0,0.0,0.0,0.0,0.0,0.0,0.0,0.0,0.0,0.0,0.0,0.0,0.0,0.0,0.0,0.0,0.0,0.0,0.0,0.0,0.0,0.0,0.0,0.0,0.0,0.0,0.0,0.0,0.0,0.0,0.0,0.0,0.0,0.0,0.0,0.0,0.0,0.0,0.0,0.0,0.0,1.3854,0.0,0.0,0.0,0.0,0.0,0.0,0.0,0.0,0.0,0.0,0.0,0.0,0.0,0.0,0.0,0.0,0.0,0.0,0.0,0.0,0.0,0.0,0.0,0.0,0.0,0.0,0.0,0.0,0.0,0.0,0.0,0.0,0.0,0.0,0.0,0.0,0.0,0.0,0.0,0.0,0.0,0.8146,0.8798,0.9202,0.9255,0.9188,0.9031,0.8708,0.8683,0.8586,0.8373,0.829,0.0,0.0,0.0,0.0,0.0,0.0,0.0,0.0,0.0,0.0,0.0,0.0,0.0,0.0,0.0,0.0,0.0,0.0,0.0,0.0,0.0,0.0,0.0,0.0,0.0,0.0,0.0,0.0,0.0,0.0,0.0,0.0,0.0,0.0,0.0,0.0,0.0,0.0,0.0,0.0,0.0,0.0,0.0,0.0,0.0,0.0,0.0,0.0,0.0,0.0,0.0,0.0,0.0,0.0,0.0,0.0,0.0,0.0,0.0,0.0,1.5398,0.0,0.0,0.0,0.0,0.0,0.0,0.0,0.0,0.0,0.0,0.0,0.0,0.0,0.0,0.0,0.0,0.0,0.0,0.0,0.0,0.0,0.0,0.0,0.0,0.0,0.0,0.0,0.0,0.0,0.0,0.0,0.0,0.0,0.0,0.0,0.0,0.0,0.0,0.0,0.0,0.8906,0.9359,0.9662,0.9821,0.9697,0.946,0.9131,0.9096,0.907,0.8997,0.883,0.0,0.0,0.0,0.0,0.0,0.0,0.0,0.0,0.0,0.0,0.0,0.0,0.0,0.0,0.0,0.0,0.0,0.0,0.0,0.0,0.0,0.0,0.0,0.0,0.0,0.0,0.0,0.0,0.0,0.0,0.0,0.0,0.0,0.0,0.0,0.0,0.0,0.0,0.0,0.0,0.0,0.0,0.0,0.0,0.0,0.0,0.0,0.0,0.0,0.0,0.0,0.0,0.0,1.9925,1.9988,1.9441,1.9941,2.026,2.0357,1.8596,1.8022,1.8178,1.6994,0.0,0.0,0.0,0.0,0.0,0.0,0.0,0.0,0.0,0.0,0.0,0.0,0.0,0.0,0.0,0.0,0.0,0.0,0.0,0.0,0.0,0.0,0.0,0.0,1.6112,1.5429,1.2567,0.0,0.0,0.0,0.0,0.0,0.0,0.0,0.0,0.0,0.0,0.0,0.9763,1.0021,1.0232,1.0515,1.0219,0.9893,0.9591,0.9493,0.9487,0.9558,0.9306,0.9114,0.0,0.0,0.0,0.0,0.0,0.0,0.0,0.0,0.0,0.0,0.0,0.0,0.0,0.0,0.0,0.0,0.0,0.0,0.0,0.0,0.0,0.0,0.0,0.0,0.0,0.0,0.0,0.0,0.0,0.0,0.0,0.0,1.505,1.5684,0.0,0.0,0.0,0.0,0.0,0.0,0.0,0.0,0.0,0.0,0.0,0.0,0.0,1.9633,2.0155,2.123,2.1272,2.0389,2.1928,2.2126,2.1185,2.1716,2.2217,2.2655,2.1927,0.0,1.8927,1.8355,0.0,0.0,0.0,0.0,0.0,0.0,0.0,0.0,0.0,0.0,0.0,0.0,0.0,0.0,0.0,0.0,0.0,0.0,0.0,0.0,0.0,0.0,1.7983,1.7669,1.7128,1.6607,0.0,1.4738,1.3354,1.2679,1.1867,0.0,0.0,0.0,0.0,0.0,0.0,0.0,1.0969,1.174,1.2232,1.2269,1.1873,1.1438,1.1053,1.0646,1.0467,1.0582,1.0551,1.0406,1.0118,0.9978,0.0,0.0,0.0,0.0,0.0,0.0,0.0,0.0,0.0,0.0,0.0,0.0,0.0,0.0,0.0,0.0,0.0,0.0,0.0,0.0,0.0,0.0,0.0,0.0,0.0,0.0,0.0,0.0,0.0,1.5714,1.6977,1.7192,1.7513,1.7289,0.0,0.0,0.0,0.0,0.0,0.0,0.0,0.0,0.0,2.1122,2.1789,2.2074,2.2013,2.2837,2.2985,2.2515,2.3267,2.3364,2.2912,2.315,2.3183,2.3095,2.2976,2.2196,2.1026,2.0412,1.9573,1.8607,0.0,0.0,0.0,0.0,1.7283,1.7462,1.7802,1.8161,1.8287,1.745,0.0,0.0,0.0,0.0,0.0,0.0,0.0,0.0,0.0,0.0,1.9094,1.9315,1.8789,1.8258,1.8301,1.7045,1.5593,0.0,1.3649,1.2609,1.0906,0.0,0.0,0.0,0.0,1.1399,1.1962,1.2353,1.2597,1.2597,1.2416,1.2145,1.1785,1.1562,1.148,1.1586,1.1369,1.1274,1.1303,1.0814,1.0438,0.0,0.0,0.0,0.0,0.0,0.0,0.0,0.0,0.0,0.0,0.0,0.0,0.0,0.0,0.0,0.0,0.0,0.0,0.0,0.0,0.0,0.0,0.0,0.0,0.0,0.0,0.0,0.0,1.7256,1.8436,1.8505,1.9117,1.9081,0.0,0.0,0.0,0.0,0.0,0.0,2.0896,2.1777,2.2616,2.3345,2.4339,2.4569,2.3991,2.4418,2.445,2.4054,2.4054,2.4009,2.3901,2.3901,2.375,2.343,2.3454,2.3297,2.2992,2.2166,2.1519,2.0964,2.0104,1.9737,1.9673,1.9454,1.954,1.9792,2.0007,2.029,2.0419,1.9571,1.9089,1.864,1.7686,0.0,0.0,0.0,0.0,1.813,1.9518,1.9581,1.9444,2.0148,1.966,1.905,1.9192,1.8249,1.702,0.0,1.5154,1.4216,1.2535,0.0,0.0,0.0,0.0,1.2718,1.3013,1.3167,1.323,1.323,1.3125,1.296,1.27,1.2457,1.2337,1.2379,1.1973,1.185,1.2113,1.1556,1.1252,1.1341,0.0,0.0,0.0,0.0,0.0,0.0,0.0,0.0,0.0,0.0,0.0,0.0,0.0,0.0,0.0,0.0,0.0,0.0,0.0,0.0,0.0,0.0,0.0,0.0,0.0,0.0,0.0,0.0,0.0,1.9647,2.0236,0.0,0.0,0.0,0.0,2.0572,2.1061,2.2063,2.3716,2.433,2.5151,2.6251,2.6829,2.6889,2.6336,2.6361,2.5648,2.4196,2.4196,2.3979,2.3607,2.3607,2.3888,2.4305,2.3799,2.385,2.4234,2.3164,2.2411,2.1926,2.1875,2.1503,2.1093,2.1754,2.1354,2.055,2.1185,2.108,2.0674,2.0608,1.9836,1.8875,1.8741,1.8283,0.0,0.0,1.91,1.9657,2.0453,1.9786,1.9071,1.9684,1.8884,1.8118,1.8639,1.7831,1.6973,0.0,1.6182,1.5421,1.4435,0.0,1.4161,1.3622,1.3958,1.4281,1.4317,1.4697,1.4983,1.4983,1.4593,1.4306,1.4283,1.342,1.2846,1.2862,1.2376,1.2118,1.2192,1.2156,1.2169,1.2224,1.183,0.0,0.0,0.0,0.0,0.0,0.0,0.0,0.0,0.0,0.0,0.0,0.0,0.0,0.0,0.0,0.0,0.0,0.0,0.0,0.0,0.0,0.0,0.0,0.0,0.0,0.0,0.0,0.0,2.1621,2.226,0.0,2.1437,2.1813,2.2207,2.2456,2.3183,2.4073,2.5158,2.5727,2.6219,2.6611,2.6929,2.6845,2.6319,2.6306,2.5855,2.4905,2.4548,2.4328,2.4184,2.4184,2.406,2.391,2.4603,2.4773,2.4585,2.4674,2.4055,2.2988,2.2657,2.2444,2.2308,2.2235,2.218,2.2164,2.2042,2.2106,2.207,2.1361,2.1063,2.0908,2.056,2.0331,2.0211,2.0411,2.012,1.9791,2.0048,1.9512,1.8963,1.9172,1.8614,1.8074,1.8282,1.7612,1.6985,1.6941,1.6427,1.5803,1.5217,1.5541,1.5526,1.4511,1.4886,1.5229,1.502,1.5049,1.5131,1.5232,1.5092,1.4998,1.5031,1.439,1.3976,1.3922,1.3141,1.2786,1.3035,1.2538,1.2443,1.282,1.2121,1.1466,0.0,0.0,0.0,0.0,0.0,0.0,0.0,0.0,0.0,0.0,0.0,0.0,0.0,0.0,0.0,0.0,0.0,0.0,0.0,0.0,0.0,0.0,0.0,0.0,0.0,0.0,2.1832,2.2984,2.343,2.355,2.3279,2.3564,2.3913,2.4313,2.5122,2.58,2.6243,2.6981,2.7412,2.7412,2.7708,2.7709,2.7433,2.742,2.7057,2.6329,2.5977,2.561,2.5286,2.5266,2.4926,2.4408,2.5287,2.5425,2.5119,2.5591,2.5231,2.431,2.3955,2.3852,2.3898,2.3311,2.3231,2.3298,2.2514,2.2432,2.258,2.188,2.1837,2.2035,2.1732,2.1636,2.1636,2.1636,2.0989,2.0261,2.0261,1.9659,1.8999,1.8857,1.8411,1.7959,1.7843,1.7423,1.7086,1.7086,1.6689,1.6286,1.6019,1.641,1.6473,1.5575,1.5853,1.6086,1.5866,1.5768,1.5746,1.5822,1.5844,1.5866,1.5898,1.5235,1.4781,1.4734,1.374,1.3269,1.3527,1.301,1.2918,1.3318,1.2772,1.2324,1.2013,0.0,0.0,0.0,0.0,0.0,0.0,0.0,0.0,0.0,0.0,0.0,0.0,0.0,0.0,0.0,0.0,0.0,0.0,0.0,0.0,0.0,0.0,0.0,2.1913,2.2033,2.2522,2.3697,2.3786,2.3949,2.4549,2.4648,2.5112,2.6187,2.6873,2.7188,2.7087,2.8189,2.8805,2.8852,2.9329,2.9685,2.9802,2.9835,2.937,2.8437,2.8424,2.7884,2.6877,2.6863,2.6483,2.5838,2.5879,2.5865,2.5837,2.5837,2.5864,2.5837,2.581,2.5783,2.5685,2.5122,2.4531,2.3814,2.2587,2.2151,2.2151,2.2128,2.2128,2.2151,2.2128,2.2128,2.2128,2.2128,2.1647,2.1162,2.1162,2.0237,1.9176,1.8801,1.8248,1.772,1.7323,1.722,1.722,1.7199,1.7044,1.6897,1.6897,1.6897,1.6897,1.6897,1.6897,0.0,1.6897,1.6897,1.6897,1.6897,1.6897,1.6897,1.6897,1.587,1.521,1.521,1.4138,1.3543,1.3624,1.3641,1.3704,1.3857,1.3831,1.3968,1.4237,0.0,0.0,0.0,0.0,0.0,0.0,0.0,0.0,0.0,0.0,0.0,0.0,0.0,0.0,0.0,0.0,0.0,0.0,0.0,0.0,0.0,2.2521,2.3364,2.3484,2.3895,2.4789,2.6414,2.6575,2.6758,2.7274,2.7711,2.7933,2.781,2.8224,2.8552,2.8661,2.8972,2.9375,2.9788,3.0099,3.0262,3.0303,3.0321,2.9929,2.919,2.8799,2.845,2.8172,2.8168,2.7582,2.6567,2.7445,2.7304,2.6484,2.6916,2.7111,2.7034,2.6135,2.5543,2.5136,2.4968,2.4467,2.3808,2.3346,2.3187,2.3143,2.2785,2.292,2.312,2.2785,2.2672,2.2672,2.2672,2.1652,2.0547,2.0547,1.9641,1.8694,1.8575,1.843,1.8187,1.774,1.7639,1.7557,1.7261,1.7157,1.7115,1.7115,1.7044,1.7002,1.7094,1.6981,0.0,1.696,1.6918,1.6918,1.696,1.696,1.7002,1.7115,1.6075,1.5424,1.5424,1.4345,1.3894,1.4315,1.4328,1.4554,1.5016,1.4598,1.4628,0.0,0.0,0.0,0.0,0.0,0.0,0.0,0.0,0.0,0.0,0.0,0.0,0.0,0.0,0.0,0.0,0.0,0.0,0.0,0.0,0.0,0.0,2.4663,2.5433,2.6286,2.5788,2.6026,2.7863,2.7641,2.7723,2.8746,2.8973,2.8988,2.8862,2.9608,2.9848,2.9421,3.0182,3.0665,3.0736,3.0845,3.1048,3.1344,3.1069,3.072,3.0329,3.0013,2.9739,2.945,2.9445,2.8905,2.8016,2.8714,2.8476,2.7617,2.7953,2.7956,0.0,0.0,0.0,0.0,0.0,2.5146,2.428,2.4207,2.4001,2.3717,2.3458,2.3545,2.3717,2.3436,2.337,2.337,2.337,2.2423,2.137,2.1087,2.0293,1.9425,1.8979,1.8884,1.875,1.8291,1.8193,1.8114,1.7874,1.7834,0.0,1.7834,1.7413,1.7115,1.7199,1.7094,1.7044,1.7073,1.7065,1.7044,1.7073,1.7073,1.7115,1.7199,1.6388,0.0,0.0,0.0,1.4655,1.4951,1.5031,0.0,0.0,0.0,0.0,0.0,0.0,0.0,0.0,1.6623,1.6654,0.0,0.0,0.0,0.0,0.0,0.0,0.0,0.0,0.0,0.0,0.0,0.0,0.0,0.0,0.0,0.0,2.6876,2.7595,2.9379,2.7677,2.6888,2.8621,2.7855,2.7883,2.9566,2.9315,2.9199,2.9692,3.0818,3.0982,2.9794,0.0,0.0,0.0,0.0,3.1895,3.2482,3.1914,3.1585,3.1539,3.1539,3.1239,3.0668,3.0668,3.0338,2.9766,2.9766,2.9429,2.8927,2.8867,2.8495,2.798,2.765,2.762,2.7644,2.7085,2.613,2.5097,2.5021,0.0,0.0,2.4019,2.4003,2.4003,2.4003,2.4003,2.4003,2.4003,2.3517,2.2864,2.2271,2.1554,2.0766,1.9819,1.952,1.935,1.8874,1.8779,1.8746,1.8708,1.8688,1.8688,1.8688,1.7921,1.731,1.7352,1.7323,1.7303,1.7344,1.7303,1.7282,1.7282,0.0,0.0,1.7199,1.6763,1.6474,1.6474,1.6019,1.5747,1.5691,1.6,1.6622,1.7575,1.7847,1.8459,1.9485,2.003,2.0311,2.0362,1.8073,1.7911,0.0,0.0,0.0,0.0,0.0,0.0,0.0,0.0,0.0,0.0,0.0,0.0,0.0,0.0,0.0,2.7546,2.8622,2.9444,2.972,2.9352,2.9304,3.0031,2.9924,3.0124,3.1025,3.1041,3.0998,3.1117,3.1367,3.1382,3.1131,3.1486,3.1872,3.2303,3.2318,3.2378,3.2512,3.2363,3.2122,3.1727,0.0,0.0,3.17,3.17,3.1351,3.0731,3.0731,3.0349,2.9735,2.9178,2.8586,2.7934,2.7358,2.7146,2.7079,2.6434,2.6024,2.572,2.5188,2.4915,2.4717,2.4186,2.4003,2.4003,2.4003,2.4003,0.0,2.4003,2.3517,2.2965,2.2849,2.1903,2.0943,2.0733,2.0276,1.9762,1.935,1.9262,1.9151,1.8765,1.8688,1.8688,1.8688,1.8263,1.802,1.8285,1.8048,1.7928,1.8206,1.7908,1.7679,1.7679,1.7679,1.7557,1.724,1.7003,1.6908,1.6957,1.726,1.7296,1.6958,1.8277,1.8947,1.8845,1.9739,2.0316,2.0598,2.0708,2.1084,2.1637,2.062,2.0332,0.0,0.0,0.0,0.0,0.0,0.0,0.0,0.0,0.0,0.0,0.0,2.4152,2.4834,0.0,2.8318,2.9336,2.9776,3.0217,3.0806,3.0625,3.0437,3.049,3.0507,3.0748,3.1436,3.1511,3.1539,3.1641,3.1868,3.1942,3.1756,3.23,3.2645,3.2749,3.2749,3.2749,3.2749,3.2417,3.2114,3.1898,3.1898,3.1955,3.1996,3.1996,3.1814,3.1496,3.1496,3.1156,3.0521,2.9597,2.9011,2.8645,2.7957,2.7658,2.7564,2.73,2.7002,2.665,2.6313,2.5747,2.5098,2.4762,2.4411,2.4151,2.4151,2.4151,2.4151,2.4151,2.3906,2.357,2.3234,2.2638,2.198,2.1311,2.088,2.0508,1.9965,1.9854,1.9782,1.9555,1.95,1.95,1.95,1.9173,1.8836,1.8679,1.8486,1.8408,1.8583,1.8408,1.8238,1.8238,1.8238,1.8159,1.7961,1.7882,1.7869,1.7899,1.8158,1.8214,1.8002,1.8879,1.9389,1.9503,2.043,2.1061,2.1393,2.1727,2.2099,2.2434,2.2109,2.1827,0.0,0.0,0.0,0.0,0.0,0.0,0.0,0.0,2.3526,2.3912,2.5485,2.691,2.7357,2.8545,2.9809,3.0894,3.0723,3.083,3.1886,3.1582,3.1122,3.0814,3.0786,3.1011,3.1537,3.1597,3.1655,3.1841,3.2179,3.2358,3.2209,3.3078,3.3471,3.3196,3.318,3.312,3.2983,3.2452,3.2146,3.2038,3.2038,3.2038,3.2066,3.2066,3.2066,3.2066,3.2066,3.1769,3.1159,3.0191,2.9658,2.9341,2.8812,2.8446,2.8235,2.8348,2.8057,2.758,2.7442,2.6657,2.565,2.5389,2.4927,2.4466,2.4348,2.4302,2.4302,2.4302,2.4302,2.4179,2.364,2.3394,2.3025,2.1951,2.1596,2.1304,2.0643,2.0487,2.0458,2.0335,2.0304,2.0304,2.0304,2.0028,1.9621,1.9062,1.8912,1.8874,1.8949,1.8874,1.8836,1.8836,1.8836,1.8836,1.8836,1.8855,1.8855,1.8855,1.8954,1.8987,1.8893,1.9197,1.9555,1.9967,2.0933,2.1633,2.2032,2.2703,2.3046,2.3046,2.3046,2.2777,2.3288,2.2843,2.2914,2.4131,2.3681,2.3533,0.0,0.0,2.6475,2.7063,2.8451,2.9427,2.9035,3.0155,3.1186,3.134,3.1801,3.2146,3.2176,3.2102,3.2,3.1847,3.1819,3.1849,3.1925,3.194,3.194,3.1968,3.2044,3.2302,3.2846,3.3013,3.3332,3.3863,3.3909,3.359,3.3027,3.2922,3.2659,3.2163,3.2163,3.2247,3.2342,3.2342,3.2342,3.2342,3.2342,3.1986,3.1382,3.1228,3.0474,2.9371,2.9335,2.891,2.8372,2.8387,2.835,2.8211,2.7611,2.7288,2.6965,2.5696,2.525,2.5066,2.4487,2.4302,2.4302,2.4302,2.4302,2.4287,2.421,2.3748,2.3255,2.3102,2.2609,2.2012,2.1334,2.118,2.1011,2.0428,2.0304,2.0304,2.0304,2.027,2.0168,1.9977,1.9642,1.953,1.9815,1.9548,1.9332,1.9332,1.9332,1.9332,1.9332,1.9387,1.9406,1.9406,1.9854,1.9975,1.9603,2.0518,2.0886,2.059,2.2206,2.2869,2.2518,2.3195,2.3508,2.3508,2.3508,2.3268,2.4803,2.4933,2.5179,0.0,2.6655,2.7346,2.8176,2.8125,2.8105,2.878,2.9871,3.0717,3.075,3.1687,3.2552,0.0,3.2893,3.2949,3.3214,3.2646,3.2173,3.212,3.184,3.1735,3.1979,3.1996,3.2038,3.2122,3.2403,3.2766,3.3213,3.3537,3.3859,3.4283,3.4283,3.4161,3.387,3.387,3.3546,3.2913,3.2913,3.2726,3.2398,3.2398,3.2559,3.2868,3.2868,3.2712,3.2415,3.2024,3.1539,3.0945,3.0123,2.9663,2.9366,2.8656,2.8411,2.8365,2.8088,2.7734,2.7303,2.6718,2.598,2.525,2.4979,2.4604,2.4302,2.4302,2.4302,2.4302,2.4302,2.4087,2.3779,2.3394,2.3086,2.2686,2.2028,2.1889,2.1689,2.1011,2.0872,2.0749,2.0366,2.0304,2.0287,2.022,2.008,2.001,2.0148,2.0028,1.9925,1.9925,1.9925,1.9925,1.9925,1.9942,1.9975,1.9975,2.0183,2.0218,2.0063,2.0845,2.1216,2.1051,2.2532,2.3187,2.3006,2.3675,2.4015,2.4015,2.4015,2.3909,2.5998,0.0,0.0,2.7585,2.8774,2.9721,2.9705,2.9601,2.9647,3.0147,3.0965,3.163,3.1828,3.2544,3.3233,3.3629,3.3537,3.3563,3.396,3.3072,3.2453,3.2685,3.2169,3.2002,3.2513,3.2274,3.2135,3.2247,3.2789,3.3276,3.369,3.4264,3.4784,3.5265,3.531,3.5305,3.5261,3.5261,3.4901,3.4197,3.4197,3.3959,3.3474,3.3298,3.3282,3.3417,3.3495,3.3521,3.3447,3.2994,3.27,3.2428,3.1414,3.0791,3.0368,2.9478,2.8936,2.8629,2.8653,2.8428,2.8112,2.7924,2.7193,2.6282,2.5848,2.5393,2.4975,2.4766,2.4704,2.4704,2.4704,2.4704,2.4554,2.3931,2.3798,2.3596,2.2894,2.2643,2.2458,2.2019,2.1766,2.1518,2.1115,2.0794,2.0599,2.0582,2.0428,2.0304,2.0304,2.0304,2.0304,2.0304,2.0304,2.0304,2.0304,2.0304,2.0304,2.0304,2.0304,2.0304,2.0304,2.0934,2.1304,2.1304,2.2628,2.3302,2.3302,2.3979,2.4302,2.4302,2.4302,2.4302,0.0,0.0,2.6636,2.8804,2.9083,2.913,3.0216,3.1011,3.1499,3.1456,3.2045,3.2399,3.1891,3.2402,3.291,3.2935,3.3517,3.3986,3.4011,3.3355,3.3137,3.3872,3.3298,3.3144,3.3855,3.3018,3.2398,3.2398,3.3013,3.3706,3.4428,3.5121,3.604,3.7263,3.7324,3.7268,3.7237,3.7221,3.6864,3.622,3.622,3.6204,3.6155,3.5519,3.4769,3.3986,3.4252,3.4284,3.4186,3.4293,3.394,3.3348,3.3315,3.243,3.1166,3.1128,3.0289,2.918,2.9316,2.9641,2.9905,2.9259,2.9018,2.8722,2.7289,2.6828,2.6665,2.5961,2.5748,2.5748,2.5748,2.5748,2.5635,2.5157,2.5056,2.483,2.4024,2.3534,2.3331,2.3513,2.2961,2.2555,2.2877,2.2075,2.135,2.1291,2.072,2.0304,2.0304,2.0304,2.0304,2.0304,2.0304,2.0304,2.0304,2.0304,2.0304,2.0304,2.0304,2.0304,2.0304,2.0934,2.1304,2.1304,2.2628,2.3302,2.3302,2.3979,2.4302,2.4302,2.4302,2.4302,2.6568,0.0,2.8501,2.9642,3.0202,3.0543,3.0888,3.092,3.0967,3.1295,3.1291,3.1269,3.1441,3.1742,3.2253,3.3101,3.3555,3.4089,3.4931,3.4164,3.359,3.3837,3.3331,0.0,3.3307,0.0,0.0,3.3459,3.4585,3.5366,3.5605,3.672,3.754,3.7966,3.7982,3.7983,3.7966,3.795,3.7676,3.7085,3.6754,3.6561,3.6528,3.5791,3.5465,3.5486,3.5117,3.4901,3.4878,3.4901,3.4815,3.4549,3.4066,3.3267,3.2362,3.1942,3.1166,3.0269,2.9967,2.9983,3.0063,2.9838,2.9465,2.9009,2.8516,2.8056,2.7531,2.6754,2.6541,2.6426,2.5915,2.5801,2.5764,2.5615,2.5559,2.5494,2.5216,2.5056,2.4862,2.447,2.4198,2.3911,2.3582,2.3221,2.2796,2.2244,2.1102,2.039,2.0595,2.0441,2.039,2.0611,2.0426,2.0304,2.0304,2.0304,2.0304,2.0304,2.0773,2.1023,2.1023,2.2136,2.2778,2.2835,2.392,2.437,2.4166,2.4649,2.4775,2.4508,2.4508,2.4508,2.699,2.8323,2.9518,3.0433,3.1011,3.1368,3.1308,3.1058,3.0874,3.0953,3.0473,3.0135,3.0496,3.062,3.1217,3.2859,3.3443,3.418,3.5559,3.5071,3.4673,3.4941,3.4665,3.4577,0.0,0.0,0.0,3.4491,3.5805,3.6669,3.6669,3.7785,3.8557,3.875,3.875,3.8859,3.9076,3.9076,3.8897,3.8565,3.8211,3.7761,3.7203,3.6743,3.641,3.6162,3.5757,3.5577,3.5549,3.5577,3.5599,3.5548,3.5074,3.443,3.3744,3.3349,3.2536,3.1503,3.0733,3.0571,3.0694,3.0694,3.0433,3.0018,2.975,2.9365,2.8814,2.7738,2.7437,2.727,2.6534,2.635,2.6281,2.6106,2.6053,2.6053,2.6016,2.5892,2.5761,2.5646,2.5408,2.512,2.4829,2.443,2.3901,2.3145,2.1955,2.1097,2.1071,2.086,2.0811,2.1039,2.086,2.0729,2.0729,2.0729,2.0729,2.0729,2.1427,2.1772,2.1665,2.3146,2.3926,2.3831,2.4824,2.5234,2.502,2.5291,2.5275,2.502,2.502,2.502,2.7793,2.8784,2.9758,3.1158,3.1517,3.1498,3.1498,3.1464,3.1242,3.0491,2.9689,2.9091,2.904,0.0,2.9875,3.2113,3.3188,3.4301,3.5843,3.6083,3.639,0.0,0.0,0.0,0.0,0.0,0.0,3.5566,0.0,3.7605,3.7605,3.8368,3.9043,3.9636,3.9662,3.9935,4.0493,4.051,4.051,4.051,4.0483,3.9689,3.8288,3.8328,3.7528,3.6087,3.6233,3.6255,3.6208,3.6259,3.6301,3.6301,3.6301,3.5852,3.5197,3.5197,3.4249,3.2794,3.1601,3.1464,3.18,3.18,3.18,3.1662,3.0955,3.0766,3.0437,2.8937,2.8523,2.8334,2.7558,2.7351,2.722,2.6657,2.6539,2.6522,2.647,2.6157,2.6124,2.6956,2.6556,2.6157,2.6488,2.5645,2.4709,2.4034,2.3259,2.2487,2.1686,2.1525,2.1508,2.1507,2.1507,2.1508,2.1508,2.1525,2.1557,2.1557,2.2292,2.2573,2.2273,2.3925,2.4676,2.4296,2.5312,2.5837,2.5819,2.5837,2.5837,2.5819,2.5819,2.5819,2.8887,3.0126,3.1226,3.1511,3.1578,3.1559,3.1517,3.1071,3.0492,2.9795,2.8545,2.7417,2.69,2.7673,0.0,3.0678,3.3003,0.0,3.6608,3.7325,0.0,3.7957,0.0,3.8083,3.8288,3.88,0.0,0.0,3.8685,3.893,3.893,3.9631,4.0112,4.0254,4.0254,4.0328,4.051,4.0583,4.0648,4.0631,4.0143,3.9692,3.9279,3.8222,3.7516,3.7098,3.6538,3.628,3.6276,3.6301,3.6301,3.6301,3.6301,3.5852,3.5197,3.5197,3.4594,3.3662,3.2754,3.2154,3.18,3.18,3.18,3.1765,3.1576,3.1524,3.1317,3.0368,3.011,2.9799,2.8472,2.8127,2.7939,2.7257,2.7087,2.7087,2.7072,2.699,2.699,2.7218,2.7105,2.699,2.7071,2.6853,2.6395,2.5628,2.5338,2.4603,2.2907,2.1988,2.16,2.1853,2.1643,2.1508,2.1508,2.1999,2.2309,2.2309,2.3572,2.428,2.4195,2.5168,2.5679,2.5627,2.6076,2.6212,2.6016,2.6333,2.6315,2.6016,2.6016,2.6016,2.9817,3.0886,3.1781,3.1709,3.169,3.1499,3.0792,3.0293,2.9608,2.8234,2.6982,0.0,2.5637,2.6483,0.0,0.0,0.0,0.0,3.6967,3.7928,3.8545,0.0,3.9238,0.0,3.9444,3.9821,4.0062,0.0,3.999,3.9966,3.9966,4.0432,4.068,4.068,4.068,4.068,4.068,4.0769,4.0793,4.0776,4.0054,3.9526,3.9181,3.8047,3.7323,3.696,0.0,3.6301,3.6301,3.6301,3.6301,3.6301,3.6301,3.6042,3.568,3.568,3.5214,3.4527,3.4059,3.3421,3.2697,3.2007,3.18,3.18,3.18,3.18,3.1645,3.0921,3.0714,3.042,2.9196,2.8644,2.8299,2.7885,2.754,2.7299,2.7299,2.7299,2.7299,2.7299,2.7299,2.7299,2.7299,2.7299,2.7144,2.6695,2.6333,2.5691,2.4562,2.3604,2.3104,2.3296,2.3148,2.3044,2.3044,2.3414,2.3649,2.3649,2.4772,2.5345,2.518,2.6067,2.6521,2.6384,2.6674,2.6775,2.6641,2.6858,2.6842,2.6641,2.6641,2.6641,3.0627,3.13,3.18,3.18,3.1731,3.1282,2.9834,2.9351,2.8592,2.6387,0.0,2.4816,2.4712,2.5456,2.7075,3.0058,0.0,3.4128,3.7219,3.8267,3.9008,3.9767,4.0498,4.0912,4.0912,4.0912,4.0912,4.0912,4.0793,4.0721,4.0721,4.084,4.0912,4.0912,4.0912,4.0912,4.0912,4.0912,4.086,4.0739,3.9922,3.9163,3.8422,3.7685,3.6978,3.6322,3.6322,3.6339,3.6343,3.6343,3.6343,3.6343,3.6343,3.6343,3.6343,3.6343,3.5946,3.5376,3.5272,3.4826,3.4029,3.2457,3.1955,3.1921,3.1834,3.18,3.1662,3.1024,3.0852,3.0662,2.9868,2.9179,2.8678,2.8575,2.7971,2.7437,2.7437,2.7368,2.7299,2.7299,2.7299,2.7299,2.7299,2.7299,2.7299,2.7299,2.6713,2.6264,2.6264,2.5523,2.5005,2.5005,2.5005,2.5005,2.5005,2.5092,2.516,2.516,2.585,2.6109,2.5742,2.6745,2.7154,2.6792,2.7121,2.7299,2.7299,2.7299,2.7299,2.7299,2.7299,2.7299,3.1403,3.1696,3.18,3.18,3.1334,3.0644,2.9713,2.8558,0.0,0.0,2.456,2.3819,2.3216,2.4732,2.6887,2.9317,0.0,0.0,0.0,0.0,3.9802,0.0,0.0,0.0,0.0,0.0,0.0,0.0,4.0888,4.0864,4.0864,4.0888,4.0912,4.0912,4.0912,4.0912,4.0912,4.0912,4.0584,3.9888,3.9146,3.841,3.7668,3.687,3.6481,3.6482,3.6482,0.0,3.6623,3.6623,3.6623,3.6623,3.6623,3.6623,3.6623,3.6623,3.6536,3.6328,3.5685,3.5355,3.4988,3.3254,3.2714,3.2593,3.1972,3.18,3.1765,3.1645,3.161,3.1438,3.0679,3.0403,3.0127,2.9472,2.8747,2.8213,2.8213,2.773,2.7299,2.7299,2.7299,2.7299,2.7299,2.7299,2.7299,2.7299,2.7178,2.7092,2.7092,2.5868,2.5005,2.5005,2.5005,2.5005,2.5005,2.5557,2.5904,2.5904,2.6644,2.7059,2.6996,2.7181,2.7283,2.7202,2.7266,2.7299,2.7299,2.7299,2.7299,2.7299,2.7299,2.7299,3.1593,3.18,3.1818,3.1856,3.1303,3.0335,2.8779,0.0,0.0,0.0,2.3519,2.3143,2.282,2.4588,0.0,0.0,0.0,0.0,0.0,0.0,0.0,0.0,0.0,0.0,0.0,0.0,4.0935,4.1,4.1006,4.0959,4.0894,4.0912,4.0912,4.0912,4.0959,4.1006,4.1006,4.1035,4.0874,4.0452,3.9349,3.8603,3.8222,3.7061,3.6544,3.6602,3.6602,3.6643,3.6702,3.6702,3.6702,3.6702,3.6702,3.6702,3.6702,3.6702,3.6702,3.6632,3.6267,3.6127,3.5916,3.4653,3.3696,3.3004,3.264,3.2259,3.1964,3.1964,3.1964,3.186,3.1514,3.1115,3.0716,3.0318,2.9659,2.9138,2.9138,2.886,2.8496,2.8099,2.8029,2.7908,2.7492,2.7405,2.7392,2.7362,2.7362,2.7346,2.7297,2.6644,2.6195,2.6195,2.6195,2.6195,2.6195,2.6523,2.6713,2.6713,2.7092,2.7299,2.7299,2.7299,2.7299,2.7299,2.7299,2.7299,2.7299,2.7299,2.7299,2.7299,2.7299,2.7299,3.1666,3.1856,3.1874,3.193,3.1254,3.004,2.7905,2.6673,0.0,0.0,2.2929,2.3019,2.3072,0.0,2.6465,0.0,2.9367,0.0,0.0,0.0,0.0,0.0,0.0,0.0,0.0,0.0,0.0,4.1099,4.1123,4.1076,4.0965,4.0965,4.0965,4.0965,4.1076,4.1123,4.1123,4.118,4.1122,4.0948,3.9787,3.9055,3.869,3.7506,3.6861,3.6742,3.6983,3.7114,3.7151,3.7151,3.7151,3.7134,3.6941,3.6869,3.6888,3.6968,3.6989,3.6989,3.6989,3.6989,3.6902,3.6252,3.4979,3.3621,3.3291,3.2859,3.2406,3.2249,3.2214,3.2214,3.2214,3.1673,3.1133,3.1026,3.0554,3.0114,3.0036,3.0017,2.9841,2.9263,2.9096,2.8841,2.8211,2.7967,2.7816,2.7772,2.7679,2.7572,2.7526,2.7509,2.7496,2.7436,2.736,2.7299,2.7299,2.7299,2.7299,2.7299,2.7299,2.7299,2.7299,2.7437,2.754,2.754,2.7678,2.7798,2.7797,2.7797,2.7813,2.7829,2.7829,2.7829,3.1846,3.2073,3.2073,3.2073,3.0994,2.9463,2.7861,0.0,0.0,2.3206,2.3476,2.3976,2.3976,2.5286,0.0,0.0,0.0,3.1931,0.0,0.0,0.0,0.0,0.0,0.0,0.0,0.0,0.0,4.1186,4.1186,4.1186,4.1186,4.1186,4.1186,4.1186,4.1186,4.1186,4.1186,4.1209,4.0861,4.0205,4.0065,3.9264,3.7906,3.7749,3.7373,3.6864,3.7948,3.848,0.0,3.8611,3.8611,3.8539,3.7735,3.7432,3.7469,3.7826,3.7983,3.7983,3.7983,3.7983,3.7948,3.7892,3.6683,3.5031,3.3621,3.3371,3.3421,3.2733,3.2538,3.2538,3.2538,3.2266,3.1882,3.1448,3.1299,3.1146,3.0779,3.0722,3.0686,3.0632,3.0353,3.0128,3.0057,2.9443,2.8953,2.8935,2.8528,2.8224,2.8206,2.8206,2.8112,2.7869,2.7526,2.7299,2.7299,2.7299,2.7299,2.7299,2.7299,2.7299,2.7299,2.7937,2.8299,2.8299,2.8954,2.9367,2.9486,2.9486,2.9501,2.9583,2.9583,2.9583,3.1046,3.1725,3.2108,3.2144,3.101,2.9579,2.853,0.0,2.567,2.457,2.4561,2.4756,2.4797,2.5676,2.6745,0.0,0.0,0.0,0.0,0.0,0.0,0.0,0.0,0.0,0.0,0.0,4.1328,4.1648,4.1774,4.1906,4.2142,4.1539,4.1209,4.1209,4.1295,4.1318,4.1318,4.1622,4.1658,4.1358,4.1151,4.0739,4.0115,3.965,3.9276,3.9045,3.9535,3.977,0.0,3.9824,3.9536,3.9067,3.8725,3.8293,3.7879,3.8051,3.8101,3.8101,3.8101,3.8101,3.8101,3.8101,3.7628,3.6863,3.5756,3.5212,3.479,3.3966,3.375,3.3643,3.316,3.2908,3.2773,3.2591,3.2532,3.2505,3.2347,3.2303,3.2159,3.1735,3.1546,3.1297,3.0794,3.0452,3.0226,3.0202,3.0012,2.985,2.9805,2.9791,2.975,2.9657,2.8467,2.76,2.7436,2.7421,2.7687,2.8335,2.8386,2.8684,2.937,2.9689,2.9849,2.9849,2.992,3.0018,3.005,2.9858,2.9776,2.9791,2.9791,2.9791,3.0574,3.1585,3.2196,3.2249,3.1094,2.9747,0.0,2.7644,2.63,2.5509,2.5485,2.5628,2.5687,2.6289,2.6958,2.7467,0.0,2.9998,3.2543,0.0,0.0,0.0,0.0,4.0215,0.0,4.1481,4.1825,4.2221,4.2322,4.2501,4.2773,4.208,4.167,4.167,4.1774,4.1817,4.1817,4.2198,4.238,4.2382,4.2136,4.1905,4.1687,4.1107,4.0726,4.0526,4.0868,4.1029,0.0,4.1029,4.0701,4.0156,3.9901,3.9302,3.8629,3.8727,3.8613,3.8394,3.8394,3.8394,3.8394,3.8394,3.8394,3.8284,3.7731,3.6957,3.6115,3.5245,3.4844,3.4451,3.3535,3.3306,3.3335,3.3422,3.3451,3.3465,3.3546,3.356,3.341,3.2889,3.273,3.2493,3.1937,3.1628,3.1455,3.1402,3.1268,3.1144,3.1104,3.1104,3.1078,3.0998,2.9751,2.8798,2.8488,2.8476,2.8806,2.9554,2.9604,2.9955,3.0756,3.1008,3.1135,3.1135,3.1103,3.1126,3.1156,3.0924,3.0831,3.0847,3.0847,3.0582,3.0773,3.1774,3.2406,3.2406,3.1247,2.9879,0.0,2.7719,2.637,2.5563,2.602,2.6581,2.6581,2.7192,2.7683,2.7701,2.9053,0.0,3.2022,0.0,0.0,0.0,0.0,3.977,4.0982,4.211,4.2791,4.2791,4.2791,0.0,4.281,4.2791,4.2773,4.2773,4.2773,4.2791,4.2791,4.2791,4.2791,4.2791,4.2792,4.2412,4.1706,4.1687,4.1252,4.058,4.1763,4.2281,0.0,4.2281,4.2281,4.2171,4.1326,4.0501,3.9834,4.023,3.9844,3.9087,3.9087,3.9087,3.9087,3.9087,3.9087,3.9087,3.9082,3.8282,3.7209,3.6409,3.562,3.4742,3.3593,3.3306,3.3379,3.3721,3.3788,3.3868,3.4136,3.4197,3.4197,3.4179,3.3954,3.3788,3.377,3.3115,3.2583,3.2583,3.2138,3.1782,3.1782,3.1782,3.1703,3.1428,3.1385,3.1197,3.0798,3.0756,3.0756,3.0774,3.0774,3.0788,3.0806,3.1499,3.1899,3.1899,3.2592,3.3036,3.3163,3.3181,3.3196,3.3255,3.3255,3.2405,2.7929,2.9421,3.0703,3.0159,2.965,2.9211,2.8965,2.8105,2.7438,2.7736,2.7999,2.8408,2.9121,2.9467,2.9965,3.1016,3.1604,0.0,0.0,0.0,0.0,0.0,0.0,4.1835,0.0,0.0,4.2904,4.3195,4.3212,4.3318,4.361,4.3627,4.3371,4.2829,4.281,4.281,4.281,4.3069,4.3212,4.3212,4.3491,4.3498,4.3275,4.3275,4.3127,4.2922,4.3296,4.3455,4.3455,4.3455,4.314,4.2603,4.2344,4.1733,4.0989,4.0558,4.0215,3.99,3.9305,3.9101,3.9101,3.9101,3.9101,3.9101,3.9101,3.8846,3.8386,3.7604,3.6401,3.5264,3.4895,3.4352,3.3941,3.4049,3.4074,3.4099,3.4185,3.4197,3.4197,3.4197,3.4136,3.4074,3.4074,3.3852,3.3685,3.3685,3.3555,3.3436,3.3436,3.3436,3.3412,3.3321,3.3321,3.2655,3.1057,3.0944,3.1243,3.1976,3.2025,3.236,3.3091,3.3355,3.3484,3.3484,3.3511,3.3578,3.3606,3.3379,3.3291,3.3306,3.3306,3.3034,0.0,2.883,3.0139,2.9627,2.9346,2.9204,2.9204,2.8842,2.8625,2.914,2.9478,2.989,3.0575,3.0675,3.0999,3.1972,3.2637,3.3481,0.0,0.0,0.0,0.0,0.0,0.0,0.0,4.2994,4.3371,4.361,4.3627,4.3744,4.3989,4.4005,4.3777,4.3265,4.3248,4.3248,4.3248,4.3491,4.3627,4.3627,4.3942,4.407,4.407,4.4101,4.4097,4.4097,4.4097,4.4097,0.0,4.4097,4.3818,4.3368,4.3368,4.2865,4.2083,4.1562,4.1189,4.0817,3.996,3.9667,3.9611,3.9314,3.9202,3.9202,3.9202,3.9161,3.8934,3.8135,3.7169,3.6346,3.603,3.5324,3.4692,3.4692,3.4439,3.4197,3.4197,3.4197,3.4197,3.4197,3.4197,3.4197,3.4197,3.4197,3.4197,3.4197,3.4197,3.4197,3.4197,3.4197,3.4197,3.4197,3.4197,3.3661,3.2326,3.2208,3.2493,3.316,3.3191,3.3494,3.4179,3.4197,3.4197,3.4197,3.4036,3.3947,3.3947,3.3743,3.3643,3.3643,3.3643,3.3465,0.0,2.9609,3.0353,3.0282,2.9942,2.9605,2.9605,2.9658,0.0,2.9774,3.0386,3.0975,3.1152,3.1147,3.1202,3.142,3.266,3.388,0.0,3.6855,0.0,0.0,4.1745,0.0,4.2423,4.3384,4.4005,4.4005,4.4005,4.402,4.402,4.402,4.402,4.402,4.402,4.402,4.402,4.402,4.402,4.402,4.415,4.4199,4.4199,4.427,4.43,0.0,4.43,4.43,4.43,4.43,4.43,4.43,4.43,4.3814,4.3085,4.3029,4.2525,4.1759,4.0955,4.0643,4.0475,3.9666,3.9405,3.9405,3.9405,3.9261,3.8948,3.8204,3.7963,3.7726,3.6978,3.6197,3.5584,3.5584,3.4971,3.4376,3.4395,3.4383,3.4364,3.429,3.429,3.4271,3.4197,3.4197,3.4197,3.4197,3.4197,3.4197,3.4197,3.4197,3.4197,3.4197,3.4197,3.4234,3.429,3.4234,3.4197,3.4197,3.4197,3.4197,3.4197,3.4197,3.4197,3.4197,3.4197,3.4197,3.4197,3.4197,3.4197,3.4197,3.4197,3.3788,2.836,0.0,2.8835,2.8258,2.8453,2.8775,0.0,2.8793,2.8987,2.9595,0.0,3.0653,3.2752,3.2645,3.3035,3.5505,3.5692,3.6022,3.7442,0.0,0.0,4.2987,4.3436,4.3598,4.3598,4.3828,4.4005,4.4005,4.4104,4.415,4.415,4.4211,4.424,4.424,4.424,4.4211,4.415,4.4211,4.424,4.424,4.4255,4.4289,4.4289,4.4285,4.43,4.43,4.43,4.43,4.43,4.43,4.43,4.43,4.43,4.4169,4.3907,4.3253,4.288,4.26,4.1796,4.1123,4.0475,3.9666,3.9405,3.9405,3.9405,3.9301,3.9132,3.896,3.8417,3.7856,3.7671,3.706,3.6472,3.6433,3.631,3.6174,3.6123,3.6123,3.5937,3.5324,3.5194,3.499,3.4309,3.4197,3.4197,3.4197,3.4197,3.4197,3.4197,3.4197,3.4197,3.4197,3.4197,3.4457,3.5138,3.4569,3.4197,3.4197,3.4197,3.4197,3.4197,3.4197,3.4197,3.4197,3.4197,3.4197,3.4197,3.4197,3.4197,3.4197,3.4197,3.4104,2.8627,2.9265,2.9734,2.9326,2.9631,3.0014,3.0014,0.0,0.0,0.0,0.0,3.1672,3.3166,3.3708,3.4502,3.6261,3.6782,0.0,0.0,0.0,4.2612,4.3856,4.4036,4.4085,0.0,4.4116,4.4147,4.4147,4.4211,4.4244,4.4244,4.427,4.43,4.43,4.4329,4.4314,4.4259,4.427,4.43,4.43,4.4329,4.4358,4.4358,4.4387,4.4387,4.4387,4.4387,4.4387,4.4387,4.4387,4.4387,4.4387,4.4387,4.4387,4.4331,4.3844,4.369,4.3578,4.2772,4.1948,4.1111,4.03,4.0038,3.9963,3.9589,3.9425,3.9328,3.9301,3.8958,3.8596,3.8596,3.7988,3.7399,3.736,3.7094,3.6839,3.6801,3.6789,3.6658,3.6224,3.6149,3.6,3.5516,3.5441,3.5429,3.5411,3.5417,3.5417,3.5343,3.5374,3.5386,3.5361,3.5349,3.5535,3.6012,3.5621,3.5349,3.5349,3.5008,3.4804,3.4804,3.4401,3.4197,3.4197,3.4197,3.4197,3.4197,3.4197,3.4197,3.4197,3.4197,3.4197,2.9372,3.0587,3.174,3.1372,3.1626,3.1961,3.1831,0.0,0.0,0.0,0.0,0.0,0.0,3.4544,0.0,0.0,0.0,0.0,4.1504,4.2396,4.314,4.3943,4.415,0.0,4.4214,4.4274,4.43,4.43,4.4314,4.4314,4.4314,4.4329,4.4329,4.4329,4.4401,4.4401,4.4329,4.4329,4.4329,4.4329,4.4401,4.4411,4.4411,4.4468,4.4501,4.4501,0.0,0.0,4.4501,4.4501,4.4501,4.4501,4.4501,4.4501,4.4501,4.4501,4.4501,4.4369,4.3576,4.2825,4.2061,4.1248,4.091,4.0666,3.9984,3.9652,3.9508,3.9444,3.9418,3.9405,3.9405,3.8857,3.8315,3.8302,3.7792,3.7299,3.7287,3.7287,3.725,3.7119,3.7081,3.7044,3.6932,3.6894,3.6889,3.6814,3.6864,3.6864,3.6751,3.6776,3.6789,3.6738,3.6725,3.6781,3.6892,3.6911,3.6967,3.7097,3.621,3.5677,3.5677,3.4971,3.4569,3.4569,3.4569,3.4569,3.4569,3.4569,3.4513,3.4401,3.4401,3.4327,3.0995,3.2535,3.3276,3.1236,3.179,3.2648,3.1961,0.0,0.0,0.0,0.0,0.0,0.0,3.5324,3.642,0.0,0.0,4.1497,0.0,0.0,4.3285,4.4143,0.0,4.4285,4.4285,4.4285,4.43,4.43,4.434,4.4383,4.4383,4.4444,4.4473,4.4473,4.4487,4.4487,4.4473,4.4473,4.4473,4.4473,4.4487,4.4487,4.4487,4.4501,4.4501,4.4501,0.0,4.4501,4.4501,4.4501,4.4501,4.4501,4.4501,4.4501,4.4501,4.4501,4.4501,4.4369,4.3576,4.32,4.2956,4.2098,4.1347,4.0778,4.0647,4.0121,3.9577,3.9564,3.9495,3.9405,3.9405,3.9331,3.9264,3.9212,3.9144,3.9095,3.9025,3.9012,3.8807,3.8059,3.791,3.7704,3.7025,3.6894,3.6913,3.6889,3.6882,3.6882,3.6858,3.6889,3.687,3.6858,3.6876,3.7156,3.7829,3.7903,3.8202,3.8949,3.7434,3.6532,3.6532,3.6402,3.6315,3.6315,3.6315,3.6315,3.6315,3.6315,3.5974,3.5306,3.5306,3.4915,3.0307,3.1998,3.3287,3.2165,3.3466,3.4903,3.4525,0.0,0.0,0.0,0.0,0.0,0.0,0.0,3.8398,4.0766,0.0,4.2538,4.2955,4.3403,4.3851,0.0,0.0,4.434,4.434,4.4387,4.4416,4.4416,4.4444,4.444,4.444,4.4487,4.4501,4.4501,4.4501,4.4501,4.4501,4.4501,4.4501,4.4501,4.4501,4.4501,4.4501,4.4501,4.4501,4.4501,0.0,4.4501,4.4501,4.4501,4.4501,4.4501,4.4501,4.4501,4.4501,4.4501,4.4501,4.4444,4.4083,4.3951,4.382,4.2975,4.2449,4.2055,4.1605,4.1191,4.0816,4.0365,3.9896,3.952,3.952,3.9533,3.9546,3.952,3.9533,3.9546,3.9502,3.952,3.9389,3.8996,3.8994,3.8968,3.8573,3.8609,3.8666,3.8623,3.8656,3.8601,3.8397,3.8416,3.8406,3.8271,3.8246,3.8396,3.8769,3.8807,3.8769,3.8695,3.7934,3.7261,3.6833,3.6814,3.6814,3.6814,3.6814,3.6814,3.6814,3.6814,3.6628,3.6255,3.6255,3.6031,2.9861,3.144,3.3057,3.3255,3.486,3.6513,3.6898,3.587,0.0,0.0,0.0,0.0,0.0,3.8394,0.0,4.1899,4.2796,4.3319,4.3352,4.3932,4.4344,4.4344,4.4383,4.4411,4.4411,4.4473,4.4501,4.4501,4.4501,4.4501,4.4501,4.4501,4.4501,4.4501,4.4501,4.4501,4.4501,4.4501,4.4501,4.4501,4.4501,4.4501,4.4501,4.4501,4.4501,4.4501,4.4501,4.4501,4.4501,4.4501,4.4501,4.4501,4.4501,4.4501,4.4501,4.4501,4.4501,4.4501,4.4501,4.4524,4.4479,4.3839,4.3514,4.325,4.2579,4.224,4.1977,4.1349,4.0758,4.021,3.972,3.9589,3.9589,3.9589,3.9638,3.9668,3.9668,3.9715,3.9731,3.9731,3.9859,3.9969,3.9969,4.01,4.0167,4.0129,4.0177,4.0081,3.9786,3.9824,3.9826,3.9613,3.9588,3.9583,3.9521,3.9508,3.9202,3.8502,3.8421,3.8134,3.7511,3.7493,3.7493,3.7493,3.7493,3.7493,3.7493,3.7493,3.738,3.7175,3.7175,3.7081,3.1218,3.2295,3.3187,3.3997,3.4903,0.0,3.7553,3.723,0.0,3.8695,0.0,0.0,0.0,4.0493,4.1959,4.2946,4.3765,4.4318,4.4393,0.0,4.4487,4.4487,4.4501,4.4501,4.4501,4.4501,4.4501,4.4501,4.4501,4.4501,4.4501,4.4501,4.4501,4.4501,4.4501,4.4501,4.4501,4.4501,4.4501,4.4501,4.4501,4.4501,4.4501,4.4501,4.4501,4.4501,4.4501,4.4501,4.4501,4.4501,4.4501,4.4501,4.4501,4.4501,4.4501,4.4501,4.4501,4.4501,4.4501,4.4621,4.4763,4.4707,4.4189,4.3576,4.35,4.295,4.2363,4.2306,4.239,4.2025,4.0099,3.9589,3.9589,3.9589,3.9731,3.9881,3.9881,4.002,4.0158,4.0158,4.0177,4.0186,4.0186,4.0196,4.0205,4.0196,4.0205,4.0196,4.0158,4.0177,4.0148,4.0129,4.0129,4.007,3.9881,3.987,3.9751,3.9514,3.9389,3.9274,3.9218,3.9218,3.9218,3.9218,3.9218,3.9218,3.9218,3.9218,3.8807,3.8003,3.8003,3.7611,3.0197,3.2079,3.3955,3.4284,3.5757,0.0,0.0,3.8637,3.949,4.0651,4.0659,0.0,0.0,0.0,4.2219,4.3122,4.3947,4.4473,4.4501,4.4501,4.4501,4.4501,4.4501,4.4501,4.4501,4.4501,4.4501,4.4501,4.4501,4.4501,4.4501,4.4501,4.4501,4.4501,4.4501,4.456,4.4694,4.4694,4.4764,4.4922,4.464,4.4501,4.4501,4.4501,4.4501,4.4501,4.4501,4.4501,4.4501,4.4501,4.4573,4.4701,4.4862,4.4953,4.4953,4.4953,4.4953,4.4953,4.4953,4.4992,4.5052,4.5052,4.4843,4.4587,4.4587,4.4377,4.4034,4.3493,4.3384,4.3147,4.1867,4.1529,4.1529,4.1529,4.1174,4.0824,4.0824,4.0502,4.0205,4.0205,4.0304,4.04,4.04,4.0489,4.0576,4.0576,4.0576,4.0539,4.0397,4.04,4.0339,4.0214,4.0205,4.0177,4.01,4.009,4.005,3.9969,3.9684,3.9514,3.9514,3.9514,3.9514,3.9514,3.9514,3.9514,3.9514,3.9514,3.9346,3.9027,3.9027,3.8858,3.0212,3.2118,3.4154,3.47,0.0,0.0,3.8826,3.9818,4.0967,4.2136,4.2188,0.0,0.0,0.0,0.0,0.0,4.4101,4.4581,4.4581,4.4581,4.4581,4.4581,4.4661,4.4726,4.4726,4.4726,4.4726,4.4726,4.4726,4.4726,4.4726,4.4726,4.4726,4.4726,4.4726,4.4795,4.4919,4.4938,4.5019,4.5201,4.4862,4.4726,4.4726,4.4726,4.4726,4.4726,4.4726,4.4726,4.4726,4.4726,4.4789,4.4931,4.5118,4.5201,4.5201,4.5201,4.5201,4.5201,4.5201,4.5253,4.5284,4.5284,4.5284,4.5284,4.5284,4.5284,4.5179,4.4576,4.4451,4.4372,4.3824,4.3196,4.2699,4.2699,4.2297,4.1913,4.1913,4.1517,4.1176,4.1176,4.1285,4.1381,4.1381,4.1273,4.1184,4.1184,4.0971,4.0739,4.0605,4.0591,4.0546,4.0397,4.0381,4.0356,4.0304,4.0295,4.0269,4.0205,3.9927,3.9789,3.9789,3.9789,3.9789,3.9789,3.9738,3.9691,3.9691,3.9626,3.9589,3.9589,3.9589,3.9589,3.1755,3.2596,3.3635,0.0,0.0,0.0,4.0409,4.0759,4.1261,4.3218,0.0,4.2476,4.2669,0.0,0.0,4.3739,4.4406,4.48,4.48,4.48,4.48,4.48,4.5041,4.5201,4.5201,4.5201,4.5201,4.5201,4.5201,4.5201,4.5201,4.5201,4.5201,4.5201,4.5201,4.5201,4.5201,4.5201,4.5211,4.5211,4.5211,4.5211,4.5201,4.5201,4.5201,4.5201,4.5201,4.5201,4.5201,4.5201,4.5201,4.5201,4.5211,4.5211,4.5211,4.5211,4.5211,4.5211,4.5211,4.5333,4.5498,4.5498,4.5498,4.5498,4.5498,4.5498,4.5498,4.5498,4.5642,4.5807,4.5807,4.4265,4.2718,4.2718,4.2886,4.3025,4.3025,4.3168,4.3305,4.3305,4.3305,4.3305,4.3305,4.2589,4.2009,4.2009,4.1332,4.0816,4.0816,4.0816,4.0816,4.0816,4.0816,4.0739,4.0531,4.0516,4.0425,4.0223,4.0214,4.0205,4.0205,4.0205,4.0205,4.0205,4.0,3.9903,3.9903,3.9703,3.962,3.962,3.9602,3.9589,3.1463,3.3374,0.0,3.5876,0.0,0.0,0.0,4.1801,0.0,0.0,4.3908,4.3469,4.354,0.0,0.0,4.3846,4.4567,4.5085,4.5085,4.5085,4.5085,4.5085,4.514,4.5201,4.5201,4.5201,4.5201,4.5201,4.5201,4.5201,4.5201,4.5201,4.5201,4.5201,4.5201,4.5273,4.5409,4.5409,4.5481,4.5626,4.5626,4.5472,4.5201,4.5201,4.5201,4.5201,4.5201,4.5201,4.5211,4.5352,4.5409,4.5418,4.5577,4.5626,4.5626,4.5626,4.5626,4.5626,4.5626,4.5658,4.5715,4.5715,4.5715,4.5715,4.5715,4.5715,4.5715,4.5715,4.5752,4.5807,4.5807,4.5336,4.4882,4.4882,4.4488,4.4131,4.4131,4.3696,4.3305,4.3305,4.3305,4.3305,4.3305,4.3092,4.2918,4.2918,4.2705,4.255,4.255,4.255,4.255,4.255,4.255,4.2286,4.1608,4.1563,4.1291,4.0651,4.0612,4.0489,4.0214,4.0205,4.0205,4.0205,4.0148,4.012,4.011,4.005,4.002,4.002,3.9881,3.9811,3.3081,3.4772,0.0,3.7861,4.0124,4.2131,4.2618,0.0,0.0,0.0,0.0,4.4173,4.4572,4.4334,0.0,4.4591,4.5026,4.5314,4.5314,4.5314,4.5314,4.5314,4.539,4.5436,4.5436,4.5436,4.5436,4.5436,4.5436,4.5436,4.5436,4.5436,4.5436,4.5436,4.5436,4.549,4.5618,4.5618,4.5673,4.5807,4.5807,4.5665,4.5436,4.5436,4.5436,4.5436,4.5436,4.5436,4.5445,4.5577,4.5618,4.5634,4.5752,4.5807,4.5807,4.5807,4.5807,4.5807,4.5807,4.5807,4.5807,4.5807,4.5807,4.5807,4.5807,4.5807,4.5807,4.5807,4.5807,4.5807,4.5807,4.5807,4.5807,4.5807,4.5432,4.5084,4.5084,4.4659,4.4291,4.4291,4.4291,4.4291,4.4291,4.404,4.3827,4.3827,4.3518,4.3305,4.3305,4.3305,4.3305,4.3305,4.3305,4.3092,4.257,4.2512,4.2318,4.1816,4.1796,4.1684,4.1437,4.0795,4.0441,4.0441,4.0356,4.0321,4.0321,4.0242,4.0205,4.0205,4.008,4.002,3.556,0.0,0.0,4.0396,4.1313,0.0,4.4479,4.467,4.4542,4.5344,0.0,4.4715,4.5624,4.5059,4.4734,4.565,4.5642,4.5535,4.5535,4.5535,4.5535,4.5535,4.57,4.5807,4.5807,4.5807,4.5807,4.5807,4.5807,4.5807,4.5807,4.5807,4.5807,4.5807,4.5807,4.5807,4.5807,4.5807,4.5807,4.5807,4.5807,4.5807,4.5807,4.5807,4.5807,4.5807,4.5807,4.5814,4.5814,4.5814,4.5814,4.5814,4.5814,4.5814,4.5814,4.5814,4.5814,4.5814,4.5814,4.5814,4.5814,4.5814,4.5814,4.5814,4.5814,4.5814,4.5814,4.5814,4.5814,4.5807,4.5807,4.5807,4.5807,4.5807,4.5807,4.5807,4.5807,4.5807,4.5807,4.5807,4.5807,4.5807,4.5807,4.5181,4.471,4.471,4.404,4.3537,4.3537,4.3537,4.3537,4.3537,4.3537,4.3498,4.3421,4.3421,4.3382,4.3305,4.3305,4.3305,4.3305,4.1835,4.1029,4.1029,4.0844,4.077,4.075,4.0492,4.0355,4.0355,4.028,4.0233,3.4461,3.5675,0.0,0.0,4.0663,4.2,4.3389,4.4136,4.4727,4.537,4.5491,4.5539,4.5761,4.5624,4.5559,4.5761,4.5759,4.5737,4.5737,4.5737,4.5737,4.5737,4.5766,4.5807,4.5807,4.5807,4.5807,4.5807,4.5807,4.5807,4.5807,4.5807,4.5807,4.5807,4.5807,4.5807,4.5807,4.5807,4.5807,4.5807,4.5807,4.5821,4.5886,4.5821,4.5821,4.5886,4.5886,4.588,4.5886,4.5886,4.5886,4.5886,4.5886,4.5886,4.5886,4.5886,4.5886,4.5886,4.5886,4.5886,4.5886,4.5886,4.5886,4.5886,4.5886,4.5886,4.5886,4.5886,4.5887,4.5886,4.5886,4.5847,4.5807,4.5807,4.5807,4.5807,4.5807,4.5807,4.5807,4.5807,4.5807,4.5807,4.5807,4.5671,4.5529,4.5529,4.5374,4.5265,4.5265,4.5265,4.5265,4.5265,4.5265,4.5007,4.4362,4.4323,4.404,4.3343,4.3305,4.3305,4.3305,4.2957,4.2763,4.2763,4.2717,4.2697,4.2697,4.1974,4.1612,4.1586,4.0793,4.0441,3.501,0.0,0.0,3.9906,0.0,4.2095,4.3072,4.3653,4.407,4.4376,4.517,4.5807,4.5807,4.5807,4.5807,4.5807,4.5807,4.5807,4.5807,4.5807,4.5671,4.5278,4.5239,4.5065,4.4639,4.4601,4.4601,4.4601,4.4987,4.5239,4.5239,4.5587,4.5807,4.5807,4.5807,4.5807,4.5807,4.5821,4.5854,4.5854,4.5848,4.5867,4.5906,4.5867,4.5867,4.5906,4.5906,4.5893,4.5911,4.5911,4.5911,4.5911,4.5911,4.5911,4.5911,4.5911,4.5911,4.5911,4.5911,4.5911,4.5911,4.5911,4.5911,4.5911,4.5911,4.5911,4.5911,4.5911,4.5899,4.5906,4.5906,4.5867,4.5854,4.5854,4.5808,4.5807,4.5807,4.5807,4.5807,4.5807,4.5807,4.5807,4.5807,4.5807,4.5807,4.5807,4.5807,4.5807,4.5807,4.5807,4.5807,4.5807,4.5807,4.5633,4.52,4.5162,4.4987,4.4523,4.4504,4.4504,4.4504,4.4504,4.4117,4.3324,4.3305,4.3305,4.3305,4.2841,4.2628,4.2609,4.1665,4.1224,3.5427,0.0,3.7889,4.1003,4.1796,0.0,4.2705,4.2976,4.3073,4.3073,4.4427,4.5555,4.5401,4.5497,4.5529,4.5401,4.5381,4.5381,4.5381,4.5381,4.5123,4.4439,4.4381,4.4091,4.3363,4.3305,4.3305,4.3305,4.411,4.4594,4.4594,4.5355,4.5807,4.5807,4.5807,4.5807,4.5814,4.5867,4.59,4.5906,4.5905,4.5917,4.5917,4.5923,4.5923,4.5917,4.5917,4.5923,4.5923,4.5923,4.5923,4.5923,4.5923,4.5923,4.5923,4.5923,4.5923,4.5923,4.5923,4.5923,4.5923,4.5923,4.5923,4.5923,4.5923,4.5923,4.5923,4.5923,4.5923,4.5917,4.5917,4.5911,4.5911,4.5911,4.5867,4.5821,4.5821,4.5821,4.5821,4.5821,4.5821,4.5821,4.5821,4.5821,4.5821,4.5814,4.5814,4.5814,4.5814,4.5807,4.5807,4.5814,4.5807,4.5807,4.5807,4.5807,4.5807,4.5807,4.5807,4.5807,4.5807,4.5807,4.5142,4.3769,4.373,4.373,4.373,4.3595,4.3518,4.3498,4.2628,4.2222,0.0,0.0,3.8508,0.0,4.0971,4.099,0.0,0.0,4.2164,0.0,4.3556,4.4523,4.3769,4.4253,4.4504,4.3769,4.3634,4.3634,4.3634,4.3634,4.3595,4.3498,4.3479,4.344,4.3305,4.3305,4.3305,4.3305,4.411,4.4594,4.4594,4.5355,4.5807,4.5807,4.5807,4.5821,4.5893,4.5893,4.5893,4.5905,4.5955,4.5991,4.5991,4.5994,4.5994,4.5991,4.5991,4.5983,4.5991,4.5991,4.5991,4.5991,4.5991,4.5991,4.5991,4.5991,4.5991,4.5991,4.5991,4.5991,4.5991,4.5991,4.5991,4.5991,4.5991,4.5991,4.5991,4.5991,4.5989,4.5991,4.5991,4.5929,4.5911,4.5911,4.5886,4.5899,4.5899,4.5899,4.5899,4.5899,4.5899,4.5899,4.5899,4.5899,4.5886,4.5893,4.5893,4.5893,4.5893,4.5847,4.5821,4.5886,4.5827,4.5807,4.5807,4.5807,4.5807,4.5807,4.5807,4.5807,4.5807,4.5807,4.5691,4.5478,4.5478,4.5478,4.5459,4.4775,4.442,4.44,4.3537,4.3131,3.3924,3.6336,3.8624,0.0,4.0797,4.0797,4.0797,0.0,4.1332,4.1332,4.2299,4.3189,4.3285,4.3614,4.375,4.3363,4.3305,4.3305,4.3305,4.3305,4.3131,4.2628,4.257,4.2396,4.1932,4.1893,4.1893,4.1893,4.2667,4.3157,4.3189,4.4434,4.5144,4.5183,4.5609,4.5874,4.5906,4.5944,4.5949,4.5964,4.5994,4.6,4.6,4.5997,4.5991,4.6,4.6,4.6011,4.6002,4.6002,4.6002,4.6002,4.6002,4.6002,4.6002,4.6002,4.6002,4.6002,4.6002,4.6002,4.6002,4.6002,4.6002,4.6002,4.6002,4.6002,4.6002,4.6002,4.5991,4.6,4.6,4.5969,4.5964,4.5964,4.5964,4.5964,4.5964,4.5935,4.5911,4.5911,4.5911,4.5911,4.5911,4.5911,4.5905,4.5893,4.5906,4.5906,4.5906,4.5874,4.5874,4.5906,4.5874,4.5867,4.5867,4.5867,4.5867,4.5867,4.5867,4.5867,4.5867,4.5867,4.5867,4.5867,4.5827,4.5807,4.5807,4.5432,4.5278,4.5258,4.4427,4.404,0.0,0.0,3.7732,3.9673,4.0331,4.0544,0.0,0.0,4.0802,0.0,4.128,4.1899,4.2537,4.2834,4.2899,4.2705,4.2654,4.266,4.266,4.266,4.2428,4.1763,4.1693,4.1454,4.0861,4.0803,4.0803,4.0803,4.1564,4.2041,4.2104,4.3498,4.4324,4.4368,4.5168,4.5601,4.5588,4.5856,4.6,4.6002,4.6002,4.6002,4.6002,4.6002,4.6002,4.6002,4.6002,4.6002,4.6002,4.6002,4.6002,4.6002,4.6002,4.6002,4.6002,4.6002,4.6002,4.6002,4.6002,4.6002,4.6002,4.6002,4.6002,4.6002,4.6002,4.6002,4.6002,4.6002,4.6002,4.6002,4.6002,4.6002,4.6002,4.6002,4.6002,4.6002,4.6002,4.5964,4.5935,4.5935,4.5935,4.5935,4.5935,4.5935,4.5929,4.5923,4.5923,4.5923,4.5923,4.5917,4.5911,4.5923,4.5917,4.5911,4.5911,4.5911,4.5911,4.5911,4.5911,4.5911,4.5911,4.5911,4.5911,4.5911,4.5841,4.5834,4.5834,4.5834,4.5834,4.5815,4.5208,4.4937,0.0,3.3993,0.0,3.7797,3.9057,0.0,0.0,0.0,4.0801,4.0801,4.0821,4.0879,4.0918,4.1549,4.1816,4.1048,4.0931,4.093,4.093,4.093,4.0903,4.0879,4.0852,4.0842,4.0794,4.0794,4.0794,4.0794,4.1598,4.21,4.21,4.2966,4.3451,4.3476,4.431,4.4754,4.4763,4.5592,4.5997,4.6002,4.6002,4.6002,4.6002,4.6002,4.6002,4.6002,4.6002,4.6002,4.6002,4.6002,4.6002,4.6002,4.6002,4.6002,4.6002,4.6002,4.6002,4.6002,4.6002,4.6002,4.6002,4.6002,4.6002,4.6002,4.6002,4.6002,4.6002,4.6002,4.6002,4.6002,4.6002,4.6002,4.6002,4.6002,4.6002,4.6002,4.6002,4.5997,4.5997,4.5997,4.5997,4.5997,4.5997,4.5997,4.5986,4.5997,4.5991,4.5991,4.5991,4.5949,4.5923,4.5991,4.5949,4.5911,4.5911,4.5911,4.5911,4.5911,4.5911,4.5911,4.5911,4.5911,4.5911,4.5911,4.5905,4.5886,4.5886,4.5886,4.5886,4.5886,4.5847,4.5828,0.0,0.0,0.0,3.6828,3.8126,3.8984,3.9837,4.0438,4.0807,4.0807,4.0807,4.0807,4.0807,4.1042,4.1141,4.0856,4.0804,4.079,4.079,4.079,4.0796,4.0807,4.0809,4.0798,4.0809,4.079,4.079,4.079,4.1092,4.1277,4.1332,4.2172,4.2624,4.2625,4.4023,4.4999,4.5539,4.5841,4.6002,4.6002,4.6002,4.6002,4.6002,4.6002,4.6002,4.6002,4.6002,4.6002,4.6002,4.6002,4.6002,4.6002,4.6002,4.6002,4.6002,4.6002,4.6002,4.6002,4.6002,4.6002,4.6002,4.6002,4.6002,4.6002,4.6002,4.6002,4.6002,4.6002,4.6002,4.6002,4.6002,4.6002,4.6002,4.6002,4.6002,4.6002,4.6002,4.6002,4.6002,4.6002,4.6002,4.6002,4.6002,4.6002,4.5997,4.6005,4.6005,4.6005,4.6005,4.5975,4.5975,4.6005,4.5975,4.5969,4.5969,4.5969,4.5969,4.5969,4.5969,4.5969,4.5969,4.5969,4.5969,4.5969,4.5969,4.5933,4.5911,4.5911,4.5911,4.5911,4.5911,4.5911,3.1382,0.0,0.0,0.0,0.0,3.7555,3.9573,3.9999,4.016,4.0722,4.0833,4.0833,4.0833,4.0833,4.0828,4.0793,4.0818,4.0823,4.0823,4.0823,4.0823,4.0833,4.0818,4.0812,4.0837,4.0823,4.0823,4.0823,4.0828,0.0,4.0898,4.1446,4.2034,4.2617,4.3763,4.4889,4.5982,4.6002,4.6002,4.6002,4.6002,4.6002,4.6002,4.6002,4.6002,4.6002,4.6002,4.6002,4.6002,4.6002,4.6002,4.6002,4.6002,4.6002,4.6002,4.6002,4.6002,4.6002,4.6002,4.6002,4.6002,4.6002,4.6002,4.6002,4.6002,4.6002,4.6002,4.6002,4.6002,4.6002,4.6002,4.6002,4.6002,4.6002,4.6002,4.6002,4.6002,4.6002,4.6002,4.6002,4.6002,4.6002,4.6002,4.6002,4.6002,4.6002,4.6002,4.6002,4.6002,4.6002,4.6002,4.6002,4.6002,4.6002,4.6002,4.6002,4.6002,4.6002,4.6002,4.6002,4.6002,4.6002,4.6002,4.6002,4.6002,4.598,4.5922,4.5922,4.5922,4.5922,4.5922,4.5922,0.0,0.0,0.0,0.0,0.0,0.0,3.9785,0.0,3.8814,4.0504,4.0834,4.0834,4.0888,4.0907,4.0874,4.0818,4.0867,4.0902,4.0902,4.0902,4.0898,4.0903,4.0844,4.0837,4.0883,4.0902,4.0902,4.0902,4.0893,4.0907,4.0907,4.0907,4.1704,4.3447,4.3505,4.4307,4.5982,4.6002,4.6002,4.6002,4.6002,4.6002,4.6002,4.6002,4.6002,4.6002,4.6002,4.6007,4.6007,4.6002,4.6002,4.6002,4.6002,4.6002,4.6002,4.6002,4.6002,4.6002,4.6002,4.6002,4.6002,4.6002,4.6002,4.6002,4.6002,4.6002,4.6002,4.6002,4.6002,4.6002,4.6002,4.6002,4.6002,4.6002,4.6002,4.6002,4.6002,4.6002,4.6002,4.6002,4.6002,4.6002,4.6002,4.6002,4.6002,4.6002,4.6002,4.6002,4.6002,4.6002,4.6002,4.6002,4.6002,4.6002,4.6002,4.6002,4.6002,4.6002,4.6002,4.6002,4.6002,4.6002,4.6002,4.6002,4.6002,4.6002,4.6002,4.6002,4.6002,4.6002,4.6002,4.6002,3.0119,0.0,0.0,0.0,0.0,0.0,0.0,0.0,3.7254,3.9555,3.9528,3.947,4.0684,4.0907,4.0883,4.0888,4.0893,4.0898,4.0898,4.0898,4.0898,4.0907,4.0874,4.0888,4.0893,4.0898,4.0898,0.0,4.0903,4.0907,4.0907,4.0907,4.1704,4.3447,4.3505,4.4307,4.5982,4.6002,4.6002,4.6002,4.6054,4.6054,4.6002,4.6059,4.605,4.6007,4.6059,4.6068,4.606,4.6013,4.6002,4.6002,4.6002,4.6002,4.6002,4.6002,4.6002,4.6002,4.6002,4.6002,4.6002,4.6002,4.6002,4.6002,4.6002,4.6002,4.6002,4.6002,4.6002,4.6002,4.6002,4.6002,4.6002,4.6002,4.6002,4.6002,4.6002,4.6002,4.6002,4.6002,4.6002,4.6002,4.6002,4.6002,4.6002,4.6002,4.6002,4.6002,4.6002,4.6002,4.6002,4.6002,4.6002,4.6002,4.6002,4.6002,4.6002,4.6002,4.6002,4.6002,4.6002,4.6002,4.6002,4.6002,4.6002,4.6002,4.6002,4.6002,4.6002,4.6002,4.6002,4.6002,0.0,0.0,0.0,0.0,0.0,0.0,3.6343,3.6131,3.6087,0.0,3.8797,3.8745,3.9728,3.9871,3.998,4.0344,4.0404,4.0528,4.0854,4.0907,4.0907,4.0907,4.0907,4.0907,4.0907,4.0907,4.0907,4.0907,4.0907,4.0907,4.0907,4.0924,4.1723,4.3454,4.353,4.4366,4.6061,4.608,4.608,4.608,4.6125,4.6122,4.6084,4.6125,4.6122,4.6084,4.6125,4.6142,4.6139,4.6098,4.606,4.6041,4.6017,4.6002,4.6002,4.6002,4.6002,4.6002,4.6002,4.6002,4.6002,4.6002,4.6002,4.6002,4.6002,4.6002,4.6002,4.6002,4.6002,4.6002,4.6002,4.6002,4.6002,4.6002,4.6002,4.6002,4.6002,4.6002,4.6002,4.6002,4.6002,4.6002,4.6002,4.6002,4.6002,4.6002,4.6002,4.6002,4.6002,4.6002,4.6002,4.6002,4.6002,4.6002,4.6002,4.6002,4.6002,4.6002,4.6002,4.6002,4.6002,4.6002,4.6002,4.6002,4.6002,4.6002,4.6002,4.6002,4.6002,4.6002,4.6002,4.6002,0.0,0.0,0.0,0.0,0.0,0.0,3.6989,3.6073,3.5156,0.0,3.8003,3.7982,3.8174,3.8241,3.85,3.9165,3.9514,3.9974,4.0796,4.09,4.0915,4.0906,4.0915,4.0915,4.0906,4.0915,4.09,4.09,4.09,4.0958,4.1056,4.1107,4.1922,4.3601,4.3706,4.4524,4.6183,4.6202,4.6202,4.6202,4.6207,4.6207,4.6202,4.6207,4.6207,4.6202,4.6207,4.6209,4.6209,4.6209,4.6162,4.6095,4.6036,4.6012,4.6002,4.6002,4.6002,4.6002,4.6002,4.6002,4.6002,4.6002,4.6002,4.6002,4.6002,4.6002,4.6002,4.6002,4.6002,4.6002,4.6002,4.6002,4.6002,4.6002,4.6002,4.6002,4.6002,4.6002,4.6002,4.6002,4.6002,4.6002,4.6002,4.6002,4.6002,4.6002,4.6002,4.6002,4.6002,4.6002,4.6002,4.6002,4.6002,4.6002,4.6002,4.6002,4.6002,4.6002,4.6002,4.6002,4.6002,4.6002,4.6002,4.6002,4.6002,4.6002,4.6002,4.6002,4.6002,4.6002,4.6002,4.6002,0.0,0.0,0.0,0.0,0.0,0.0,3.363,3.3495,3.3984,0.0,3.4879,3.4816,3.6162,3.6971,3.7262,3.6723,3.8362,3.9999,4.0851,4.0988,4.0972,4.0977,4.0981,4.0972,4.0977,4.0981,4.0988,4.0988,4.0988,4.128,4.1985,4.2032,4.2836,4.4573,4.4639,4.515,4.6183,4.6202,4.6202,4.6202,4.6205,4.6205,4.6204,4.6205,4.6204,4.6204,4.6205,4.619,4.619,4.619,4.6168,4.6098,4.6084,4.6054,4.6002,4.6002,4.6002,4.6002,4.6002,4.6002,4.6002,4.6002,4.6002,4.6002,4.6002,4.6002,4.6002,4.6002,4.6002,4.6002,4.6002,4.6002,4.6002,4.6002,4.6002,4.6002,4.6002,4.6002,4.6002,4.6002,4.6002,4.6002,4.6002,4.6002,4.6002,4.6002,4.6002,4.6002,4.6002,4.6002,4.6002,4.6002,4.6002,4.6002,4.6002,4.6002,4.6002,4.6002,4.6002,4.6002,4.6002,4.6002,4.6002,4.6002,4.6002,4.6002,4.6002,4.6002,4.6002,4.6002,4.6002,4.6002,0.0,0.0,0.0,3.4681,0.0,0.0,0.0,3.3686,3.3374,3.5543,3.4606,3.3924,3.5625,3.5953,3.5951,3.5956,3.736,3.8628,3.9082,4.0226,4.1005,4.1001,4.1,4.1003,4.1001,4.1,4.0992,4.0992,4.1402,4.1831,4.2282,4.2744,4.3589,4.4858,4.4921,4.5371,4.623,4.625,4.625,4.625,4.6247,4.6247,4.625,4.6247,4.6247,4.625,4.6247,4.6243,4.6243,4.6243,4.6211,4.6142,4.6158,4.6131,4.6095,4.6052,4.6059,4.605,4.6017,4.6002,4.6002,4.6002,4.6002,4.6002,4.6002,4.6002,4.6002,4.6002,4.6002,4.6002,4.6002,4.6002,4.6002,4.6002,4.6022,4.6059,4.6059,4.6072,4.6098,4.6098,4.6098,4.6076,4.6017,4.6002,4.6002,4.6002,4.6002,4.6003,4.605,4.6013,4.6003,4.605,4.6013,4.6002,4.6002,4.6002,4.6002,4.6002,4.6032,4.6036,4.6002,4.6032,4.6036,4.6002,4.6002,4.6002,4.6002,4.6002,4.6002,4.6002,4.6002,4.6002,0.0,0.0,0.0,0.0,0.0,3.4686,0.0,0.0,0.0,3.5564,3.451,0.0,0.0,0.0,0.0,0.0,0.0,0.0,0.0,3.8711,0.0,4.0277,4.0437,4.0595,4.0746,4.0633,4.0674,4.0987,4.1378,4.1866,4.2531,4.3281,4.4158,4.5135,4.5219,4.5597,4.628,4.63,4.63,4.63,4.63,4.63,4.63,4.63,4.63,4.63,4.63,4.63,4.63,4.63,4.6276,4.621,4.6203,4.6209,4.6199,4.6139,4.6122,4.6112,4.6067,4.6041,4.6041,4.6041,4.6041,4.6041,4.6041,4.6027,4.6013,4.6013,4.6013,4.6013,4.6013,4.6027,4.6041,4.6041,4.6076,4.6122,4.6122,4.6158,4.6202,4.6202,4.6202,4.616,4.6067,4.6041,4.6041,4.6041,4.6041,4.6067,4.6112,4.6068,4.6072,4.6115,4.6064,4.6041,4.6041,4.6041,4.6041,4.6041,4.6087,4.6095,4.6046,4.6087,4.6091,4.6041,4.6041,4.6041,4.6041,4.6041,4.6022,4.6002,4.6002,4.6002,0.0,0.0,0.0,0.0,3.5935,0.0,0.0,0.0,3.3866,3.1934,0.0,0.0,0.0,0.0,0.0,0.0,0.0,0.0,3.4061,3.6077,3.7708,3.7636,3.8376,3.9154,3.9863,3.9293,3.9498,4.0982,3.9791,4.0338,4.3382,4.3633,4.4452,4.6092,4.6145,4.6202,4.63,4.63,4.63,4.63,4.63,4.63,4.63,4.63,4.63,4.63,4.63,4.63,4.63,4.63,4.6303,4.627,4.621,4.6205,4.6202,4.6199,4.6197,4.6195,4.6171,4.6189,4.6189,4.6189,4.6189,4.6189,4.6189,4.6137,4.6087,4.6087,4.6087,4.6087,4.6087,4.6134,4.6189,4.6189,4.6173,4.6197,4.6197,4.62,4.6202,4.6202,4.6202,4.62,4.6171,4.6189,4.6189,4.6189,4.6189,4.6171,4.6195,4.6173,4.6171,4.6195,4.6171,4.6189,4.6189,4.6189,4.6189,4.6189,4.6173,4.6195,4.6189,4.6173,4.6195,4.6189,4.6189,4.6189,4.6189,4.6189,4.6118,4.6002,4.6002,4.6002,0.0,0.0,0.0,0.0,0.0,0.0,3.3554,0.0,3.2558,0.0,0.0,0.0,0.0,0.0,0.0,0.0,3.3201,0.0,0.0,0.0,3.5392,0.0,0.0,0.0,3.9015,3.8344,3.8357,3.9567,3.943,4.0366,4.2806,4.3899,4.5012,4.6261,4.63,4.63,4.63,4.63,4.63,4.63,4.63,4.63,4.63,4.63,4.63,4.63,4.63,4.63,4.63,4.63,4.63,4.6302,4.6276,4.6265,4.6249,4.6209,4.6206,4.6205,4.621,4.6202,4.6202,4.6202,4.6202,4.6202,4.6202,4.6171,4.6155,4.6155,4.6155,4.6155,4.6155,4.6171,4.6202,4.6202,4.6198,4.6206,4.6206,4.623,4.6269,4.6269,4.6269,4.6269,4.6269,4.6224,4.6202,4.6202,4.6202,4.6191,4.6205,4.6195,4.6191,4.6205,4.6195,4.6202,4.6202,4.6202,4.6202,4.6202,4.6202,4.6192,4.6205,4.6194,4.6202,4.6202,4.6202,4.6202,4.6202,4.6202,4.6165,4.6118,4.6118,4.6118,3.695,0.0,0.0,0.0,0.0,0.0,0.0,0.0,0.0,0.0,0.0,0.0,0.0,0.0,0.0,0.0,0.0,3.3006,0.0,3.25,0.0,0.0,0.0,0.0,0.0,3.7243,3.7145,3.8494,3.8473,3.9468,4.1908,4.3469,4.4797,4.5909,4.6183,4.63,4.63,4.63,4.63,4.63,4.63,4.63,4.63,4.63,4.63,4.63,4.63,4.63,4.63,4.63,4.63,4.63,4.63,4.63,4.6284,4.6245,4.6228,4.6229,4.6228,4.6225,4.6225,4.6225,4.6225,4.6225,4.6225,4.6202,4.6196,4.6196,4.6196,4.6196,4.6196,4.6201,4.6225,4.6225,4.623,4.6228,4.6228,4.6277,4.63,4.63,4.63,4.63,4.63,4.6268,4.6225,4.6225,4.6225,4.6228,4.6229,4.623,4.6229,4.6229,4.623,4.6225,4.6225,4.6225,4.6225,4.6225,4.6225,4.6229,4.6229,4.6229,4.6225,4.6225,4.6225,4.6225,4.6225,4.6225,4.6225,4.6224,4.6212,4.6202,0.0,0.0,0.0,3.5584,0.0,0.0,0.0,0.0,3.5133,0.0,0.0,0.0,0.0,0.0,0.0,0.0,0.0,0.0,0.0,0.0,0.0,0.0,0.0,0.0,0.0,3.5798,3.5839,0.0,3.6288,3.6696,4.0914,4.1986,4.3274,4.499,4.5851,4.63,4.63,4.63,4.63,4.63,4.63,4.63,4.63,4.63,4.63,4.63,4.63,4.63,4.63,4.63,4.63,4.63,4.63,4.63,4.63,4.6302,4.6302,4.6302,4.6303,4.6303,4.6303,4.6303,4.6303,4.6303,4.6303,4.6244,4.6191,4.6191,4.6191,4.6191,4.6191,4.6245,4.6303,4.6303,4.6303,4.6302,4.6302,4.6302,4.63,4.63,4.63,4.63,4.63,4.6302,4.6303,4.6303,4.6303,4.6303,4.6302,4.6303,4.6303,4.6302,4.6303,4.6303,4.6303,4.6303,4.6303,4.6303,4.6303,4.6303,4.6302,4.6303,4.6303,4.6303,4.6303,4.6303,4.6303,4.6303,4.6303,4.6305,4.6226,4.6202,0.0,0.0,3.9253,3.6989,0.0,0.0,0.0,0.0,0.0,0.0,0.0,0.0,0.0,0.0,0.0,0.0,0.0,0.0,0.0,0.0,0.0,0.0,0.0,0.0,0.0,0.0,0.0,3.5917,3.574,0.0,4.0073,4.2162,4.3782,4.4951,4.5851,4.63,4.63,4.63,4.63,4.63,4.63,4.63,4.63,4.63,4.63,4.63,4.63,4.63,4.63,4.63,4.63,4.63,4.63,4.63,4.63,4.63,4.63,4.63,4.63,4.63,4.63,4.63,4.63,4.63,4.63,4.6288,4.6277,4.6277,4.6277,4.6277,4.6277,4.629,4.63,4.63,4.6749,4.7159,4.7159,4.7588,4.7959,4.7959,4.7959,4.7783,4.7256,4.7159,4.6963,4.6397,4.63,4.6515,4.71,4.7159,4.7354,4.79,4.7471,4.7159,4.7159,4.6632,4.63,4.63,4.63,4.63,4.63,4.63,4.63,4.63,4.63,4.63,4.63,4.63,4.63,4.6302,4.6281,4.6267,3.9489,4.0093,0.0,3.8609,3.8004,0.0,3.4471,0.0,3.5857,0.0,0.0,0.0,0.0,0.0,0.0,0.0,0.0,0.0,0.0,3.1289,0.0,0.0,0.0,0.0,0.0,0.0,3.3671,3.5486,3.5564,0.0,0.0,4.1986,4.3645,4.4504,4.5675,4.63,4.63,4.63,4.63,4.63,4.63,4.63,4.63,4.63,4.63,4.63,4.63,4.63,4.63,4.63,4.63,4.63,4.63,4.63,4.63,4.63,4.63,4.63,4.63,4.63,4.63,4.63,4.63,4.6358,4.6671,4.6554,4.6358,4.6671,4.6534,4.63,4.63,4.6534,4.6768,4.6768,4.7412,4.8037,4.8037,4.8427,4.8798,4.8798,4.8798,4.8642,4.8115,4.8037,4.7744,4.6885,4.6768,4.7061,4.792,4.8037,4.8232,4.874,4.8349,4.7918,4.7625,4.6807,4.63,4.63,4.63,4.63,4.63,4.63,4.63,4.63,4.63,4.63,4.63,4.63,4.63,4.63,4.63,4.63]}]]